<?xml version="1.0" encoding="UTF-8" standalone="no" ?>
<gpx xmlns="http://www.topografix.com/GPX/1/1" xmlns:xsi="http://www.w3.org/2001/XMLSchema-instance" xsi:schemaLocation="http://www.topografix.com/GPX/1/1 http://www.topografix.com/GPX/1/1/gpx.xsd" version="1.1" creator="VisuGPX - https://www.visugpx.com">
  <metadata>
    <name>rando les aureliens -pourciel -25022011</name>
    <desc><![CDATA[rando umtl les monts aureliens le 25-02-2011]]></desc>
  </metadata>
  <trk>
    <name><![CDATA[2011-02-25-01]]></name>
    <trkseg>
      <trkpt lat="43.46631" lon="5.74585">
        <ele>313.7</ele>
        <time>2011-02-25T08:31:03Z</time>
      </trkpt>
      <trkpt lat="43.46637" lon="5.74593">
        <ele>299.7</ele>
        <time>2011-02-25T08:31:04Z</time>
      </trkpt>
      <trkpt lat="43.46618" lon="5.74601">
        <ele>301.7</ele>
        <time>2011-02-25T08:31:23Z</time>
      </trkpt>
      <trkpt lat="43.46608" lon="5.74605">
        <ele>303.1</ele>
        <time>2011-02-25T08:31:33Z</time>
      </trkpt>
      <trkpt lat="43.46599" lon="5.7461">
        <ele>303.2</ele>
        <time>2011-02-25T08:31:43Z</time>
      </trkpt>
      <trkpt lat="43.46589" lon="5.74616">
        <ele>303.6</ele>
        <time>2011-02-25T08:31:53Z</time>
      </trkpt>
      <trkpt lat="43.46578" lon="5.74618">
        <ele>303.7</ele>
        <time>2011-02-25T08:32:03Z</time>
      </trkpt>
      <trkpt lat="43.46568" lon="5.74622">
        <ele>304.2</ele>
        <time>2011-02-25T08:32:13Z</time>
      </trkpt>
      <trkpt lat="43.46567" lon="5.74622">
        <ele>304.2</ele>
        <time>2011-02-25T08:32:14Z</time>
      </trkpt>
      <trkpt lat="43.46546" lon="5.74628">
        <ele>304.7</ele>
        <time>2011-02-25T08:32:33Z</time>
      </trkpt>
      <trkpt lat="43.46534" lon="5.74631">
        <ele>305.2</ele>
        <time>2011-02-25T08:32:43Z</time>
      </trkpt>
      <trkpt lat="43.46522" lon="5.74636">
        <ele>305.7</ele>
        <time>2011-02-25T08:32:53Z</time>
      </trkpt>
      <trkpt lat="43.4651" lon="5.74641">
        <ele>306.2</ele>
        <time>2011-02-25T08:33:03Z</time>
      </trkpt>
      <trkpt lat="43.46499" lon="5.74645">
        <ele>306.7</ele>
        <time>2011-02-25T08:33:13Z</time>
      </trkpt>
      <trkpt lat="43.46488" lon="5.74649">
        <ele>307.2</ele>
        <time>2011-02-25T08:33:23Z</time>
      </trkpt>
      <trkpt lat="43.46487" lon="5.74649">
        <ele>307.2</ele>
        <time>2011-02-25T08:33:24Z</time>
      </trkpt>
      <trkpt lat="43.46465" lon="5.74657">
        <ele>308.7</ele>
        <time>2011-02-25T08:33:43Z</time>
      </trkpt>
      <trkpt lat="43.46453" lon="5.74661">
        <ele>309.7</ele>
        <time>2011-02-25T08:33:53Z</time>
      </trkpt>
      <trkpt lat="43.46442" lon="5.74665">
        <ele>310.2</ele>
        <time>2011-02-25T08:34:03Z</time>
      </trkpt>
      <trkpt lat="43.46431" lon="5.74671">
        <ele>311</ele>
        <time>2011-02-25T08:34:13Z</time>
      </trkpt>
      <trkpt lat="43.46421" lon="5.74677">
        <ele>311.7</ele>
        <time>2011-02-25T08:34:23Z</time>
      </trkpt>
      <trkpt lat="43.4641" lon="5.74683">
        <ele>312.2</ele>
        <time>2011-02-25T08:34:33Z</time>
      </trkpt>
      <trkpt lat="43.4641" lon="5.74684">
        <ele>312.5</ele>
        <time>2011-02-25T08:34:34Z</time>
      </trkpt>
      <trkpt lat="43.46391" lon="5.74693">
        <ele>313.6</ele>
        <time>2011-02-25T08:34:53Z</time>
      </trkpt>
      <trkpt lat="43.4638" lon="5.74698">
        <ele>314.2</ele>
        <time>2011-02-25T08:35:03Z</time>
      </trkpt>
      <trkpt lat="43.46368" lon="5.74702">
        <ele>315.1</ele>
        <time>2011-02-25T08:35:13Z</time>
      </trkpt>
      <trkpt lat="43.46356" lon="5.74705">
        <ele>315.7</ele>
        <time>2011-02-25T08:35:23Z</time>
      </trkpt>
      <trkpt lat="43.46343" lon="5.74708">
        <ele>316.7</ele>
        <time>2011-02-25T08:35:33Z</time>
      </trkpt>
      <trkpt lat="43.46332" lon="5.74712">
        <ele>317.6</ele>
        <time>2011-02-25T08:35:43Z</time>
      </trkpt>
      <trkpt lat="43.4633" lon="5.74712">
        <ele>317.6</ele>
        <time>2011-02-25T08:35:44Z</time>
      </trkpt>
      <trkpt lat="43.46309" lon="5.74721">
        <ele>319</ele>
        <time>2011-02-25T08:36:03Z</time>
      </trkpt>
      <trkpt lat="43.46296" lon="5.74725">
        <ele>319.6</ele>
        <time>2011-02-25T08:36:13Z</time>
      </trkpt>
      <trkpt lat="43.46285" lon="5.74731">
        <ele>320.1</ele>
        <time>2011-02-25T08:36:23Z</time>
      </trkpt>
      <trkpt lat="43.46273" lon="5.74735">
        <ele>320.6</ele>
        <time>2011-02-25T08:36:33Z</time>
      </trkpt>
      <trkpt lat="43.46262" lon="5.7474">
        <ele>321.1</ele>
        <time>2011-02-25T08:36:43Z</time>
      </trkpt>
      <trkpt lat="43.4625" lon="5.74744">
        <ele>321.6</ele>
        <time>2011-02-25T08:36:53Z</time>
      </trkpt>
      <trkpt lat="43.46249" lon="5.74744">
        <ele>321.7</ele>
        <time>2011-02-25T08:36:54Z</time>
      </trkpt>
      <trkpt lat="43.46226" lon="5.74753">
        <ele>322.7</ele>
        <time>2011-02-25T08:37:13Z</time>
      </trkpt>
      <trkpt lat="43.46215" lon="5.74759">
        <ele>323.2</ele>
        <time>2011-02-25T08:37:23Z</time>
      </trkpt>
      <trkpt lat="43.46204" lon="5.74766">
        <ele>324</ele>
        <time>2011-02-25T08:37:33Z</time>
      </trkpt>
      <trkpt lat="43.46192" lon="5.74774">
        <ele>324.7</ele>
        <time>2011-02-25T08:37:43Z</time>
      </trkpt>
      <trkpt lat="43.46182" lon="5.74782">
        <ele>325.6</ele>
        <time>2011-02-25T08:37:53Z</time>
      </trkpt>
      <trkpt lat="43.46171" lon="5.74786">
        <ele>326.5</ele>
        <time>2011-02-25T08:38:03Z</time>
      </trkpt>
      <trkpt lat="43.4617" lon="5.74786">
        <ele>326.6</ele>
        <time>2011-02-25T08:38:04Z</time>
      </trkpt>
      <trkpt lat="43.46147" lon="5.74789">
        <ele>328.2</ele>
        <time>2011-02-25T08:38:23Z</time>
      </trkpt>
      <trkpt lat="43.46136" lon="5.74793">
        <ele>329.2</ele>
        <time>2011-02-25T08:38:33Z</time>
      </trkpt>
      <trkpt lat="43.46129" lon="5.74792">
        <ele>329.7</ele>
        <time>2011-02-25T08:38:43Z</time>
      </trkpt>
      <trkpt lat="43.46125" lon="5.74799">
        <ele>330.2</ele>
        <time>2011-02-25T08:38:53Z</time>
      </trkpt>
      <trkpt lat="43.46118" lon="5.74806">
        <ele>330.6</ele>
        <time>2011-02-25T08:39:03Z</time>
      </trkpt>
      <trkpt lat="43.46111" lon="5.74813">
        <ele>331.2</ele>
        <time>2011-02-25T08:39:13Z</time>
      </trkpt>
      <trkpt lat="43.46111" lon="5.74814">
        <ele>331.2</ele>
        <time>2011-02-25T08:39:14Z</time>
      </trkpt>
      <trkpt lat="43.46097" lon="5.74828">
        <ele>332.6</ele>
        <time>2011-02-25T08:39:33Z</time>
      </trkpt>
      <trkpt lat="43.46092" lon="5.74837">
        <ele>333.1</ele>
        <time>2011-02-25T08:39:43Z</time>
      </trkpt>
      <trkpt lat="43.46085" lon="5.74847">
        <ele>333.6</ele>
        <time>2011-02-25T08:39:53Z</time>
      </trkpt>
      <trkpt lat="43.46081" lon="5.74858">
        <ele>334.5</ele>
        <time>2011-02-25T08:40:03Z</time>
      </trkpt>
      <trkpt lat="43.46075" lon="5.74869">
        <ele>335.7</ele>
        <time>2011-02-25T08:40:13Z</time>
      </trkpt>
      <trkpt lat="43.46068" lon="5.74878">
        <ele>337</ele>
        <time>2011-02-25T08:40:23Z</time>
      </trkpt>
      <trkpt lat="43.46067" lon="5.74878">
        <ele>337.1</ele>
        <time>2011-02-25T08:40:24Z</time>
      </trkpt>
      <trkpt lat="43.46053" lon="5.74894">
        <ele>338.5</ele>
        <time>2011-02-25T08:40:43Z</time>
      </trkpt>
      <trkpt lat="43.46047" lon="5.74901">
        <ele>339.1</ele>
        <time>2011-02-25T08:40:53Z</time>
      </trkpt>
      <trkpt lat="43.46042" lon="5.74913">
        <ele>340.2</ele>
        <time>2011-02-25T08:41:03Z</time>
      </trkpt>
      <trkpt lat="43.46035" lon="5.74924">
        <ele>341.7</ele>
        <time>2011-02-25T08:41:13Z</time>
      </trkpt>
      <trkpt lat="43.46027" lon="5.74939">
        <ele>343.6</ele>
        <time>2011-02-25T08:41:23Z</time>
      </trkpt>
      <trkpt lat="43.4602" lon="5.74947">
        <ele>345.2</ele>
        <time>2011-02-25T08:41:33Z</time>
      </trkpt>
      <trkpt lat="43.46019" lon="5.74948">
        <ele>345.2</ele>
        <time>2011-02-25T08:41:34Z</time>
      </trkpt>
      <trkpt lat="43.46003" lon="5.74966">
        <ele>347</ele>
        <time>2011-02-25T08:41:53Z</time>
      </trkpt>
      <trkpt lat="43.45995" lon="5.74975">
        <ele>347.7</ele>
        <time>2011-02-25T08:42:03Z</time>
      </trkpt>
      <trkpt lat="43.45987" lon="5.74983">
        <ele>348.7</ele>
        <time>2011-02-25T08:42:13Z</time>
      </trkpt>
      <trkpt lat="43.45979" lon="5.74991">
        <ele>349.7</ele>
        <time>2011-02-25T08:42:23Z</time>
      </trkpt>
      <trkpt lat="43.4597" lon="5.74996">
        <ele>350.5</ele>
        <time>2011-02-25T08:42:33Z</time>
      </trkpt>
      <trkpt lat="43.4596" lon="5.75002">
        <ele>351.2</ele>
        <time>2011-02-25T08:42:43Z</time>
      </trkpt>
      <trkpt lat="43.4596" lon="5.75003">
        <ele>351.2</ele>
        <time>2011-02-25T08:42:44Z</time>
      </trkpt>
      <trkpt lat="43.45942" lon="5.75015">
        <ele>353.2</ele>
        <time>2011-02-25T08:43:03Z</time>
      </trkpt>
      <trkpt lat="43.45933" lon="5.75022">
        <ele>354.2</ele>
        <time>2011-02-25T08:43:13Z</time>
      </trkpt>
      <trkpt lat="43.45922" lon="5.75029">
        <ele>355.2</ele>
        <time>2011-02-25T08:43:23Z</time>
      </trkpt>
      <trkpt lat="43.45913" lon="5.75039">
        <ele>356.7</ele>
        <time>2011-02-25T08:43:33Z</time>
      </trkpt>
      <trkpt lat="43.45905" lon="5.75049">
        <ele>358.2</ele>
        <time>2011-02-25T08:43:43Z</time>
      </trkpt>
      <trkpt lat="43.45896" lon="5.75056">
        <ele>359.6</ele>
        <time>2011-02-25T08:43:53Z</time>
      </trkpt>
      <trkpt lat="43.45895" lon="5.75057">
        <ele>359.7</ele>
        <time>2011-02-25T08:43:54Z</time>
      </trkpt>
      <trkpt lat="43.45884" lon="5.75064">
        <ele>361.5</ele>
        <time>2011-02-25T08:44:13Z</time>
      </trkpt>
      <trkpt lat="43.45875" lon="5.75065">
        <ele>362.2</ele>
        <time>2011-02-25T08:44:23Z</time>
      </trkpt>
      <trkpt lat="43.45865" lon="5.75066">
        <ele>363.2</ele>
        <time>2011-02-25T08:44:33Z</time>
      </trkpt>
      <trkpt lat="43.45853" lon="5.7507">
        <ele>364</ele>
        <time>2011-02-25T08:44:43Z</time>
      </trkpt>
      <trkpt lat="43.45845" lon="5.75075">
        <ele>364.7</ele>
        <time>2011-02-25T08:44:53Z</time>
      </trkpt>
      <trkpt lat="43.45839" lon="5.75086">
        <ele>364.7</ele>
        <time>2011-02-25T08:45:03Z</time>
      </trkpt>
      <trkpt lat="43.45839" lon="5.75087">
        <ele>364.7</ele>
        <time>2011-02-25T08:45:04Z</time>
      </trkpt>
      <trkpt lat="43.45825" lon="5.7511">
        <ele>365.2</ele>
        <time>2011-02-25T08:45:23Z</time>
      </trkpt>
      <trkpt lat="43.45816" lon="5.75123">
        <ele>365.7</ele>
        <time>2011-02-25T08:45:33Z</time>
      </trkpt>
      <trkpt lat="43.45806" lon="5.75132">
        <ele>366.7</ele>
        <time>2011-02-25T08:45:43Z</time>
      </trkpt>
      <trkpt lat="43.45795" lon="5.75141">
        <ele>367.6</ele>
        <time>2011-02-25T08:45:53Z</time>
      </trkpt>
      <trkpt lat="43.45783" lon="5.75148">
        <ele>368.6</ele>
        <time>2011-02-25T08:46:03Z</time>
      </trkpt>
      <trkpt lat="43.45772" lon="5.75155">
        <ele>369.7</ele>
        <time>2011-02-25T08:46:13Z</time>
      </trkpt>
      <trkpt lat="43.4577" lon="5.75155">
        <ele>369.7</ele>
        <time>2011-02-25T08:46:14Z</time>
      </trkpt>
      <trkpt lat="43.45749" lon="5.75173">
        <ele>373</ele>
        <time>2011-02-25T08:46:33Z</time>
      </trkpt>
      <trkpt lat="43.45741" lon="5.75185">
        <ele>373.7</ele>
        <time>2011-02-25T08:46:43Z</time>
      </trkpt>
      <trkpt lat="43.45735" lon="5.752">
        <ele>374.6</ele>
        <time>2011-02-25T08:46:53Z</time>
      </trkpt>
      <trkpt lat="43.45734" lon="5.75217">
        <ele>375.2</ele>
        <time>2011-02-25T08:47:03Z</time>
      </trkpt>
      <trkpt lat="43.45735" lon="5.75234">
        <ele>376.2</ele>
        <time>2011-02-25T08:47:13Z</time>
      </trkpt>
      <trkpt lat="43.45734" lon="5.75249">
        <ele>377</ele>
        <time>2011-02-25T08:47:23Z</time>
      </trkpt>
      <trkpt lat="43.45734" lon="5.7525">
        <ele>377</ele>
        <time>2011-02-25T08:47:24Z</time>
      </trkpt>
      <trkpt lat="43.4573" lon="5.75277">
        <ele>377.7</ele>
        <time>2011-02-25T08:47:43Z</time>
      </trkpt>
      <trkpt lat="43.45725" lon="5.7529">
        <ele>378.2</ele>
        <time>2011-02-25T08:47:53Z</time>
      </trkpt>
      <trkpt lat="43.45719" lon="5.75304">
        <ele>378.7</ele>
        <time>2011-02-25T08:48:03Z</time>
      </trkpt>
      <trkpt lat="43.45713" lon="5.75313">
        <ele>379.1</ele>
        <time>2011-02-25T08:48:13Z</time>
      </trkpt>
      <trkpt lat="43.45703" lon="5.75323">
        <ele>379.6</ele>
        <time>2011-02-25T08:48:23Z</time>
      </trkpt>
      <trkpt lat="43.45692" lon="5.75327">
        <ele>380.5</ele>
        <time>2011-02-25T08:48:33Z</time>
      </trkpt>
      <trkpt lat="43.45691" lon="5.75327">
        <ele>380.6</ele>
        <time>2011-02-25T08:48:34Z</time>
      </trkpt>
      <trkpt lat="43.45678" lon="5.75305">
        <ele>381.2</ele>
        <time>2011-02-25T08:48:53Z</time>
      </trkpt>
      <trkpt lat="43.45678" lon="5.7529">
        <ele>381.7</ele>
        <time>2011-02-25T08:49:03Z</time>
      </trkpt>
      <trkpt lat="43.4568" lon="5.75278">
        <ele>381.7</ele>
        <time>2011-02-25T08:49:13Z</time>
      </trkpt>
      <trkpt lat="43.45682" lon="5.75262">
        <ele>381.5</ele>
        <time>2011-02-25T08:49:23Z</time>
      </trkpt>
      <trkpt lat="43.45685" lon="5.75249">
        <ele>380.7</ele>
        <time>2011-02-25T08:49:33Z</time>
      </trkpt>
      <trkpt lat="43.45688" lon="5.75232">
        <ele>380.7</ele>
        <time>2011-02-25T08:49:43Z</time>
      </trkpt>
      <trkpt lat="43.45689" lon="5.7523">
        <ele>380.7</ele>
        <time>2011-02-25T08:49:44Z</time>
      </trkpt>
      <trkpt lat="43.45696" lon="5.75184">
        <ele>382</ele>
        <time>2011-02-25T08:50:03Z</time>
      </trkpt>
      <trkpt lat="43.45697" lon="5.75166">
        <ele>382.2</ele>
        <time>2011-02-25T08:50:13Z</time>
      </trkpt>
      <trkpt lat="43.45698" lon="5.75149">
        <ele>382.6</ele>
        <time>2011-02-25T08:50:23Z</time>
      </trkpt>
      <trkpt lat="43.45698" lon="5.75131">
        <ele>382.5</ele>
        <time>2011-02-25T08:50:33Z</time>
      </trkpt>
      <trkpt lat="43.45698" lon="5.7511">
        <ele>382.6</ele>
        <time>2011-02-25T08:50:43Z</time>
      </trkpt>
      <trkpt lat="43.45698" lon="5.75094">
        <ele>382.5</ele>
        <time>2011-02-25T08:50:53Z</time>
      </trkpt>
      <trkpt lat="43.45697" lon="5.75093">
        <ele>382.2</ele>
        <time>2011-02-25T08:50:54Z</time>
      </trkpt>
      <trkpt lat="43.45692" lon="5.75061">
        <ele>381.1</ele>
        <time>2011-02-25T08:51:13Z</time>
      </trkpt>
      <trkpt lat="43.45689" lon="5.75044">
        <ele>380</ele>
        <time>2011-02-25T08:51:23Z</time>
      </trkpt>
      <trkpt lat="43.45683" lon="5.75028">
        <ele>379</ele>
        <time>2011-02-25T08:51:33Z</time>
      </trkpt>
      <trkpt lat="43.45675" lon="5.75013">
        <ele>377.7</ele>
        <time>2011-02-25T08:51:43Z</time>
      </trkpt>
      <trkpt lat="43.45667" lon="5.74997">
        <ele>376.2</ele>
        <time>2011-02-25T08:51:53Z</time>
      </trkpt>
      <trkpt lat="43.45657" lon="5.74985">
        <ele>375.6</ele>
        <time>2011-02-25T08:52:03Z</time>
      </trkpt>
      <trkpt lat="43.45656" lon="5.74985">
        <ele>375.6</ele>
        <time>2011-02-25T08:52:04Z</time>
      </trkpt>
      <trkpt lat="43.45636" lon="5.74969">
        <ele>373.5</ele>
        <time>2011-02-25T08:52:23Z</time>
      </trkpt>
      <trkpt lat="43.45624" lon="5.74957">
        <ele>373.1</ele>
        <time>2011-02-25T08:52:33Z</time>
      </trkpt>
      <trkpt lat="43.45614" lon="5.74948">
        <ele>372.6</ele>
        <time>2011-02-25T08:52:43Z</time>
      </trkpt>
      <trkpt lat="43.45601" lon="5.74937">
        <ele>372.2</ele>
        <time>2011-02-25T08:52:53Z</time>
      </trkpt>
      <trkpt lat="43.45592" lon="5.74927">
        <ele>372.2</ele>
        <time>2011-02-25T08:53:03Z</time>
      </trkpt>
      <trkpt lat="43.45581" lon="5.74914">
        <ele>371.7</ele>
        <time>2011-02-25T08:53:13Z</time>
      </trkpt>
      <trkpt lat="43.4558" lon="5.74913">
        <ele>371.7</ele>
        <time>2011-02-25T08:53:14Z</time>
      </trkpt>
      <trkpt lat="43.45565" lon="5.74887">
        <ele>371.1</ele>
        <time>2011-02-25T08:53:33Z</time>
      </trkpt>
      <trkpt lat="43.45558" lon="5.74873">
        <ele>370.5</ele>
        <time>2011-02-25T08:53:43Z</time>
      </trkpt>
      <trkpt lat="43.45554" lon="5.74863">
        <ele>369.7</ele>
        <time>2011-02-25T08:53:53Z</time>
      </trkpt>
      <trkpt lat="43.45548" lon="5.74848">
        <ele>368.7</ele>
        <time>2011-02-25T08:54:03Z</time>
      </trkpt>
      <trkpt lat="43.45539" lon="5.74835">
        <ele>367.7</ele>
        <time>2011-02-25T08:54:13Z</time>
      </trkpt>
      <trkpt lat="43.4553" lon="5.74824">
        <ele>367.5</ele>
        <time>2011-02-25T08:54:23Z</time>
      </trkpt>
      <trkpt lat="43.45529" lon="5.74823">
        <ele>367.5</ele>
        <time>2011-02-25T08:54:24Z</time>
      </trkpt>
      <trkpt lat="43.45519" lon="5.74792">
        <ele>367</ele>
        <time>2011-02-25T08:54:43Z</time>
      </trkpt>
      <trkpt lat="43.45522" lon="5.74777">
        <ele>366.5</ele>
        <time>2011-02-25T08:54:53Z</time>
      </trkpt>
      <trkpt lat="43.45526" lon="5.74759">
        <ele>365.7</ele>
        <time>2011-02-25T08:55:03Z</time>
      </trkpt>
      <trkpt lat="43.45528" lon="5.74742">
        <ele>364.7</ele>
        <time>2011-02-25T08:55:13Z</time>
      </trkpt>
      <trkpt lat="43.45527" lon="5.74725">
        <ele>364</ele>
        <time>2011-02-25T08:55:23Z</time>
      </trkpt>
      <trkpt lat="43.45524" lon="5.7471">
        <ele>363</ele>
        <time>2011-02-25T08:55:33Z</time>
      </trkpt>
      <trkpt lat="43.45523" lon="5.74708">
        <ele>362.7</ele>
        <time>2011-02-25T08:55:34Z</time>
      </trkpt>
      <trkpt lat="43.45507" lon="5.74674">
        <ele>362</ele>
        <time>2011-02-25T08:55:53Z</time>
      </trkpt>
      <trkpt lat="43.45499" lon="5.74664">
        <ele>362</ele>
        <time>2011-02-25T08:56:03Z</time>
      </trkpt>
      <trkpt lat="43.45488" lon="5.74654">
        <ele>361.7</ele>
        <time>2011-02-25T08:56:13Z</time>
      </trkpt>
      <trkpt lat="43.45478" lon="5.74643">
        <ele>361.2</ele>
        <time>2011-02-25T08:56:23Z</time>
      </trkpt>
      <trkpt lat="43.45468" lon="5.74634">
        <ele>360.6</ele>
        <time>2011-02-25T08:56:33Z</time>
      </trkpt>
      <trkpt lat="43.45459" lon="5.74625">
        <ele>359.7</ele>
        <time>2011-02-25T08:56:43Z</time>
      </trkpt>
      <trkpt lat="43.45458" lon="5.74624">
        <ele>359.7</ele>
        <time>2011-02-25T08:56:44Z</time>
      </trkpt>
      <trkpt lat="43.45439" lon="5.74604">
        <ele>359.2</ele>
        <time>2011-02-25T08:57:03Z</time>
      </trkpt>
      <trkpt lat="43.45429" lon="5.74596">
        <ele>358.6</ele>
        <time>2011-02-25T08:57:13Z</time>
      </trkpt>
      <trkpt lat="43.45418" lon="5.74585">
        <ele>358.2</ele>
        <time>2011-02-25T08:57:23Z</time>
      </trkpt>
      <trkpt lat="43.45407" lon="5.74573">
        <ele>357.7</ele>
        <time>2011-02-25T08:57:33Z</time>
      </trkpt>
      <trkpt lat="43.45395" lon="5.74565">
        <ele>357.1</ele>
        <time>2011-02-25T08:57:43Z</time>
      </trkpt>
      <trkpt lat="43.45384" lon="5.74562">
        <ele>356.2</ele>
        <time>2011-02-25T08:57:53Z</time>
      </trkpt>
      <trkpt lat="43.45383" lon="5.74562">
        <ele>356.2</ele>
        <time>2011-02-25T08:57:54Z</time>
      </trkpt>
      <trkpt lat="43.45361" lon="5.7455">
        <ele>355.2</ele>
        <time>2011-02-25T08:58:13Z</time>
      </trkpt>
      <trkpt lat="43.45352" lon="5.74537">
        <ele>355</ele>
        <time>2011-02-25T08:58:23Z</time>
      </trkpt>
      <trkpt lat="43.45344" lon="5.74523">
        <ele>354.7</ele>
        <time>2011-02-25T08:58:33Z</time>
      </trkpt>
      <trkpt lat="43.45336" lon="5.74506">
        <ele>354.7</ele>
        <time>2011-02-25T08:58:43Z</time>
      </trkpt>
      <trkpt lat="43.45327" lon="5.74492">
        <ele>355.1</ele>
        <time>2011-02-25T08:58:53Z</time>
      </trkpt>
      <trkpt lat="43.45324" lon="5.74487">
        <ele>355.2</ele>
        <time>2011-02-25T08:59:03Z</time>
      </trkpt>
      <trkpt lat="43.45324" lon="5.74487">
        <ele>355.2</ele>
        <time>2011-02-25T08:59:04Z</time>
      </trkpt>
      <trkpt lat="43.45323" lon="5.74492">
        <ele>355.1</ele>
        <time>2011-02-25T08:59:23Z</time>
      </trkpt>
      <trkpt lat="43.45322" lon="5.74494">
        <ele>355.1</ele>
        <time>2011-02-25T08:59:33Z</time>
      </trkpt>
      <trkpt lat="43.45322" lon="5.74493">
        <ele>355.2</ele>
        <time>2011-02-25T08:59:43Z</time>
      </trkpt>
      <trkpt lat="43.45313" lon="5.74483">
        <ele>355.6</ele>
        <time>2011-02-25T08:59:53Z</time>
      </trkpt>
      <trkpt lat="43.45303" lon="5.74469">
        <ele>355</ele>
        <time>2011-02-25T09:00:03Z</time>
      </trkpt>
      <trkpt lat="43.45293" lon="5.7446">
        <ele>354.6</ele>
        <time>2011-02-25T09:00:13Z</time>
      </trkpt>
      <trkpt lat="43.45292" lon="5.74459">
        <ele>354.6</ele>
        <time>2011-02-25T09:00:14Z</time>
      </trkpt>
      <trkpt lat="43.45273" lon="5.7443">
        <ele>354.5</ele>
        <time>2011-02-25T09:00:33Z</time>
      </trkpt>
      <trkpt lat="43.45264" lon="5.74413">
        <ele>354.2</ele>
        <time>2011-02-25T09:00:43Z</time>
      </trkpt>
      <trkpt lat="43.45259" lon="5.74393">
        <ele>354.1</ele>
        <time>2011-02-25T09:00:53Z</time>
      </trkpt>
      <trkpt lat="43.45255" lon="5.74375">
        <ele>353.7</ele>
        <time>2011-02-25T09:01:03Z</time>
      </trkpt>
      <trkpt lat="43.45251" lon="5.74353">
        <ele>352.7</ele>
        <time>2011-02-25T09:01:13Z</time>
      </trkpt>
      <trkpt lat="43.45248" lon="5.74334">
        <ele>351.7</ele>
        <time>2011-02-25T09:01:23Z</time>
      </trkpt>
      <trkpt lat="43.45248" lon="5.74332">
        <ele>351.6</ele>
        <time>2011-02-25T09:01:24Z</time>
      </trkpt>
      <trkpt lat="43.45249" lon="5.74298">
        <ele>351.2</ele>
        <time>2011-02-25T09:01:43Z</time>
      </trkpt>
      <trkpt lat="43.45247" lon="5.74275">
        <ele>351</ele>
        <time>2011-02-25T09:01:53Z</time>
      </trkpt>
      <trkpt lat="43.45245" lon="5.7425">
        <ele>350.5</ele>
        <time>2011-02-25T09:02:03Z</time>
      </trkpt>
      <trkpt lat="43.45241" lon="5.74232">
        <ele>350.2</ele>
        <time>2011-02-25T09:02:13Z</time>
      </trkpt>
      <trkpt lat="43.45234" lon="5.74214">
        <ele>349.7</ele>
        <time>2011-02-25T09:02:23Z</time>
      </trkpt>
      <trkpt lat="43.45224" lon="5.7421">
        <ele>349.2</ele>
        <time>2011-02-25T09:02:33Z</time>
      </trkpt>
      <trkpt lat="43.45222" lon="5.74209">
        <ele>349.2</ele>
        <time>2011-02-25T09:02:34Z</time>
      </trkpt>
      <trkpt lat="43.45202" lon="5.74192">
        <ele>349.6</ele>
        <time>2011-02-25T09:02:53Z</time>
      </trkpt>
      <trkpt lat="43.4519" lon="5.74188">
        <ele>350.2</ele>
        <time>2011-02-25T09:03:03Z</time>
      </trkpt>
      <trkpt lat="43.45181" lon="5.74183">
        <ele>351.1</ele>
        <time>2011-02-25T09:03:13Z</time>
      </trkpt>
      <trkpt lat="43.45169" lon="5.74179">
        <ele>351.6</ele>
        <time>2011-02-25T09:03:23Z</time>
      </trkpt>
      <trkpt lat="43.45154" lon="5.7417">
        <ele>352.1</ele>
        <time>2011-02-25T09:03:33Z</time>
      </trkpt>
      <trkpt lat="43.45146" lon="5.74159">
        <ele>352.2</ele>
        <time>2011-02-25T09:03:43Z</time>
      </trkpt>
      <trkpt lat="43.45145" lon="5.74158">
        <ele>352.5</ele>
        <time>2011-02-25T09:03:44Z</time>
      </trkpt>
      <trkpt lat="43.45131" lon="5.74142">
        <ele>353.1</ele>
        <time>2011-02-25T09:04:03Z</time>
      </trkpt>
      <trkpt lat="43.45122" lon="5.74137">
        <ele>353.7</ele>
        <time>2011-02-25T09:04:13Z</time>
      </trkpt>
      <trkpt lat="43.45114" lon="5.7413">
        <ele>354.6</ele>
        <time>2011-02-25T09:04:23Z</time>
      </trkpt>
      <trkpt lat="43.45103" lon="5.74127">
        <ele>355.5</ele>
        <time>2011-02-25T09:04:33Z</time>
      </trkpt>
      <trkpt lat="43.45095" lon="5.74128">
        <ele>356.1</ele>
        <time>2011-02-25T09:04:43Z</time>
      </trkpt>
      <trkpt lat="43.45087" lon="5.74128">
        <ele>356.7</ele>
        <time>2011-02-25T09:04:53Z</time>
      </trkpt>
      <trkpt lat="43.45086" lon="5.74128">
        <ele>356.7</ele>
        <time>2011-02-25T09:04:54Z</time>
      </trkpt>
      <trkpt lat="43.45062" lon="5.74122">
        <ele>357.2</ele>
        <time>2011-02-25T09:05:13Z</time>
      </trkpt>
      <trkpt lat="43.45054" lon="5.74117">
        <ele>357.6</ele>
        <time>2011-02-25T09:05:23Z</time>
      </trkpt>
      <trkpt lat="43.45042" lon="5.74112">
        <ele>358.1</ele>
        <time>2011-02-25T09:05:33Z</time>
      </trkpt>
      <trkpt lat="43.45029" lon="5.74107">
        <ele>358.7</ele>
        <time>2011-02-25T09:05:43Z</time>
      </trkpt>
      <trkpt lat="43.45025" lon="5.74107">
        <ele>358.7</ele>
        <time>2011-02-25T09:05:53Z</time>
      </trkpt>
      <trkpt lat="43.45022" lon="5.74108">
        <ele>358.7</ele>
        <time>2011-02-25T09:06:03Z</time>
      </trkpt>
      <trkpt lat="43.45022" lon="5.74108">
        <ele>358.7</ele>
        <time>2011-02-25T09:06:04Z</time>
      </trkpt>
      <trkpt lat="43.45019" lon="5.74104">
        <ele>359.2</ele>
        <time>2011-02-25T09:06:23Z</time>
      </trkpt>
      <trkpt lat="43.4502" lon="5.74099">
        <ele>359.2</ele>
        <time>2011-02-25T09:06:33Z</time>
      </trkpt>
      <trkpt lat="43.45021" lon="5.74095">
        <ele>360.2</ele>
        <time>2011-02-25T09:06:43Z</time>
      </trkpt>
      <trkpt lat="43.45021" lon="5.74094">
        <ele>360.5</ele>
        <time>2011-02-25T09:06:53Z</time>
      </trkpt>
      <trkpt lat="43.45022" lon="5.74094">
        <ele>360.7</ele>
        <time>2011-02-25T09:07:03Z</time>
      </trkpt>
      <trkpt lat="43.45022" lon="5.74094">
        <ele>360.7</ele>
        <time>2011-02-25T09:07:13Z</time>
      </trkpt>
      <trkpt lat="43.45022" lon="5.74094">
        <ele>360.7</ele>
        <time>2011-02-25T09:07:14Z</time>
      </trkpt>
      <trkpt lat="43.45019" lon="5.74103">
        <ele>362.7</ele>
        <time>2011-02-25T09:07:33Z</time>
      </trkpt>
      <trkpt lat="43.45013" lon="5.74113">
        <ele>363.2</ele>
        <time>2011-02-25T09:07:43Z</time>
      </trkpt>
      <trkpt lat="43.45001" lon="5.74116">
        <ele>363.5</ele>
        <time>2011-02-25T09:07:53Z</time>
      </trkpt>
      <trkpt lat="43.44991" lon="5.74117">
        <ele>363.7</ele>
        <time>2011-02-25T09:08:03Z</time>
      </trkpt>
      <trkpt lat="43.44985" lon="5.74119">
        <ele>364.2</ele>
        <time>2011-02-25T09:08:13Z</time>
      </trkpt>
      <trkpt lat="43.44976" lon="5.74127">
        <ele>364.7</ele>
        <time>2011-02-25T09:08:23Z</time>
      </trkpt>
      <trkpt lat="43.44976" lon="5.74127">
        <ele>365</ele>
        <time>2011-02-25T09:08:24Z</time>
      </trkpt>
      <trkpt lat="43.44965" lon="5.74126">
        <ele>366.1</ele>
        <time>2011-02-25T09:08:43Z</time>
      </trkpt>
      <trkpt lat="43.4496" lon="5.74128">
        <ele>367</ele>
        <time>2011-02-25T09:08:53Z</time>
      </trkpt>
      <trkpt lat="43.44954" lon="5.74133">
        <ele>368.2</ele>
        <time>2011-02-25T09:09:03Z</time>
      </trkpt>
      <trkpt lat="43.44948" lon="5.74139">
        <ele>369.2</ele>
        <time>2011-02-25T09:09:13Z</time>
      </trkpt>
      <trkpt lat="43.44941" lon="5.74143">
        <ele>370</ele>
        <time>2011-02-25T09:09:23Z</time>
      </trkpt>
      <trkpt lat="43.44934" lon="5.74148">
        <ele>370.7</ele>
        <time>2011-02-25T09:09:33Z</time>
      </trkpt>
      <trkpt lat="43.44933" lon="5.74149">
        <ele>371</ele>
        <time>2011-02-25T09:09:34Z</time>
      </trkpt>
      <trkpt lat="43.44918" lon="5.74155">
        <ele>372.7</ele>
        <time>2011-02-25T09:09:53Z</time>
      </trkpt>
      <trkpt lat="43.44913" lon="5.74159">
        <ele>374</ele>
        <time>2011-02-25T09:10:03Z</time>
      </trkpt>
      <trkpt lat="43.44906" lon="5.74164">
        <ele>375.2</ele>
        <time>2011-02-25T09:10:13Z</time>
      </trkpt>
      <trkpt lat="43.44898" lon="5.74166">
        <ele>376.5</ele>
        <time>2011-02-25T09:10:23Z</time>
      </trkpt>
      <trkpt lat="43.44893" lon="5.7417">
        <ele>377.7</ele>
        <time>2011-02-25T09:10:33Z</time>
      </trkpt>
      <trkpt lat="43.44884" lon="5.74177">
        <ele>379.2</ele>
        <time>2011-02-25T09:10:43Z</time>
      </trkpt>
      <trkpt lat="43.44883" lon="5.74177">
        <ele>379.6</ele>
        <time>2011-02-25T09:10:44Z</time>
      </trkpt>
      <trkpt lat="43.44869" lon="5.74184">
        <ele>382.2</ele>
        <time>2011-02-25T09:11:03Z</time>
      </trkpt>
      <trkpt lat="43.44861" lon="5.74194">
        <ele>383.2</ele>
        <time>2011-02-25T09:11:13Z</time>
      </trkpt>
      <trkpt lat="43.44857" lon="5.74202">
        <ele>384.6</ele>
        <time>2011-02-25T09:11:23Z</time>
      </trkpt>
      <trkpt lat="43.44853" lon="5.74213">
        <ele>385.7</ele>
        <time>2011-02-25T09:11:33Z</time>
      </trkpt>
      <trkpt lat="43.44847" lon="5.74225">
        <ele>387.1</ele>
        <time>2011-02-25T09:11:43Z</time>
      </trkpt>
      <trkpt lat="43.44844" lon="5.74234">
        <ele>387.7</ele>
        <time>2011-02-25T09:11:53Z</time>
      </trkpt>
      <trkpt lat="43.44843" lon="5.74236">
        <ele>388</ele>
        <time>2011-02-25T09:11:54Z</time>
      </trkpt>
      <trkpt lat="43.44833" lon="5.74257">
        <ele>389.2</ele>
        <time>2011-02-25T09:12:13Z</time>
      </trkpt>
      <trkpt lat="43.44826" lon="5.74262">
        <ele>389.7</ele>
        <time>2011-02-25T09:12:23Z</time>
      </trkpt>
      <trkpt lat="43.44818" lon="5.7427">
        <ele>390.2</ele>
        <time>2011-02-25T09:12:33Z</time>
      </trkpt>
      <trkpt lat="43.44808" lon="5.74281">
        <ele>390.7</ele>
        <time>2011-02-25T09:12:43Z</time>
      </trkpt>
      <trkpt lat="43.44802" lon="5.74292">
        <ele>391.2</ele>
        <time>2011-02-25T09:12:53Z</time>
      </trkpt>
      <trkpt lat="43.44799" lon="5.74301">
        <ele>391.7</ele>
        <time>2011-02-25T09:13:03Z</time>
      </trkpt>
      <trkpt lat="43.44798" lon="5.74302">
        <ele>392</ele>
        <time>2011-02-25T09:13:04Z</time>
      </trkpt>
      <trkpt lat="43.4479" lon="5.7433">
        <ele>394.1</ele>
        <time>2011-02-25T09:13:23Z</time>
      </trkpt>
      <trkpt lat="43.44786" lon="5.74341">
        <ele>395.2</ele>
        <time>2011-02-25T09:13:33Z</time>
      </trkpt>
      <trkpt lat="43.44781" lon="5.7435">
        <ele>396.6</ele>
        <time>2011-02-25T09:13:43Z</time>
      </trkpt>
      <trkpt lat="43.44776" lon="5.74362">
        <ele>397.6</ele>
        <time>2011-02-25T09:13:53Z</time>
      </trkpt>
      <trkpt lat="43.44774" lon="5.74369">
        <ele>398.7</ele>
        <time>2011-02-25T09:14:03Z</time>
      </trkpt>
      <trkpt lat="43.44772" lon="5.74383">
        <ele>399.6</ele>
        <time>2011-02-25T09:14:13Z</time>
      </trkpt>
      <trkpt lat="43.44771" lon="5.74385">
        <ele>399.7</ele>
        <time>2011-02-25T09:14:14Z</time>
      </trkpt>
      <trkpt lat="43.44763" lon="5.74408">
        <ele>402.2</ele>
        <time>2011-02-25T09:14:33Z</time>
      </trkpt>
      <trkpt lat="43.44763" lon="5.74421">
        <ele>403.2</ele>
        <time>2011-02-25T09:14:43Z</time>
      </trkpt>
      <trkpt lat="43.44756" lon="5.74429">
        <ele>404.1</ele>
        <time>2011-02-25T09:14:53Z</time>
      </trkpt>
      <trkpt lat="43.44751" lon="5.74442">
        <ele>405.1</ele>
        <time>2011-02-25T09:15:03Z</time>
      </trkpt>
      <trkpt lat="43.44749" lon="5.7446">
        <ele>406</ele>
        <time>2011-02-25T09:15:13Z</time>
      </trkpt>
      <trkpt lat="43.44745" lon="5.74475">
        <ele>407</ele>
        <time>2011-02-25T09:15:23Z</time>
      </trkpt>
      <trkpt lat="43.44745" lon="5.74476">
        <ele>407.1</ele>
        <time>2011-02-25T09:15:24Z</time>
      </trkpt>
      <trkpt lat="43.4473" lon="5.74491">
        <ele>409</ele>
        <time>2011-02-25T09:15:43Z</time>
      </trkpt>
      <trkpt lat="43.44721" lon="5.74494">
        <ele>410</ele>
        <time>2011-02-25T09:15:53Z</time>
      </trkpt>
      <trkpt lat="43.44712" lon="5.745">
        <ele>410.7</ele>
        <time>2011-02-25T09:16:03Z</time>
      </trkpt>
      <trkpt lat="43.44704" lon="5.74506">
        <ele>411.7</ele>
        <time>2011-02-25T09:16:13Z</time>
      </trkpt>
      <trkpt lat="43.44698" lon="5.74515">
        <ele>412.7</ele>
        <time>2011-02-25T09:16:23Z</time>
      </trkpt>
      <trkpt lat="43.44689" lon="5.74514">
        <ele>413.5</ele>
        <time>2011-02-25T09:16:33Z</time>
      </trkpt>
      <trkpt lat="43.44689" lon="5.74515">
        <ele>413.6</ele>
        <time>2011-02-25T09:16:34Z</time>
      </trkpt>
      <trkpt lat="43.44678" lon="5.74528">
        <ele>415.7</ele>
        <time>2011-02-25T09:16:53Z</time>
      </trkpt>
      <trkpt lat="43.44671" lon="5.74538">
        <ele>416.7</ele>
        <time>2011-02-25T09:17:03Z</time>
      </trkpt>
      <trkpt lat="43.44664" lon="5.74546">
        <ele>417.7</ele>
        <time>2011-02-25T09:17:13Z</time>
      </trkpt>
      <trkpt lat="43.44655" lon="5.74548">
        <ele>418.7</ele>
        <time>2011-02-25T09:17:23Z</time>
      </trkpt>
      <trkpt lat="43.44647" lon="5.74551">
        <ele>419.7</ele>
        <time>2011-02-25T09:17:33Z</time>
      </trkpt>
      <trkpt lat="43.4464" lon="5.7455">
        <ele>420.2</ele>
        <time>2011-02-25T09:17:43Z</time>
      </trkpt>
      <trkpt lat="43.44639" lon="5.7455">
        <ele>420.5</ele>
        <time>2011-02-25T09:17:44Z</time>
      </trkpt>
      <trkpt lat="43.44628" lon="5.74559">
        <ele>421.7</ele>
        <time>2011-02-25T09:18:03Z</time>
      </trkpt>
      <trkpt lat="43.44621" lon="5.74567">
        <ele>422.7</ele>
        <time>2011-02-25T09:18:13Z</time>
      </trkpt>
      <trkpt lat="43.44614" lon="5.74579">
        <ele>423.2</ele>
        <time>2011-02-25T09:18:23Z</time>
      </trkpt>
      <trkpt lat="43.44609" lon="5.74591">
        <ele>423.6</ele>
        <time>2011-02-25T09:18:33Z</time>
      </trkpt>
      <trkpt lat="43.44604" lon="5.74599">
        <ele>424</ele>
        <time>2011-02-25T09:18:43Z</time>
      </trkpt>
      <trkpt lat="43.44596" lon="5.74606">
        <ele>424.6</ele>
        <time>2011-02-25T09:18:53Z</time>
      </trkpt>
      <trkpt lat="43.44595" lon="5.74607">
        <ele>424.7</ele>
        <time>2011-02-25T09:18:54Z</time>
      </trkpt>
      <trkpt lat="43.4458" lon="5.74618">
        <ele>426</ele>
        <time>2011-02-25T09:19:13Z</time>
      </trkpt>
      <trkpt lat="43.44574" lon="5.74624">
        <ele>426.7</ele>
        <time>2011-02-25T09:19:23Z</time>
      </trkpt>
      <trkpt lat="43.44569" lon="5.74631">
        <ele>427.6</ele>
        <time>2011-02-25T09:19:33Z</time>
      </trkpt>
      <trkpt lat="43.44564" lon="5.74638">
        <ele>428.5</ele>
        <time>2011-02-25T09:19:43Z</time>
      </trkpt>
      <trkpt lat="43.44559" lon="5.74647">
        <ele>429.6</ele>
        <time>2011-02-25T09:19:53Z</time>
      </trkpt>
      <trkpt lat="43.44552" lon="5.74657">
        <ele>431.5</ele>
        <time>2011-02-25T09:20:03Z</time>
      </trkpt>
      <trkpt lat="43.44551" lon="5.74658">
        <ele>431.7</ele>
        <time>2011-02-25T09:20:04Z</time>
      </trkpt>
      <trkpt lat="43.4454" lon="5.74671">
        <ele>436.2</ele>
        <time>2011-02-25T09:20:23Z</time>
      </trkpt>
      <trkpt lat="43.44535" lon="5.74676">
        <ele>437.7</ele>
        <time>2011-02-25T09:20:33Z</time>
      </trkpt>
      <trkpt lat="43.44526" lon="5.74686">
        <ele>439.5</ele>
        <time>2011-02-25T09:20:43Z</time>
      </trkpt>
      <trkpt lat="43.44518" lon="5.74695">
        <ele>441.2</ele>
        <time>2011-02-25T09:20:53Z</time>
      </trkpt>
      <trkpt lat="43.4451" lon="5.74707">
        <ele>442.7</ele>
        <time>2011-02-25T09:21:03Z</time>
      </trkpt>
      <trkpt lat="43.44502" lon="5.74718">
        <ele>443.2</ele>
        <time>2011-02-25T09:21:13Z</time>
      </trkpt>
      <trkpt lat="43.44501" lon="5.74718">
        <ele>443.2</ele>
        <time>2011-02-25T09:21:14Z</time>
      </trkpt>
      <trkpt lat="43.44491" lon="5.74734">
        <ele>445</ele>
        <time>2011-02-25T09:21:33Z</time>
      </trkpt>
      <trkpt lat="43.44486" lon="5.74739">
        <ele>446</ele>
        <time>2011-02-25T09:21:43Z</time>
      </trkpt>
      <trkpt lat="43.44482" lon="5.74743">
        <ele>446.7</ele>
        <time>2011-02-25T09:21:53Z</time>
      </trkpt>
      <trkpt lat="43.4448" lon="5.74749">
        <ele>447</ele>
        <time>2011-02-25T09:22:03Z</time>
      </trkpt>
      <trkpt lat="43.4448" lon="5.7475">
        <ele>447.1</ele>
        <time>2011-02-25T09:22:13Z</time>
      </trkpt>
      <trkpt lat="43.4448" lon="5.74751">
        <ele>447.2</ele>
        <time>2011-02-25T09:22:23Z</time>
      </trkpt>
      <trkpt lat="43.4448" lon="5.74751">
        <ele>447.2</ele>
        <time>2011-02-25T09:22:24Z</time>
      </trkpt>
      <trkpt lat="43.44476" lon="5.74753">
        <ele>447.5</ele>
        <time>2011-02-25T09:22:43Z</time>
      </trkpt>
      <trkpt lat="43.44476" lon="5.74753">
        <ele>447.6</ele>
        <time>2011-02-25T09:22:53Z</time>
      </trkpt>
      <trkpt lat="43.44476" lon="5.74753">
        <ele>447.6</ele>
        <time>2011-02-25T09:23:03Z</time>
      </trkpt>
      <trkpt lat="43.44476" lon="5.74753">
        <ele>447.7</ele>
        <time>2011-02-25T09:23:13Z</time>
      </trkpt>
      <trkpt lat="43.44476" lon="5.74753">
        <ele>447.7</ele>
        <time>2011-02-25T09:23:23Z</time>
      </trkpt>
      <trkpt lat="43.44477" lon="5.74754">
        <ele>447.7</ele>
        <time>2011-02-25T09:23:33Z</time>
      </trkpt>
      <trkpt lat="43.44477" lon="5.74754">
        <ele>447.7</ele>
        <time>2011-02-25T09:23:34Z</time>
      </trkpt>
      <trkpt lat="43.44479" lon="5.74755">
        <ele>448</ele>
        <time>2011-02-25T09:23:53Z</time>
      </trkpt>
      <trkpt lat="43.44479" lon="5.74755">
        <ele>448.1</ele>
        <time>2011-02-25T09:24:03Z</time>
      </trkpt>
      <trkpt lat="43.44478" lon="5.74755">
        <ele>448.1</ele>
        <time>2011-02-25T09:24:13Z</time>
      </trkpt>
      <trkpt lat="43.44476" lon="5.74755">
        <ele>448.2</ele>
        <time>2011-02-25T09:24:23Z</time>
      </trkpt>
      <trkpt lat="43.44475" lon="5.74758">
        <ele>448.2</ele>
        <time>2011-02-25T09:24:33Z</time>
      </trkpt>
      <trkpt lat="43.4447" lon="5.74765">
        <ele>448.5</ele>
        <time>2011-02-25T09:24:43Z</time>
      </trkpt>
      <trkpt lat="43.4447" lon="5.74766">
        <ele>448.5</ele>
        <time>2011-02-25T09:24:44Z</time>
      </trkpt>
      <trkpt lat="43.44468" lon="5.74765">
        <ele>449</ele>
        <time>2011-02-25T09:25:03Z</time>
      </trkpt>
      <trkpt lat="43.44472" lon="5.74756">
        <ele>449.6</ele>
        <time>2011-02-25T09:25:13Z</time>
      </trkpt>
      <trkpt lat="43.44475" lon="5.74753">
        <ele>449.7</ele>
        <time>2011-02-25T09:25:23Z</time>
      </trkpt>
      <trkpt lat="43.44474" lon="5.74752">
        <ele>450.2</ele>
        <time>2011-02-25T09:25:33Z</time>
      </trkpt>
      <trkpt lat="43.44465" lon="5.74763">
        <ele>450.2</ele>
        <time>2011-02-25T09:25:43Z</time>
      </trkpt>
      <trkpt lat="43.44463" lon="5.74779">
        <ele>450.5</ele>
        <time>2011-02-25T09:25:53Z</time>
      </trkpt>
      <trkpt lat="43.44463" lon="5.7478">
        <ele>450.5</ele>
        <time>2011-02-25T09:25:54Z</time>
      </trkpt>
      <trkpt lat="43.44463" lon="5.74794">
        <ele>450.7</ele>
        <time>2011-02-25T09:26:13Z</time>
      </trkpt>
      <trkpt lat="43.4446" lon="5.74802">
        <ele>450.7</ele>
        <time>2011-02-25T09:26:23Z</time>
      </trkpt>
      <trkpt lat="43.44459" lon="5.74814">
        <ele>450.7</ele>
        <time>2011-02-25T09:26:33Z</time>
      </trkpt>
      <trkpt lat="43.44458" lon="5.74823">
        <ele>450.7</ele>
        <time>2011-02-25T09:26:43Z</time>
      </trkpt>
      <trkpt lat="43.44456" lon="5.74836">
        <ele>451.1</ele>
        <time>2011-02-25T09:26:53Z</time>
      </trkpt>
      <trkpt lat="43.44455" lon="5.74847">
        <ele>451.2</ele>
        <time>2011-02-25T09:27:03Z</time>
      </trkpt>
      <trkpt lat="43.44455" lon="5.74848">
        <ele>451.5</ele>
        <time>2011-02-25T09:27:04Z</time>
      </trkpt>
      <trkpt lat="43.44453" lon="5.74865">
        <ele>452.7</ele>
        <time>2011-02-25T09:27:23Z</time>
      </trkpt>
      <trkpt lat="43.44448" lon="5.74881">
        <ele>454.2</ele>
        <time>2011-02-25T09:27:33Z</time>
      </trkpt>
      <trkpt lat="43.44443" lon="5.74893">
        <ele>456.2</ele>
        <time>2011-02-25T09:27:43Z</time>
      </trkpt>
      <trkpt lat="43.44436" lon="5.74904">
        <ele>458.1</ele>
        <time>2011-02-25T09:27:53Z</time>
      </trkpt>
      <trkpt lat="43.4443" lon="5.74912">
        <ele>459.7</ele>
        <time>2011-02-25T09:28:03Z</time>
      </trkpt>
      <trkpt lat="43.44425" lon="5.74921">
        <ele>461.7</ele>
        <time>2011-02-25T09:28:13Z</time>
      </trkpt>
      <trkpt lat="43.44424" lon="5.74922">
        <ele>461.7</ele>
        <time>2011-02-25T09:28:14Z</time>
      </trkpt>
      <trkpt lat="43.4442" lon="5.74949">
        <ele>465.2</ele>
        <time>2011-02-25T09:28:33Z</time>
      </trkpt>
      <trkpt lat="43.4442" lon="5.7496">
        <ele>466.6</ele>
        <time>2011-02-25T09:28:43Z</time>
      </trkpt>
      <trkpt lat="43.44419" lon="5.74972">
        <ele>467.7</ele>
        <time>2011-02-25T09:28:53Z</time>
      </trkpt>
      <trkpt lat="43.44419" lon="5.74986">
        <ele>468.7</ele>
        <time>2011-02-25T09:29:03Z</time>
      </trkpt>
      <trkpt lat="43.44418" lon="5.75001">
        <ele>469.7</ele>
        <time>2011-02-25T09:29:13Z</time>
      </trkpt>
      <trkpt lat="43.44416" lon="5.75015">
        <ele>470.7</ele>
        <time>2011-02-25T09:29:23Z</time>
      </trkpt>
      <trkpt lat="43.44416" lon="5.75017">
        <ele>471</ele>
        <time>2011-02-25T09:29:24Z</time>
      </trkpt>
      <trkpt lat="43.44413" lon="5.75039">
        <ele>473.2</ele>
        <time>2011-02-25T09:29:43Z</time>
      </trkpt>
      <trkpt lat="43.44411" lon="5.7505">
        <ele>474.6</ele>
        <time>2011-02-25T09:29:53Z</time>
      </trkpt>
      <trkpt lat="43.44409" lon="5.7506">
        <ele>476.2</ele>
        <time>2011-02-25T09:30:03Z</time>
      </trkpt>
      <trkpt lat="43.44409" lon="5.75069">
        <ele>477.7</ele>
        <time>2011-02-25T09:30:13Z</time>
      </trkpt>
      <trkpt lat="43.44409" lon="5.7508">
        <ele>479.5</ele>
        <time>2011-02-25T09:30:23Z</time>
      </trkpt>
      <trkpt lat="43.44411" lon="5.7509">
        <ele>481.2</ele>
        <time>2011-02-25T09:30:33Z</time>
      </trkpt>
      <trkpt lat="43.44411" lon="5.75091">
        <ele>481.2</ele>
        <time>2011-02-25T09:30:34Z</time>
      </trkpt>
      <trkpt lat="43.44416" lon="5.75111">
        <ele>484.5</ele>
        <time>2011-02-25T09:30:53Z</time>
      </trkpt>
      <trkpt lat="43.44419" lon="5.75122">
        <ele>486</ele>
        <time>2011-02-25T09:31:03Z</time>
      </trkpt>
      <trkpt lat="43.44421" lon="5.75135">
        <ele>487.2</ele>
        <time>2011-02-25T09:31:13Z</time>
      </trkpt>
      <trkpt lat="43.44419" lon="5.75144">
        <ele>488.2</ele>
        <time>2011-02-25T09:31:23Z</time>
      </trkpt>
      <trkpt lat="43.44417" lon="5.75154">
        <ele>489.2</ele>
        <time>2011-02-25T09:31:33Z</time>
      </trkpt>
      <trkpt lat="43.44415" lon="5.75164">
        <ele>490.5</ele>
        <time>2011-02-25T09:31:43Z</time>
      </trkpt>
      <trkpt lat="43.44415" lon="5.75165">
        <ele>490.6</ele>
        <time>2011-02-25T09:31:44Z</time>
      </trkpt>
      <trkpt lat="43.44406" lon="5.7518">
        <ele>494.6</ele>
        <time>2011-02-25T09:32:03Z</time>
      </trkpt>
      <trkpt lat="43.44399" lon="5.75188">
        <ele>496.2</ele>
        <time>2011-02-25T09:32:13Z</time>
      </trkpt>
      <trkpt lat="43.44391" lon="5.75193">
        <ele>497.7</ele>
        <time>2011-02-25T09:32:23Z</time>
      </trkpt>
      <trkpt lat="43.44383" lon="5.75195">
        <ele>498.5</ele>
        <time>2011-02-25T09:32:33Z</time>
      </trkpt>
      <trkpt lat="43.44375" lon="5.75196">
        <ele>498.7</ele>
        <time>2011-02-25T09:32:43Z</time>
      </trkpt>
      <trkpt lat="43.44371" lon="5.75195">
        <ele>498.6</ele>
        <time>2011-02-25T09:32:53Z</time>
      </trkpt>
      <trkpt lat="43.4437" lon="5.75195">
        <ele>498.6</ele>
        <time>2011-02-25T09:32:54Z</time>
      </trkpt>
      <trkpt lat="43.4436" lon="5.75196">
        <ele>498.6</ele>
        <time>2011-02-25T09:33:13Z</time>
      </trkpt>
      <trkpt lat="43.44352" lon="5.75205">
        <ele>499.2</ele>
        <time>2011-02-25T09:33:23Z</time>
      </trkpt>
      <trkpt lat="43.44341" lon="5.75221">
        <ele>500.7</ele>
        <time>2011-02-25T09:33:33Z</time>
      </trkpt>
      <trkpt lat="43.44332" lon="5.75235">
        <ele>502.5</ele>
        <time>2011-02-25T09:33:43Z</time>
      </trkpt>
      <trkpt lat="43.44327" lon="5.75244">
        <ele>504.1</ele>
        <time>2011-02-25T09:33:53Z</time>
      </trkpt>
      <trkpt lat="43.44322" lon="5.75251">
        <ele>506.1</ele>
        <time>2011-02-25T09:34:03Z</time>
      </trkpt>
      <trkpt lat="43.44322" lon="5.75252">
        <ele>506.2</ele>
        <time>2011-02-25T09:34:04Z</time>
      </trkpt>
      <trkpt lat="43.44311" lon="5.75265">
        <ele>510.6</ele>
        <time>2011-02-25T09:34:23Z</time>
      </trkpt>
      <trkpt lat="43.44305" lon="5.75275">
        <ele>512.7</ele>
        <time>2011-02-25T09:34:33Z</time>
      </trkpt>
      <trkpt lat="43.44298" lon="5.75285">
        <ele>514.9</ele>
        <time>2011-02-25T09:34:43Z</time>
      </trkpt>
      <trkpt lat="43.44292" lon="5.75294">
        <ele>517</ele>
        <time>2011-02-25T09:34:53Z</time>
      </trkpt>
      <trkpt lat="43.44289" lon="5.75303">
        <ele>519.5</ele>
        <time>2011-02-25T09:35:03Z</time>
      </trkpt>
      <trkpt lat="43.44291" lon="5.75312">
        <ele>522</ele>
        <time>2011-02-25T09:35:13Z</time>
      </trkpt>
      <trkpt lat="43.44292" lon="5.75313">
        <ele>522.4</ele>
        <time>2011-02-25T09:35:14Z</time>
      </trkpt>
      <trkpt lat="43.443" lon="5.75325">
        <ele>526.9</ele>
        <time>2011-02-25T09:35:33Z</time>
      </trkpt>
      <trkpt lat="43.44309" lon="5.75322">
        <ele>528.9</ele>
        <time>2011-02-25T09:35:43Z</time>
      </trkpt>
      <trkpt lat="43.44318" lon="5.75318">
        <ele>530.9</ele>
        <time>2011-02-25T09:35:53Z</time>
      </trkpt>
      <trkpt lat="43.44326" lon="5.75317">
        <ele>532.9</ele>
        <time>2011-02-25T09:36:03Z</time>
      </trkpt>
      <trkpt lat="43.44334" lon="5.75318">
        <ele>534.9</ele>
        <time>2011-02-25T09:36:13Z</time>
      </trkpt>
      <trkpt lat="43.44342" lon="5.75321">
        <ele>536.7</ele>
        <time>2011-02-25T09:36:23Z</time>
      </trkpt>
      <trkpt lat="43.44342" lon="5.75321">
        <ele>536.7</ele>
        <time>2011-02-25T09:36:24Z</time>
      </trkpt>
      <trkpt lat="43.44357" lon="5.75319">
        <ele>539.9</ele>
        <time>2011-02-25T09:36:43Z</time>
      </trkpt>
      <trkpt lat="43.44362" lon="5.75321">
        <ele>541.2</ele>
        <time>2011-02-25T09:36:53Z</time>
      </trkpt>
      <trkpt lat="43.44366" lon="5.75324">
        <ele>541.7</ele>
        <time>2011-02-25T09:37:03Z</time>
      </trkpt>
      <trkpt lat="43.44367" lon="5.75325">
        <ele>542.4</ele>
        <time>2011-02-25T09:37:13Z</time>
      </trkpt>
      <trkpt lat="43.44369" lon="5.75328">
        <ele>544.4</ele>
        <time>2011-02-25T09:37:23Z</time>
      </trkpt>
      <trkpt lat="43.44373" lon="5.75331">
        <ele>546.4</ele>
        <time>2011-02-25T09:37:33Z</time>
      </trkpt>
      <trkpt lat="43.44374" lon="5.75331">
        <ele>546.4</ele>
        <time>2011-02-25T09:37:34Z</time>
      </trkpt>
      <trkpt lat="43.44377" lon="5.75331">
        <ele>546.9</ele>
        <time>2011-02-25T09:37:53Z</time>
      </trkpt>
      <trkpt lat="43.44379" lon="5.75335">
        <ele>548.5</ele>
        <time>2011-02-25T09:38:03Z</time>
      </trkpt>
      <trkpt lat="43.44384" lon="5.75346">
        <ele>550.9</ele>
        <time>2011-02-25T09:38:13Z</time>
      </trkpt>
      <trkpt lat="43.44388" lon="5.75353">
        <ele>552.9</ele>
        <time>2011-02-25T09:38:23Z</time>
      </trkpt>
      <trkpt lat="43.44393" lon="5.75362">
        <ele>554.5</ele>
        <time>2011-02-25T09:38:33Z</time>
      </trkpt>
      <trkpt lat="43.44396" lon="5.75374">
        <ele>556</ele>
        <time>2011-02-25T09:38:43Z</time>
      </trkpt>
      <trkpt lat="43.44396" lon="5.75376">
        <ele>556.2</ele>
        <time>2011-02-25T09:38:44Z</time>
      </trkpt>
      <trkpt lat="43.44407" lon="5.75394">
        <ele>559</ele>
        <time>2011-02-25T09:39:03Z</time>
      </trkpt>
      <trkpt lat="43.44418" lon="5.75393">
        <ele>560.7</ele>
        <time>2011-02-25T09:39:13Z</time>
      </trkpt>
      <trkpt lat="43.44427" lon="5.75395">
        <ele>562.5</ele>
        <time>2011-02-25T09:39:23Z</time>
      </trkpt>
      <trkpt lat="43.44436" lon="5.75397">
        <ele>564.2</ele>
        <time>2011-02-25T09:39:33Z</time>
      </trkpt>
      <trkpt lat="43.44443" lon="5.754">
        <ele>565.7</ele>
        <time>2011-02-25T09:39:43Z</time>
      </trkpt>
      <trkpt lat="43.44449" lon="5.75402">
        <ele>567</ele>
        <time>2011-02-25T09:39:53Z</time>
      </trkpt>
      <trkpt lat="43.4445" lon="5.75402">
        <ele>567.2</ele>
        <time>2011-02-25T09:39:54Z</time>
      </trkpt>
      <trkpt lat="43.44465" lon="5.75406">
        <ele>569.5</ele>
        <time>2011-02-25T09:40:13Z</time>
      </trkpt>
      <trkpt lat="43.44472" lon="5.7541">
        <ele>570.7</ele>
        <time>2011-02-25T09:40:23Z</time>
      </trkpt>
      <trkpt lat="43.4448" lon="5.75417">
        <ele>571.9</ele>
        <time>2011-02-25T09:40:33Z</time>
      </trkpt>
      <trkpt lat="43.44485" lon="5.75425">
        <ele>572.7</ele>
        <time>2011-02-25T09:40:43Z</time>
      </trkpt>
      <trkpt lat="43.4449" lon="5.75437">
        <ele>573.2</ele>
        <time>2011-02-25T09:40:53Z</time>
      </trkpt>
      <trkpt lat="43.44495" lon="5.75448">
        <ele>574</ele>
        <time>2011-02-25T09:41:03Z</time>
      </trkpt>
      <trkpt lat="43.44495" lon="5.7545">
        <ele>574.2</ele>
        <time>2011-02-25T09:41:04Z</time>
      </trkpt>
      <trkpt lat="43.44502" lon="5.75456">
        <ele>575.2</ele>
        <time>2011-02-25T09:41:23Z</time>
      </trkpt>
      <trkpt lat="43.44506" lon="5.75456">
        <ele>575.7</ele>
        <time>2011-02-25T09:41:33Z</time>
      </trkpt>
      <trkpt lat="43.44507" lon="5.75455">
        <ele>576</ele>
        <time>2011-02-25T09:41:43Z</time>
      </trkpt>
      <trkpt lat="43.44507" lon="5.75456">
        <ele>576</ele>
        <time>2011-02-25T09:41:53Z</time>
      </trkpt>
      <trkpt lat="43.44506" lon="5.75455">
        <ele>576.2</ele>
        <time>2011-02-25T09:42:03Z</time>
      </trkpt>
      <trkpt lat="43.44506" lon="5.75455">
        <ele>576.5</ele>
        <time>2011-02-25T09:42:13Z</time>
      </trkpt>
      <trkpt lat="43.44506" lon="5.75455">
        <ele>576.5</ele>
        <time>2011-02-25T09:42:14Z</time>
      </trkpt>
      <trkpt lat="43.44507" lon="5.75452">
        <ele>576.9</ele>
        <time>2011-02-25T09:42:33Z</time>
      </trkpt>
      <trkpt lat="43.44505" lon="5.75452">
        <ele>577</ele>
        <time>2011-02-25T09:42:43Z</time>
      </trkpt>
      <trkpt lat="43.44504" lon="5.75452">
        <ele>577.2</ele>
        <time>2011-02-25T09:42:53Z</time>
      </trkpt>
      <trkpt lat="43.44504" lon="5.75453">
        <ele>577.4</ele>
        <time>2011-02-25T09:43:03Z</time>
      </trkpt>
      <trkpt lat="43.44503" lon="5.75455">
        <ele>577.5</ele>
        <time>2011-02-25T09:43:13Z</time>
      </trkpt>
      <trkpt lat="43.44504" lon="5.75457">
        <ele>577.7</ele>
        <time>2011-02-25T09:43:23Z</time>
      </trkpt>
      <trkpt lat="43.44504" lon="5.75457">
        <ele>577.7</ele>
        <time>2011-02-25T09:43:24Z</time>
      </trkpt>
      <trkpt lat="43.44503" lon="5.75457">
        <ele>577.7</ele>
        <time>2011-02-25T09:43:43Z</time>
      </trkpt>
      <trkpt lat="43.44504" lon="5.75459">
        <ele>577.9</ele>
        <time>2011-02-25T09:43:53Z</time>
      </trkpt>
      <trkpt lat="43.44506" lon="5.75461">
        <ele>578</ele>
        <time>2011-02-25T09:44:03Z</time>
      </trkpt>
      <trkpt lat="43.44507" lon="5.7546">
        <ele>578</ele>
        <time>2011-02-25T09:44:13Z</time>
      </trkpt>
      <trkpt lat="43.44508" lon="5.7546">
        <ele>578.2</ele>
        <time>2011-02-25T09:44:23Z</time>
      </trkpt>
      <trkpt lat="43.44509" lon="5.75452">
        <ele>578.4</ele>
        <time>2011-02-25T09:44:33Z</time>
      </trkpt>
      <trkpt lat="43.4451" lon="5.75451">
        <ele>578.5</ele>
        <time>2011-02-25T09:44:34Z</time>
      </trkpt>
      <trkpt lat="43.44512" lon="5.75449">
        <ele>579</ele>
        <time>2011-02-25T09:44:53Z</time>
      </trkpt>
      <trkpt lat="43.4451" lon="5.75452">
        <ele>579.2</ele>
        <time>2011-02-25T09:45:03Z</time>
      </trkpt>
      <trkpt lat="43.44507" lon="5.75456">
        <ele>579.4</ele>
        <time>2011-02-25T09:45:13Z</time>
      </trkpt>
      <trkpt lat="43.44504" lon="5.75458">
        <ele>579.5</ele>
        <time>2011-02-25T09:45:23Z</time>
      </trkpt>
      <trkpt lat="43.44506" lon="5.75465">
        <ele>581</ele>
        <time>2011-02-25T09:45:33Z</time>
      </trkpt>
      <trkpt lat="43.44511" lon="5.75477">
        <ele>582.4</ele>
        <time>2011-02-25T09:45:43Z</time>
      </trkpt>
      <trkpt lat="43.44512" lon="5.75478">
        <ele>582.5</ele>
        <time>2011-02-25T09:45:44Z</time>
      </trkpt>
      <trkpt lat="43.44527" lon="5.75494">
        <ele>584.5</ele>
        <time>2011-02-25T09:46:03Z</time>
      </trkpt>
      <trkpt lat="43.44535" lon="5.75503">
        <ele>585.4</ele>
        <time>2011-02-25T09:46:13Z</time>
      </trkpt>
      <trkpt lat="43.44543" lon="5.75511">
        <ele>586.2</ele>
        <time>2011-02-25T09:46:23Z</time>
      </trkpt>
      <trkpt lat="43.4455" lon="5.75517">
        <ele>587</ele>
        <time>2011-02-25T09:46:33Z</time>
      </trkpt>
      <trkpt lat="43.44557" lon="5.7552">
        <ele>587.7</ele>
        <time>2011-02-25T09:46:43Z</time>
      </trkpt>
      <trkpt lat="43.44564" lon="5.75526">
        <ele>588.5</ele>
        <time>2011-02-25T09:46:53Z</time>
      </trkpt>
      <trkpt lat="43.44565" lon="5.75526">
        <ele>588.5</ele>
        <time>2011-02-25T09:46:54Z</time>
      </trkpt>
      <trkpt lat="43.44581" lon="5.75518">
        <ele>589.9</ele>
        <time>2011-02-25T09:47:13Z</time>
      </trkpt>
      <trkpt lat="43.44591" lon="5.75521">
        <ele>590.5</ele>
        <time>2011-02-25T09:47:23Z</time>
      </trkpt>
      <trkpt lat="43.44598" lon="5.75528">
        <ele>591.2</ele>
        <time>2011-02-25T09:47:33Z</time>
      </trkpt>
      <trkpt lat="43.44606" lon="5.7553">
        <ele>592</ele>
        <time>2011-02-25T09:47:43Z</time>
      </trkpt>
      <trkpt lat="43.4461" lon="5.75529">
        <ele>592.5</ele>
        <time>2011-02-25T09:47:53Z</time>
      </trkpt>
      <trkpt lat="43.44618" lon="5.75528">
        <ele>593.7</ele>
        <time>2011-02-25T09:48:03Z</time>
      </trkpt>
      <trkpt lat="43.44619" lon="5.75527">
        <ele>593.7</ele>
        <time>2011-02-25T09:48:04Z</time>
      </trkpt>
      <trkpt lat="43.44639" lon="5.75526">
        <ele>596.4</ele>
        <time>2011-02-25T09:48:23Z</time>
      </trkpt>
      <trkpt lat="43.44648" lon="5.75526">
        <ele>597.7</ele>
        <time>2011-02-25T09:48:33Z</time>
      </trkpt>
      <trkpt lat="43.44657" lon="5.75527">
        <ele>598.7</ele>
        <time>2011-02-25T09:48:43Z</time>
      </trkpt>
      <trkpt lat="43.44667" lon="5.75525">
        <ele>600</ele>
        <time>2011-02-25T09:48:53Z</time>
      </trkpt>
      <trkpt lat="43.44673" lon="5.75525">
        <ele>601.2</ele>
        <time>2011-02-25T09:49:03Z</time>
      </trkpt>
      <trkpt lat="43.44681" lon="5.75522">
        <ele>602.2</ele>
        <time>2011-02-25T09:49:13Z</time>
      </trkpt>
      <trkpt lat="43.44682" lon="5.75522">
        <ele>602.4</ele>
        <time>2011-02-25T09:49:14Z</time>
      </trkpt>
      <trkpt lat="43.44698" lon="5.75519">
        <ele>604.7</ele>
        <time>2011-02-25T09:49:33Z</time>
      </trkpt>
      <trkpt lat="43.44706" lon="5.75519">
        <ele>606</ele>
        <time>2011-02-25T09:49:43Z</time>
      </trkpt>
      <trkpt lat="43.44714" lon="5.75522">
        <ele>607</ele>
        <time>2011-02-25T09:49:53Z</time>
      </trkpt>
      <trkpt lat="43.44721" lon="5.75529">
        <ele>608</ele>
        <time>2011-02-25T09:50:03Z</time>
      </trkpt>
      <trkpt lat="43.44728" lon="5.75535">
        <ele>608.9</ele>
        <time>2011-02-25T09:50:13Z</time>
      </trkpt>
      <trkpt lat="43.4473" lon="5.75545">
        <ele>609.4</ele>
        <time>2011-02-25T09:50:23Z</time>
      </trkpt>
      <trkpt lat="43.4473" lon="5.75546">
        <ele>609.5</ele>
        <time>2011-02-25T09:50:24Z</time>
      </trkpt>
      <trkpt lat="43.4473" lon="5.75564">
        <ele>611.4</ele>
        <time>2011-02-25T09:50:43Z</time>
      </trkpt>
      <trkpt lat="43.44728" lon="5.75573">
        <ele>612.2</ele>
        <time>2011-02-25T09:50:53Z</time>
      </trkpt>
      <trkpt lat="43.44728" lon="5.75579">
        <ele>613</ele>
        <time>2011-02-25T09:51:03Z</time>
      </trkpt>
      <trkpt lat="43.44728" lon="5.75585">
        <ele>613.7</ele>
        <time>2011-02-25T09:51:13Z</time>
      </trkpt>
      <trkpt lat="43.44722" lon="5.75593">
        <ele>614.7</ele>
        <time>2011-02-25T09:51:23Z</time>
      </trkpt>
      <trkpt lat="43.44714" lon="5.75596">
        <ele>615.5</ele>
        <time>2011-02-25T09:51:33Z</time>
      </trkpt>
      <trkpt lat="43.44713" lon="5.75596">
        <ele>615.7</ele>
        <time>2011-02-25T09:51:34Z</time>
      </trkpt>
      <trkpt lat="43.44698" lon="5.75606">
        <ele>618.5</ele>
        <time>2011-02-25T09:51:53Z</time>
      </trkpt>
      <trkpt lat="43.44688" lon="5.75612">
        <ele>620.2</ele>
        <time>2011-02-25T09:52:03Z</time>
      </trkpt>
      <trkpt lat="43.4468" lon="5.75617">
        <ele>621.5</ele>
        <time>2011-02-25T09:52:13Z</time>
      </trkpt>
      <trkpt lat="43.4467" lon="5.75622">
        <ele>622.5</ele>
        <time>2011-02-25T09:52:23Z</time>
      </trkpt>
      <trkpt lat="43.44659" lon="5.75628">
        <ele>623.5</ele>
        <time>2011-02-25T09:52:33Z</time>
      </trkpt>
      <trkpt lat="43.4465" lon="5.75634">
        <ele>624.2</ele>
        <time>2011-02-25T09:52:43Z</time>
      </trkpt>
      <trkpt lat="43.44649" lon="5.75634">
        <ele>624.2</ele>
        <time>2011-02-25T09:52:44Z</time>
      </trkpt>
      <trkpt lat="43.44627" lon="5.75635">
        <ele>625.5</ele>
        <time>2011-02-25T09:53:03Z</time>
      </trkpt>
      <trkpt lat="43.44617" lon="5.75644">
        <ele>626</ele>
        <time>2011-02-25T09:53:13Z</time>
      </trkpt>
      <trkpt lat="43.44611" lon="5.75659">
        <ele>626.7</ele>
        <time>2011-02-25T09:53:23Z</time>
      </trkpt>
      <trkpt lat="43.44606" lon="5.75673">
        <ele>627.2</ele>
        <time>2011-02-25T09:53:33Z</time>
      </trkpt>
      <trkpt lat="43.44595" lon="5.75678">
        <ele>627.7</ele>
        <time>2011-02-25T09:53:43Z</time>
      </trkpt>
      <trkpt lat="43.44583" lon="5.75677">
        <ele>628.2</ele>
        <time>2011-02-25T09:53:53Z</time>
      </trkpt>
      <trkpt lat="43.44582" lon="5.75676">
        <ele>628.2</ele>
        <time>2011-02-25T09:53:54Z</time>
      </trkpt>
      <trkpt lat="43.44561" lon="5.7567">
        <ele>629.2</ele>
        <time>2011-02-25T09:54:13Z</time>
      </trkpt>
      <trkpt lat="43.44552" lon="5.7567">
        <ele>629.5</ele>
        <time>2011-02-25T09:54:23Z</time>
      </trkpt>
      <trkpt lat="43.44543" lon="5.75674">
        <ele>629.7</ele>
        <time>2011-02-25T09:54:33Z</time>
      </trkpt>
      <trkpt lat="43.44533" lon="5.75678">
        <ele>630.2</ele>
        <time>2011-02-25T09:54:43Z</time>
      </trkpt>
      <trkpt lat="43.44523" lon="5.75681">
        <ele>630.9</ele>
        <time>2011-02-25T09:54:53Z</time>
      </trkpt>
      <trkpt lat="43.44513" lon="5.75677">
        <ele>631.9</ele>
        <time>2011-02-25T09:55:03Z</time>
      </trkpt>
      <trkpt lat="43.44512" lon="5.75677">
        <ele>632</ele>
        <time>2011-02-25T09:55:04Z</time>
      </trkpt>
      <trkpt lat="43.44494" lon="5.75673">
        <ele>633.7</ele>
        <time>2011-02-25T09:55:23Z</time>
      </trkpt>
      <trkpt lat="43.44486" lon="5.75672">
        <ele>634.7</ele>
        <time>2011-02-25T09:55:33Z</time>
      </trkpt>
      <trkpt lat="43.44476" lon="5.75675">
        <ele>635.5</ele>
        <time>2011-02-25T09:55:43Z</time>
      </trkpt>
      <trkpt lat="43.44466" lon="5.75678">
        <ele>636.5</ele>
        <time>2011-02-25T09:55:53Z</time>
      </trkpt>
      <trkpt lat="43.44456" lon="5.75682">
        <ele>637.5</ele>
        <time>2011-02-25T09:56:03Z</time>
      </trkpt>
      <trkpt lat="43.44444" lon="5.75678">
        <ele>638.4</ele>
        <time>2011-02-25T09:56:13Z</time>
      </trkpt>
      <trkpt lat="43.44443" lon="5.75677">
        <ele>638.5</ele>
        <time>2011-02-25T09:56:14Z</time>
      </trkpt>
      <trkpt lat="43.44424" lon="5.75668">
        <ele>640.5</ele>
        <time>2011-02-25T09:56:33Z</time>
      </trkpt>
      <trkpt lat="43.44418" lon="5.75662">
        <ele>641.5</ele>
        <time>2011-02-25T09:56:43Z</time>
      </trkpt>
      <trkpt lat="43.44411" lon="5.75657">
        <ele>642.5</ele>
        <time>2011-02-25T09:56:53Z</time>
      </trkpt>
      <trkpt lat="43.44401" lon="5.75652">
        <ele>643.7</ele>
        <time>2011-02-25T09:57:03Z</time>
      </trkpt>
      <trkpt lat="43.4439" lon="5.75648">
        <ele>645.2</ele>
        <time>2011-02-25T09:57:13Z</time>
      </trkpt>
      <trkpt lat="43.44382" lon="5.75649">
        <ele>646.7</ele>
        <time>2011-02-25T09:57:23Z</time>
      </trkpt>
      <trkpt lat="43.44381" lon="5.7565">
        <ele>646.9</ele>
        <time>2011-02-25T09:57:24Z</time>
      </trkpt>
      <trkpt lat="43.44366" lon="5.75665">
        <ele>649.7</ele>
        <time>2011-02-25T09:57:43Z</time>
      </trkpt>
      <trkpt lat="43.4436" lon="5.75674">
        <ele>651.2</ele>
        <time>2011-02-25T09:57:53Z</time>
      </trkpt>
      <trkpt lat="43.44354" lon="5.75685">
        <ele>652.7</ele>
        <time>2011-02-25T09:58:03Z</time>
      </trkpt>
      <trkpt lat="43.44346" lon="5.75694">
        <ele>654.2</ele>
        <time>2011-02-25T09:58:13Z</time>
      </trkpt>
      <trkpt lat="43.44338" lon="5.75699">
        <ele>655.5</ele>
        <time>2011-02-25T09:58:23Z</time>
      </trkpt>
      <trkpt lat="43.44329" lon="5.75696">
        <ele>656.7</ele>
        <time>2011-02-25T09:58:33Z</time>
      </trkpt>
      <trkpt lat="43.44328" lon="5.75695">
        <ele>656.7</ele>
        <time>2011-02-25T09:58:34Z</time>
      </trkpt>
      <trkpt lat="43.44305" lon="5.75683">
        <ele>659.7</ele>
        <time>2011-02-25T09:58:53Z</time>
      </trkpt>
      <trkpt lat="43.44297" lon="5.75683">
        <ele>661.4</ele>
        <time>2011-02-25T09:59:03Z</time>
      </trkpt>
      <trkpt lat="43.44296" lon="5.75682">
        <ele>661.7</ele>
        <time>2011-02-25T09:59:13Z</time>
      </trkpt>
      <trkpt lat="43.44296" lon="5.75682">
        <ele>661.9</ele>
        <time>2011-02-25T09:59:23Z</time>
      </trkpt>
      <trkpt lat="43.44293" lon="5.75683">
        <ele>662.2</ele>
        <time>2011-02-25T09:59:33Z</time>
      </trkpt>
      <trkpt lat="43.44293" lon="5.75686">
        <ele>662.5</ele>
        <time>2011-02-25T09:59:43Z</time>
      </trkpt>
      <trkpt lat="43.44293" lon="5.75686">
        <ele>662.5</ele>
        <time>2011-02-25T09:59:44Z</time>
      </trkpt>
      <trkpt lat="43.44286" lon="5.75701">
        <ele>663.7</ele>
        <time>2011-02-25T10:00:03Z</time>
      </trkpt>
      <trkpt lat="43.4428" lon="5.7571">
        <ele>664.2</ele>
        <time>2011-02-25T10:00:13Z</time>
      </trkpt>
      <trkpt lat="43.44275" lon="5.75713">
        <ele>664.5</ele>
        <time>2011-02-25T10:00:23Z</time>
      </trkpt>
      <trkpt lat="43.44269" lon="5.75713">
        <ele>665</ele>
        <time>2011-02-25T10:00:33Z</time>
      </trkpt>
      <trkpt lat="43.44258" lon="5.75703">
        <ele>665.7</ele>
        <time>2011-02-25T10:00:43Z</time>
      </trkpt>
      <trkpt lat="43.44244" lon="5.75688">
        <ele>666.7</ele>
        <time>2011-02-25T10:00:53Z</time>
      </trkpt>
      <trkpt lat="43.44243" lon="5.75687">
        <ele>666.7</ele>
        <time>2011-02-25T10:00:54Z</time>
      </trkpt>
      <trkpt lat="43.44235" lon="5.75662">
        <ele>669.7</ele>
        <time>2011-02-25T10:01:13Z</time>
      </trkpt>
      <trkpt lat="43.44227" lon="5.75655">
        <ele>671.4</ele>
        <time>2011-02-25T10:01:23Z</time>
      </trkpt>
      <trkpt lat="43.44217" lon="5.75649">
        <ele>673</ele>
        <time>2011-02-25T10:01:33Z</time>
      </trkpt>
      <trkpt lat="43.44208" lon="5.75649">
        <ele>675</ele>
        <time>2011-02-25T10:01:43Z</time>
      </trkpt>
      <trkpt lat="43.44199" lon="5.75653">
        <ele>677</ele>
        <time>2011-02-25T10:01:53Z</time>
      </trkpt>
      <trkpt lat="43.4419" lon="5.75661">
        <ele>678.7</ele>
        <time>2011-02-25T10:02:03Z</time>
      </trkpt>
      <trkpt lat="43.44189" lon="5.75662">
        <ele>678.9</ele>
        <time>2011-02-25T10:02:04Z</time>
      </trkpt>
      <trkpt lat="43.44174" lon="5.75677">
        <ele>681.7</ele>
        <time>2011-02-25T10:02:23Z</time>
      </trkpt>
      <trkpt lat="43.44165" lon="5.75682">
        <ele>683</ele>
        <time>2011-02-25T10:02:33Z</time>
      </trkpt>
      <trkpt lat="43.44155" lon="5.75679">
        <ele>684</ele>
        <time>2011-02-25T10:02:43Z</time>
      </trkpt>
      <trkpt lat="43.44146" lon="5.75675">
        <ele>685</ele>
        <time>2011-02-25T10:02:53Z</time>
      </trkpt>
      <trkpt lat="43.44137" lon="5.75671">
        <ele>685.9</ele>
        <time>2011-02-25T10:03:03Z</time>
      </trkpt>
      <trkpt lat="43.44127" lon="5.75667">
        <ele>686.7</ele>
        <time>2011-02-25T10:03:13Z</time>
      </trkpt>
      <trkpt lat="43.44126" lon="5.75666">
        <ele>686.7</ele>
        <time>2011-02-25T10:03:14Z</time>
      </trkpt>
      <trkpt lat="43.44107" lon="5.75658">
        <ele>688.4</ele>
        <time>2011-02-25T10:03:33Z</time>
      </trkpt>
      <trkpt lat="43.44098" lon="5.75655">
        <ele>689.5</ele>
        <time>2011-02-25T10:03:43Z</time>
      </trkpt>
      <trkpt lat="43.4409" lon="5.75657">
        <ele>690.7</ele>
        <time>2011-02-25T10:03:53Z</time>
      </trkpt>
      <trkpt lat="43.44082" lon="5.75664">
        <ele>691.7</ele>
        <time>2011-02-25T10:04:03Z</time>
      </trkpt>
      <trkpt lat="43.44075" lon="5.75671">
        <ele>692.7</ele>
        <time>2011-02-25T10:04:13Z</time>
      </trkpt>
      <trkpt lat="43.44069" lon="5.75678">
        <ele>693.7</ele>
        <time>2011-02-25T10:04:23Z</time>
      </trkpt>
      <trkpt lat="43.44068" lon="5.75679">
        <ele>693.9</ele>
        <time>2011-02-25T10:04:24Z</time>
      </trkpt>
      <trkpt lat="43.44055" lon="5.75692">
        <ele>695.7</ele>
        <time>2011-02-25T10:04:43Z</time>
      </trkpt>
      <trkpt lat="43.44048" lon="5.757">
        <ele>696.7</ele>
        <time>2011-02-25T10:04:53Z</time>
      </trkpt>
      <trkpt lat="43.44038" lon="5.75701">
        <ele>698</ele>
        <time>2011-02-25T10:05:03Z</time>
      </trkpt>
      <trkpt lat="43.4403" lon="5.75707">
        <ele>699.7</ele>
        <time>2011-02-25T10:05:13Z</time>
      </trkpt>
      <trkpt lat="43.44022" lon="5.75713">
        <ele>701.7</ele>
        <time>2011-02-25T10:05:23Z</time>
      </trkpt>
      <trkpt lat="43.44014" lon="5.75718">
        <ele>703.9</ele>
        <time>2011-02-25T10:05:33Z</time>
      </trkpt>
      <trkpt lat="43.44013" lon="5.75719">
        <ele>704.2</ele>
        <time>2011-02-25T10:05:34Z</time>
      </trkpt>
      <trkpt lat="43.43999" lon="5.75736">
        <ele>708.5</ele>
        <time>2011-02-25T10:05:53Z</time>
      </trkpt>
      <trkpt lat="43.43992" lon="5.75746">
        <ele>710.5</ele>
        <time>2011-02-25T10:06:03Z</time>
      </trkpt>
      <trkpt lat="43.43986" lon="5.75756">
        <ele>712.2</ele>
        <time>2011-02-25T10:06:13Z</time>
      </trkpt>
      <trkpt lat="43.43984" lon="5.75765">
        <ele>713.5</ele>
        <time>2011-02-25T10:06:23Z</time>
      </trkpt>
      <trkpt lat="43.43985" lon="5.75763">
        <ele>713.5</ele>
        <time>2011-02-25T10:06:33Z</time>
      </trkpt>
      <trkpt lat="43.43985" lon="5.75763">
        <ele>713.7</ele>
        <time>2011-02-25T10:06:43Z</time>
      </trkpt>
      <trkpt lat="43.43985" lon="5.75763">
        <ele>713.7</ele>
        <time>2011-02-25T10:06:44Z</time>
      </trkpt>
      <trkpt lat="43.43985" lon="5.75764">
        <ele>714</ele>
        <time>2011-02-25T10:07:03Z</time>
      </trkpt>
      <trkpt lat="43.43984" lon="5.75765">
        <ele>714</ele>
        <time>2011-02-25T10:07:13Z</time>
      </trkpt>
      <trkpt lat="43.43985" lon="5.75765">
        <ele>714</ele>
        <time>2011-02-25T10:07:23Z</time>
      </trkpt>
      <trkpt lat="43.43985" lon="5.75766">
        <ele>714.2</ele>
        <time>2011-02-25T10:07:33Z</time>
      </trkpt>
      <trkpt lat="43.43985" lon="5.75766">
        <ele>714.2</ele>
        <time>2011-02-25T10:07:43Z</time>
      </trkpt>
      <trkpt lat="43.43985" lon="5.75766">
        <ele>714.4</ele>
        <time>2011-02-25T10:07:53Z</time>
      </trkpt>
      <trkpt lat="43.43985" lon="5.75766">
        <ele>714.4</ele>
        <time>2011-02-25T10:07:54Z</time>
      </trkpt>
      <trkpt lat="43.43984" lon="5.75766">
        <ele>714.7</ele>
        <time>2011-02-25T10:08:13Z</time>
      </trkpt>
      <trkpt lat="43.43985" lon="5.75767">
        <ele>714.7</ele>
        <time>2011-02-25T10:08:23Z</time>
      </trkpt>
      <trkpt lat="43.43985" lon="5.75767">
        <ele>715</ele>
        <time>2011-02-25T10:08:33Z</time>
      </trkpt>
      <trkpt lat="43.43986" lon="5.75769">
        <ele>715</ele>
        <time>2011-02-25T10:08:43Z</time>
      </trkpt>
      <trkpt lat="43.43986" lon="5.75771">
        <ele>715.2</ele>
        <time>2011-02-25T10:08:53Z</time>
      </trkpt>
      <trkpt lat="43.43986" lon="5.75771">
        <ele>715.4</ele>
        <time>2011-02-25T10:09:03Z</time>
      </trkpt>
      <trkpt lat="43.43986" lon="5.7577">
        <ele>715.4</ele>
        <time>2011-02-25T10:09:04Z</time>
      </trkpt>
      <trkpt lat="43.43995" lon="5.75777">
        <ele>716.2</ele>
        <time>2011-02-25T10:09:23Z</time>
      </trkpt>
      <trkpt lat="43.44" lon="5.7578">
        <ele>716.9</ele>
        <time>2011-02-25T10:09:33Z</time>
      </trkpt>
      <trkpt lat="43.44008" lon="5.75779">
        <ele>717.7</ele>
        <time>2011-02-25T10:09:43Z</time>
      </trkpt>
      <trkpt lat="43.44018" lon="5.75774">
        <ele>718.9</ele>
        <time>2011-02-25T10:09:53Z</time>
      </trkpt>
      <trkpt lat="43.44026" lon="5.75775">
        <ele>719.9</ele>
        <time>2011-02-25T10:10:03Z</time>
      </trkpt>
      <trkpt lat="43.44033" lon="5.75778">
        <ele>720.9</ele>
        <time>2011-02-25T10:10:13Z</time>
      </trkpt>
      <trkpt lat="43.44034" lon="5.75779">
        <ele>720.9</ele>
        <time>2011-02-25T10:10:14Z</time>
      </trkpt>
      <trkpt lat="43.4405" lon="5.75794">
        <ele>722.5</ele>
        <time>2011-02-25T10:10:33Z</time>
      </trkpt>
      <trkpt lat="43.44057" lon="5.75804">
        <ele>723</ele>
        <time>2011-02-25T10:10:43Z</time>
      </trkpt>
      <trkpt lat="43.44063" lon="5.75812">
        <ele>723.7</ele>
        <time>2011-02-25T10:10:53Z</time>
      </trkpt>
      <trkpt lat="43.44072" lon="5.75819">
        <ele>724.2</ele>
        <time>2011-02-25T10:11:03Z</time>
      </trkpt>
      <trkpt lat="43.44079" lon="5.75824">
        <ele>724.7</ele>
        <time>2011-02-25T10:11:13Z</time>
      </trkpt>
      <trkpt lat="43.44085" lon="5.75826">
        <ele>725.2</ele>
        <time>2011-02-25T10:11:23Z</time>
      </trkpt>
      <trkpt lat="43.44086" lon="5.75826">
        <ele>725.2</ele>
        <time>2011-02-25T10:11:24Z</time>
      </trkpt>
      <trkpt lat="43.44097" lon="5.75832">
        <ele>727</ele>
        <time>2011-02-25T10:11:43Z</time>
      </trkpt>
      <trkpt lat="43.44102" lon="5.75834">
        <ele>728</ele>
        <time>2011-02-25T10:11:53Z</time>
      </trkpt>
      <trkpt lat="43.44107" lon="5.75834">
        <ele>729</ele>
        <time>2011-02-25T10:12:03Z</time>
      </trkpt>
      <trkpt lat="43.44112" lon="5.75833">
        <ele>730</ele>
        <time>2011-02-25T10:12:13Z</time>
      </trkpt>
      <trkpt lat="43.44116" lon="5.75832">
        <ele>731</ele>
        <time>2011-02-25T10:12:23Z</time>
      </trkpt>
      <trkpt lat="43.44122" lon="5.75832">
        <ele>732.2</ele>
        <time>2011-02-25T10:12:33Z</time>
      </trkpt>
      <trkpt lat="43.44123" lon="5.75833">
        <ele>732.2</ele>
        <time>2011-02-25T10:12:34Z</time>
      </trkpt>
      <trkpt lat="43.44134" lon="5.75836">
        <ele>734.5</ele>
        <time>2011-02-25T10:12:53Z</time>
      </trkpt>
      <trkpt lat="43.4414" lon="5.75836">
        <ele>735.7</ele>
        <time>2011-02-25T10:13:03Z</time>
      </trkpt>
      <trkpt lat="43.44147" lon="5.75838">
        <ele>737</ele>
        <time>2011-02-25T10:13:13Z</time>
      </trkpt>
      <trkpt lat="43.44155" lon="5.7584">
        <ele>738.2</ele>
        <time>2011-02-25T10:13:23Z</time>
      </trkpt>
      <trkpt lat="43.44163" lon="5.7584">
        <ele>739.5</ele>
        <time>2011-02-25T10:13:33Z</time>
      </trkpt>
      <trkpt lat="43.4417" lon="5.75846">
        <ele>741</ele>
        <time>2011-02-25T10:13:43Z</time>
      </trkpt>
      <trkpt lat="43.44171" lon="5.75847">
        <ele>741.2</ele>
        <time>2011-02-25T10:13:44Z</time>
      </trkpt>
      <trkpt lat="43.44182" lon="5.75863">
        <ele>744</ele>
        <time>2011-02-25T10:14:03Z</time>
      </trkpt>
      <trkpt lat="43.44189" lon="5.75868">
        <ele>745.4</ele>
        <time>2011-02-25T10:14:13Z</time>
      </trkpt>
      <trkpt lat="43.44195" lon="5.75875">
        <ele>746.7</ele>
        <time>2011-02-25T10:14:23Z</time>
      </trkpt>
      <trkpt lat="43.44201" lon="5.7588">
        <ele>747.9</ele>
        <time>2011-02-25T10:14:33Z</time>
      </trkpt>
      <trkpt lat="43.44204" lon="5.75882">
        <ele>748.5</ele>
        <time>2011-02-25T10:14:43Z</time>
      </trkpt>
      <trkpt lat="43.44207" lon="5.75886">
        <ele>749.9</ele>
        <time>2011-02-25T10:14:53Z</time>
      </trkpt>
      <trkpt lat="43.44207" lon="5.75886">
        <ele>750</ele>
        <time>2011-02-25T10:14:54Z</time>
      </trkpt>
      <trkpt lat="43.44211" lon="5.75907">
        <ele>753.2</ele>
        <time>2011-02-25T10:15:13Z</time>
      </trkpt>
      <trkpt lat="43.44213" lon="5.75915">
        <ele>754.5</ele>
        <time>2011-02-25T10:15:23Z</time>
      </trkpt>
      <trkpt lat="43.44218" lon="5.75918">
        <ele>756</ele>
        <time>2011-02-25T10:15:33Z</time>
      </trkpt>
      <trkpt lat="43.44224" lon="5.75917">
        <ele>757.5</ele>
        <time>2011-02-25T10:15:43Z</time>
      </trkpt>
      <trkpt lat="43.44228" lon="5.75917">
        <ele>759</ele>
        <time>2011-02-25T10:15:53Z</time>
      </trkpt>
      <trkpt lat="43.44232" lon="5.75922">
        <ele>760.5</ele>
        <time>2011-02-25T10:16:03Z</time>
      </trkpt>
      <trkpt lat="43.44233" lon="5.75922">
        <ele>760.7</ele>
        <time>2011-02-25T10:16:04Z</time>
      </trkpt>
      <trkpt lat="43.44242" lon="5.75938">
        <ele>764.2</ele>
        <time>2011-02-25T10:16:23Z</time>
      </trkpt>
      <trkpt lat="43.44247" lon="5.75944">
        <ele>766</ele>
        <time>2011-02-25T10:16:33Z</time>
      </trkpt>
      <trkpt lat="43.44253" lon="5.75949">
        <ele>767.7</ele>
        <time>2011-02-25T10:16:43Z</time>
      </trkpt>
      <trkpt lat="43.44257" lon="5.75954">
        <ele>769.2</ele>
        <time>2011-02-25T10:16:53Z</time>
      </trkpt>
      <trkpt lat="43.44261" lon="5.75959">
        <ele>770.7</ele>
        <time>2011-02-25T10:17:03Z</time>
      </trkpt>
      <trkpt lat="43.44264" lon="5.75964">
        <ele>772.5</ele>
        <time>2011-02-25T10:17:13Z</time>
      </trkpt>
      <trkpt lat="43.44264" lon="5.75965">
        <ele>772.7</ele>
        <time>2011-02-25T10:17:14Z</time>
      </trkpt>
      <trkpt lat="43.44269" lon="5.75973">
        <ele>775.7</ele>
        <time>2011-02-25T10:17:33Z</time>
      </trkpt>
      <trkpt lat="43.44271" lon="5.75979">
        <ele>777.2</ele>
        <time>2011-02-25T10:17:43Z</time>
      </trkpt>
      <trkpt lat="43.44273" lon="5.75987">
        <ele>778.5</ele>
        <time>2011-02-25T10:17:53Z</time>
      </trkpt>
      <trkpt lat="43.44275" lon="5.75996">
        <ele>779.9</ele>
        <time>2011-02-25T10:18:03Z</time>
      </trkpt>
      <trkpt lat="43.44278" lon="5.76003">
        <ele>781.2</ele>
        <time>2011-02-25T10:18:13Z</time>
      </trkpt>
      <trkpt lat="43.44283" lon="5.76006">
        <ele>782.7</ele>
        <time>2011-02-25T10:18:23Z</time>
      </trkpt>
      <trkpt lat="43.44283" lon="5.76007">
        <ele>783</ele>
        <time>2011-02-25T10:18:24Z</time>
      </trkpt>
      <trkpt lat="43.44291" lon="5.76014">
        <ele>785.7</ele>
        <time>2011-02-25T10:18:43Z</time>
      </trkpt>
      <trkpt lat="43.44295" lon="5.76017">
        <ele>787.2</ele>
        <time>2011-02-25T10:18:53Z</time>
      </trkpt>
      <trkpt lat="43.44297" lon="5.76017">
        <ele>788.2</ele>
        <time>2011-02-25T10:19:03Z</time>
      </trkpt>
      <trkpt lat="43.44302" lon="5.76021">
        <ele>789.7</ele>
        <time>2011-02-25T10:19:13Z</time>
      </trkpt>
      <trkpt lat="43.44307" lon="5.76026">
        <ele>791.2</ele>
        <time>2011-02-25T10:19:23Z</time>
      </trkpt>
      <trkpt lat="43.44312" lon="5.76027">
        <ele>792.7</ele>
        <time>2011-02-25T10:19:33Z</time>
      </trkpt>
      <trkpt lat="43.44312" lon="5.76028">
        <ele>792.9</ele>
        <time>2011-02-25T10:19:34Z</time>
      </trkpt>
      <trkpt lat="43.44319" lon="5.76037">
        <ele>795.2</ele>
        <time>2011-02-25T10:19:53Z</time>
      </trkpt>
      <trkpt lat="43.44323" lon="5.76039">
        <ele>796.2</ele>
        <time>2011-02-25T10:20:03Z</time>
      </trkpt>
      <trkpt lat="43.44328" lon="5.76046">
        <ele>797.9</ele>
        <time>2011-02-25T10:20:13Z</time>
      </trkpt>
      <trkpt lat="43.44331" lon="5.76051">
        <ele>799.2</ele>
        <time>2011-02-25T10:20:23Z</time>
      </trkpt>
      <trkpt lat="43.44333" lon="5.76055">
        <ele>800.2</ele>
        <time>2011-02-25T10:20:33Z</time>
      </trkpt>
      <trkpt lat="43.44336" lon="5.76061">
        <ele>801.7</ele>
        <time>2011-02-25T10:20:43Z</time>
      </trkpt>
      <trkpt lat="43.44336" lon="5.76061">
        <ele>801.9</ele>
        <time>2011-02-25T10:20:44Z</time>
      </trkpt>
      <trkpt lat="43.44338" lon="5.76081">
        <ele>804.5</ele>
        <time>2011-02-25T10:21:03Z</time>
      </trkpt>
      <trkpt lat="43.44343" lon="5.7609">
        <ele>805.7</ele>
        <time>2011-02-25T10:21:13Z</time>
      </trkpt>
      <trkpt lat="43.44347" lon="5.76096">
        <ele>807</ele>
        <time>2011-02-25T10:21:23Z</time>
      </trkpt>
      <trkpt lat="43.44349" lon="5.76101">
        <ele>808.5</ele>
        <time>2011-02-25T10:21:33Z</time>
      </trkpt>
      <trkpt lat="43.44353" lon="5.76106">
        <ele>809.9</ele>
        <time>2011-02-25T10:21:43Z</time>
      </trkpt>
      <trkpt lat="43.44355" lon="5.76112">
        <ele>811.4</ele>
        <time>2011-02-25T10:21:53Z</time>
      </trkpt>
      <trkpt lat="43.44356" lon="5.76113">
        <ele>811.5</ele>
        <time>2011-02-25T10:21:54Z</time>
      </trkpt>
      <trkpt lat="43.44361" lon="5.7612">
        <ele>814</ele>
        <time>2011-02-25T10:22:13Z</time>
      </trkpt>
      <trkpt lat="43.44365" lon="5.76126">
        <ele>815.5</ele>
        <time>2011-02-25T10:22:23Z</time>
      </trkpt>
      <trkpt lat="43.44367" lon="5.76129">
        <ele>817</ele>
        <time>2011-02-25T10:22:33Z</time>
      </trkpt>
      <trkpt lat="43.4437" lon="5.76134">
        <ele>818.7</ele>
        <time>2011-02-25T10:22:43Z</time>
      </trkpt>
      <trkpt lat="43.44373" lon="5.76137">
        <ele>820</ele>
        <time>2011-02-25T10:22:53Z</time>
      </trkpt>
      <trkpt lat="43.44375" lon="5.76143">
        <ele>821.5</ele>
        <time>2011-02-25T10:23:03Z</time>
      </trkpt>
      <trkpt lat="43.44375" lon="5.76144">
        <ele>821.7</ele>
        <time>2011-02-25T10:23:04Z</time>
      </trkpt>
      <trkpt lat="43.44383" lon="5.76147">
        <ele>824.7</ele>
        <time>2011-02-25T10:23:23Z</time>
      </trkpt>
      <trkpt lat="43.44388" lon="5.76146">
        <ele>826.5</ele>
        <time>2011-02-25T10:23:33Z</time>
      </trkpt>
      <trkpt lat="43.44392" lon="5.76146">
        <ele>828.7</ele>
        <time>2011-02-25T10:23:43Z</time>
      </trkpt>
      <trkpt lat="43.44397" lon="5.7615">
        <ele>830.7</ele>
        <time>2011-02-25T10:23:53Z</time>
      </trkpt>
      <trkpt lat="43.44399" lon="5.76154">
        <ele>832</ele>
        <time>2011-02-25T10:24:03Z</time>
      </trkpt>
      <trkpt lat="43.44403" lon="5.76155">
        <ele>833.5</ele>
        <time>2011-02-25T10:24:13Z</time>
      </trkpt>
      <trkpt lat="43.44403" lon="5.76155">
        <ele>833.5</ele>
        <time>2011-02-25T10:24:14Z</time>
      </trkpt>
      <trkpt lat="43.4441" lon="5.76145">
        <ele>836.5</ele>
        <time>2011-02-25T10:24:33Z</time>
      </trkpt>
      <trkpt lat="43.44413" lon="5.76143">
        <ele>837.5</ele>
        <time>2011-02-25T10:24:43Z</time>
      </trkpt>
      <trkpt lat="43.44416" lon="5.76141">
        <ele>839.2</ele>
        <time>2011-02-25T10:24:53Z</time>
      </trkpt>
      <trkpt lat="43.44421" lon="5.76143">
        <ele>841.2</ele>
        <time>2011-02-25T10:25:03Z</time>
      </trkpt>
      <trkpt lat="43.44426" lon="5.76144">
        <ele>842.9</ele>
        <time>2011-02-25T10:25:13Z</time>
      </trkpt>
      <trkpt lat="43.44432" lon="5.76144">
        <ele>844.5</ele>
        <time>2011-02-25T10:25:23Z</time>
      </trkpt>
      <trkpt lat="43.44433" lon="5.76144">
        <ele>844.7</ele>
        <time>2011-02-25T10:25:24Z</time>
      </trkpt>
      <trkpt lat="43.44443" lon="5.76151">
        <ele>848.4</ele>
        <time>2011-02-25T10:25:43Z</time>
      </trkpt>
      <trkpt lat="43.44448" lon="5.76153">
        <ele>850.2</ele>
        <time>2011-02-25T10:25:53Z</time>
      </trkpt>
      <trkpt lat="43.44454" lon="5.76154">
        <ele>852.2</ele>
        <time>2011-02-25T10:26:03Z</time>
      </trkpt>
      <trkpt lat="43.44459" lon="5.76159">
        <ele>854</ele>
        <time>2011-02-25T10:26:13Z</time>
      </trkpt>
      <trkpt lat="43.44466" lon="5.76163">
        <ele>855.7</ele>
        <time>2011-02-25T10:26:23Z</time>
      </trkpt>
      <trkpt lat="43.44473" lon="5.76167">
        <ele>857.2</ele>
        <time>2011-02-25T10:26:33Z</time>
      </trkpt>
      <trkpt lat="43.44473" lon="5.76168">
        <ele>857.2</ele>
        <time>2011-02-25T10:26:34Z</time>
      </trkpt>
      <trkpt lat="43.44486" lon="5.76175">
        <ele>860</ele>
        <time>2011-02-25T10:26:53Z</time>
      </trkpt>
      <trkpt lat="43.44493" lon="5.76173">
        <ele>861.4</ele>
        <time>2011-02-25T10:27:03Z</time>
      </trkpt>
      <trkpt lat="43.44493" lon="5.76172">
        <ele>861.5</ele>
        <time>2011-02-25T10:27:13Z</time>
      </trkpt>
      <trkpt lat="43.44493" lon="5.7617">
        <ele>861.7</ele>
        <time>2011-02-25T10:27:23Z</time>
      </trkpt>
      <trkpt lat="43.44491" lon="5.76169">
        <ele>862.5</ele>
        <time>2011-02-25T10:27:33Z</time>
      </trkpt>
      <trkpt lat="43.44491" lon="5.76169">
        <ele>862.5</ele>
        <time>2011-02-25T10:27:34Z</time>
      </trkpt>
      <trkpt lat="43.44491" lon="5.76167">
        <ele>863</ele>
        <time>2011-02-25T10:27:53Z</time>
      </trkpt>
      <trkpt lat="43.4449" lon="5.76167">
        <ele>863.2</ele>
        <time>2011-02-25T10:28:03Z</time>
      </trkpt>
      <trkpt lat="43.4449" lon="5.76167">
        <ele>863.5</ele>
        <time>2011-02-25T10:28:13Z</time>
      </trkpt>
      <trkpt lat="43.4449" lon="5.76168">
        <ele>863.7</ele>
        <time>2011-02-25T10:28:23Z</time>
      </trkpt>
      <trkpt lat="43.4449" lon="5.76167">
        <ele>864</ele>
        <time>2011-02-25T10:28:33Z</time>
      </trkpt>
      <trkpt lat="43.4449" lon="5.76166">
        <ele>864.2</ele>
        <time>2011-02-25T10:28:43Z</time>
      </trkpt>
      <trkpt lat="43.4449" lon="5.76166">
        <ele>864.2</ele>
        <time>2011-02-25T10:28:44Z</time>
      </trkpt>
      <trkpt lat="43.44491" lon="5.76166">
        <ele>864.7</ele>
        <time>2011-02-25T10:29:03Z</time>
      </trkpt>
      <trkpt lat="43.44491" lon="5.76165">
        <ele>865</ele>
        <time>2011-02-25T10:29:13Z</time>
      </trkpt>
      <trkpt lat="43.44491" lon="5.76166">
        <ele>865.2</ele>
        <time>2011-02-25T10:29:23Z</time>
      </trkpt>
      <trkpt lat="43.44492" lon="5.76166">
        <ele>865.9</ele>
        <time>2011-02-25T10:29:33Z</time>
      </trkpt>
      <trkpt lat="43.44497" lon="5.76161">
        <ele>868</ele>
        <time>2011-02-25T10:29:43Z</time>
      </trkpt>
      <trkpt lat="43.44499" lon="5.76152">
        <ele>869.5</ele>
        <time>2011-02-25T10:29:53Z</time>
      </trkpt>
      <trkpt lat="43.44499" lon="5.76152">
        <ele>869.7</ele>
        <time>2011-02-25T10:29:54Z</time>
      </trkpt>
      <trkpt lat="43.44503" lon="5.76134">
        <ele>872.2</ele>
        <time>2011-02-25T10:30:13Z</time>
      </trkpt>
      <trkpt lat="43.44505" lon="5.76125">
        <ele>873.2</ele>
        <time>2011-02-25T10:30:23Z</time>
      </trkpt>
      <trkpt lat="43.44509" lon="5.76116">
        <ele>874.2</ele>
        <time>2011-02-25T10:30:33Z</time>
      </trkpt>
      <trkpt lat="43.44511" lon="5.76109">
        <ele>875</ele>
        <time>2011-02-25T10:30:43Z</time>
      </trkpt>
      <trkpt lat="43.44511" lon="5.76109">
        <ele>875.2</ele>
        <time>2011-02-25T10:30:53Z</time>
      </trkpt>
      <trkpt lat="43.44511" lon="5.7611">
        <ele>875.4</ele>
        <time>2011-02-25T10:31:03Z</time>
      </trkpt>
      <trkpt lat="43.44511" lon="5.7611">
        <ele>875.4</ele>
        <time>2011-02-25T10:31:04Z</time>
      </trkpt>
      <trkpt lat="43.44511" lon="5.76106">
        <ele>875.9</ele>
        <time>2011-02-25T10:31:23Z</time>
      </trkpt>
      <trkpt lat="43.4451" lon="5.76107">
        <ele>876.2</ele>
        <time>2011-02-25T10:31:33Z</time>
      </trkpt>
      <trkpt lat="43.4451" lon="5.76107">
        <ele>876.2</ele>
        <time>2011-02-25T10:31:43Z</time>
      </trkpt>
      <trkpt lat="43.44511" lon="5.76107">
        <ele>876.2</ele>
        <time>2011-02-25T10:31:53Z</time>
      </trkpt>
      <trkpt lat="43.44511" lon="5.76107">
        <ele>876.4</ele>
        <time>2011-02-25T10:32:03Z</time>
      </trkpt>
      <trkpt lat="43.44511" lon="5.76107">
        <ele>876.5</ele>
        <time>2011-02-25T10:32:13Z</time>
      </trkpt>
      <trkpt lat="43.44511" lon="5.76107">
        <ele>876.5</ele>
        <time>2011-02-25T10:32:14Z</time>
      </trkpt>
      <trkpt lat="43.44511" lon="5.76106">
        <ele>876.5</ele>
        <time>2011-02-25T10:32:33Z</time>
      </trkpt>
      <trkpt lat="43.44511" lon="5.76106">
        <ele>876.7</ele>
        <time>2011-02-25T10:32:43Z</time>
      </trkpt>
      <trkpt lat="43.44512" lon="5.76106">
        <ele>876.7</ele>
        <time>2011-02-25T10:32:53Z</time>
      </trkpt>
      <trkpt lat="43.44512" lon="5.76106">
        <ele>876.7</ele>
        <time>2011-02-25T10:33:03Z</time>
      </trkpt>
      <trkpt lat="43.44512" lon="5.76107">
        <ele>876.9</ele>
        <time>2011-02-25T10:33:13Z</time>
      </trkpt>
      <trkpt lat="43.44512" lon="5.76107">
        <ele>876.9</ele>
        <time>2011-02-25T10:33:23Z</time>
      </trkpt>
      <trkpt lat="43.44512" lon="5.76107">
        <ele>876.9</ele>
        <time>2011-02-25T10:33:24Z</time>
      </trkpt>
      <trkpt lat="43.44512" lon="5.76102">
        <ele>876.9</ele>
        <time>2011-02-25T10:33:43Z</time>
      </trkpt>
      <trkpt lat="43.44512" lon="5.76102">
        <ele>877</ele>
        <time>2011-02-25T10:33:53Z</time>
      </trkpt>
      <trkpt lat="43.44511" lon="5.76102">
        <ele>877</ele>
        <time>2011-02-25T10:34:03Z</time>
      </trkpt>
      <trkpt lat="43.44511" lon="5.76103">
        <ele>876.9</ele>
        <time>2011-02-25T10:34:13Z</time>
      </trkpt>
      <trkpt lat="43.44511" lon="5.76103">
        <ele>876.9</ele>
        <time>2011-02-25T10:34:23Z</time>
      </trkpt>
      <trkpt lat="43.44512" lon="5.76103">
        <ele>877</ele>
        <time>2011-02-25T10:34:33Z</time>
      </trkpt>
      <trkpt lat="43.44512" lon="5.76103">
        <ele>877</ele>
        <time>2011-02-25T10:34:34Z</time>
      </trkpt>
      <trkpt lat="43.44511" lon="5.76102">
        <ele>877</ele>
        <time>2011-02-25T10:34:53Z</time>
      </trkpt>
      <trkpt lat="43.44512" lon="5.76103">
        <ele>877</ele>
        <time>2011-02-25T10:35:03Z</time>
      </trkpt>
      <trkpt lat="43.44512" lon="5.76103">
        <ele>877</ele>
        <time>2011-02-25T10:35:13Z</time>
      </trkpt>
      <trkpt lat="43.44511" lon="5.76103">
        <ele>877.2</ele>
        <time>2011-02-25T10:35:23Z</time>
      </trkpt>
      <trkpt lat="43.44512" lon="5.76104">
        <ele>877.2</ele>
        <time>2011-02-25T10:35:33Z</time>
      </trkpt>
      <trkpt lat="43.44512" lon="5.76104">
        <ele>877.2</ele>
        <time>2011-02-25T10:35:43Z</time>
      </trkpt>
      <trkpt lat="43.44512" lon="5.76104">
        <ele>877.2</ele>
        <time>2011-02-25T10:35:44Z</time>
      </trkpt>
      <trkpt lat="43.44513" lon="5.76102">
        <ele>877.2</ele>
        <time>2011-02-25T10:36:03Z</time>
      </trkpt>
      <trkpt lat="43.44513" lon="5.76101">
        <ele>877.2</ele>
        <time>2011-02-25T10:36:13Z</time>
      </trkpt>
      <trkpt lat="43.44513" lon="5.76102">
        <ele>877.4</ele>
        <time>2011-02-25T10:36:23Z</time>
      </trkpt>
      <trkpt lat="43.44513" lon="5.76103">
        <ele>877.4</ele>
        <time>2011-02-25T10:36:33Z</time>
      </trkpt>
      <trkpt lat="43.44512" lon="5.76104">
        <ele>877.5</ele>
        <time>2011-02-25T10:36:43Z</time>
      </trkpt>
      <trkpt lat="43.44512" lon="5.76107">
        <ele>877.5</ele>
        <time>2011-02-25T10:36:53Z</time>
      </trkpt>
      <trkpt lat="43.44512" lon="5.76107">
        <ele>877.5</ele>
        <time>2011-02-25T10:36:54Z</time>
      </trkpt>
      <trkpt lat="43.44511" lon="5.76107">
        <ele>877.7</ele>
        <time>2011-02-25T10:37:13Z</time>
      </trkpt>
      <trkpt lat="43.44511" lon="5.76107">
        <ele>877.7</ele>
        <time>2011-02-25T10:37:23Z</time>
      </trkpt>
      <trkpt lat="43.44511" lon="5.76107">
        <ele>877.7</ele>
        <time>2011-02-25T10:37:33Z</time>
      </trkpt>
      <trkpt lat="43.44512" lon="5.76108">
        <ele>877.7</ele>
        <time>2011-02-25T10:37:43Z</time>
      </trkpt>
      <trkpt lat="43.44512" lon="5.76109">
        <ele>877.7</ele>
        <time>2011-02-25T10:37:53Z</time>
      </trkpt>
      <trkpt lat="43.44512" lon="5.76109">
        <ele>877.7</ele>
        <time>2011-02-25T10:37:54Z</time>
      </trkpt>
      <trkpt lat="43.44515" lon="5.7612">
        <ele>878.2</ele>
        <time>2011-02-25T10:38:13Z</time>
      </trkpt>
      <trkpt lat="43.44519" lon="5.76127">
        <ele>878</ele>
        <time>2011-02-25T10:38:23Z</time>
      </trkpt>
      <trkpt lat="43.44522" lon="5.76133">
        <ele>877.9</ele>
        <time>2011-02-25T10:38:33Z</time>
      </trkpt>
      <trkpt lat="43.44526" lon="5.76139">
        <ele>877.5</ele>
        <time>2011-02-25T10:38:43Z</time>
      </trkpt>
      <trkpt lat="43.44529" lon="5.76146">
        <ele>877.2</ele>
        <time>2011-02-25T10:38:53Z</time>
      </trkpt>
      <trkpt lat="43.44533" lon="5.76148">
        <ele>877</ele>
        <time>2011-02-25T10:39:03Z</time>
      </trkpt>
      <trkpt lat="43.44533" lon="5.76149">
        <ele>877</ele>
        <time>2011-02-25T10:39:04Z</time>
      </trkpt>
      <trkpt lat="43.44537" lon="5.76149">
        <ele>876.5</ele>
        <time>2011-02-25T10:39:23Z</time>
      </trkpt>
      <trkpt lat="43.44542" lon="5.76146">
        <ele>876</ele>
        <time>2011-02-25T10:39:33Z</time>
      </trkpt>
      <trkpt lat="43.44548" lon="5.7614">
        <ele>875.2</ele>
        <time>2011-02-25T10:39:43Z</time>
      </trkpt>
      <trkpt lat="43.44556" lon="5.76137">
        <ele>874.5</ele>
        <time>2011-02-25T10:39:53Z</time>
      </trkpt>
      <trkpt lat="43.4456" lon="5.76136">
        <ele>874.2</ele>
        <time>2011-02-25T10:40:03Z</time>
      </trkpt>
      <trkpt lat="43.44567" lon="5.76134">
        <ele>873.4</ele>
        <time>2011-02-25T10:40:13Z</time>
      </trkpt>
      <trkpt lat="43.44568" lon="5.76134">
        <ele>873.4</ele>
        <time>2011-02-25T10:40:14Z</time>
      </trkpt>
      <trkpt lat="43.44583" lon="5.76134">
        <ele>872.5</ele>
        <time>2011-02-25T10:40:33Z</time>
      </trkpt>
      <trkpt lat="43.44592" lon="5.76133">
        <ele>872.2</ele>
        <time>2011-02-25T10:40:43Z</time>
      </trkpt>
      <trkpt lat="43.44602" lon="5.76129">
        <ele>872</ele>
        <time>2011-02-25T10:40:53Z</time>
      </trkpt>
      <trkpt lat="43.44611" lon="5.76127">
        <ele>871.9</ele>
        <time>2011-02-25T10:41:03Z</time>
      </trkpt>
      <trkpt lat="43.4462" lon="5.76124">
        <ele>872</ele>
        <time>2011-02-25T10:41:13Z</time>
      </trkpt>
      <trkpt lat="43.4463" lon="5.76123">
        <ele>872</ele>
        <time>2011-02-25T10:41:23Z</time>
      </trkpt>
      <trkpt lat="43.44631" lon="5.76122">
        <ele>872</ele>
        <time>2011-02-25T10:41:24Z</time>
      </trkpt>
      <trkpt lat="43.44648" lon="5.76113">
        <ele>870.7</ele>
        <time>2011-02-25T10:41:43Z</time>
      </trkpt>
      <trkpt lat="43.44658" lon="5.76108">
        <ele>870</ele>
        <time>2011-02-25T10:41:53Z</time>
      </trkpt>
      <trkpt lat="43.44668" lon="5.76113">
        <ele>869</ele>
        <time>2011-02-25T10:42:03Z</time>
      </trkpt>
      <trkpt lat="43.44679" lon="5.76115">
        <ele>867.9</ele>
        <time>2011-02-25T10:42:13Z</time>
      </trkpt>
      <trkpt lat="43.44687" lon="5.76118">
        <ele>866.7</ele>
        <time>2011-02-25T10:42:23Z</time>
      </trkpt>
      <trkpt lat="43.44694" lon="5.76121">
        <ele>865.5</ele>
        <time>2011-02-25T10:42:33Z</time>
      </trkpt>
      <trkpt lat="43.44695" lon="5.76122">
        <ele>865.4</ele>
        <time>2011-02-25T10:42:34Z</time>
      </trkpt>
      <trkpt lat="43.44714" lon="5.76128">
        <ele>862.5</ele>
        <time>2011-02-25T10:42:53Z</time>
      </trkpt>
      <trkpt lat="43.44722" lon="5.76133">
        <ele>860.7</ele>
        <time>2011-02-25T10:43:03Z</time>
      </trkpt>
      <trkpt lat="43.4473" lon="5.76136">
        <ele>858.7</ele>
        <time>2011-02-25T10:43:13Z</time>
      </trkpt>
      <trkpt lat="43.44736" lon="5.76141">
        <ele>856.7</ele>
        <time>2011-02-25T10:43:23Z</time>
      </trkpt>
      <trkpt lat="43.44742" lon="5.76151">
        <ele>854.5</ele>
        <time>2011-02-25T10:43:33Z</time>
      </trkpt>
      <trkpt lat="43.44742" lon="5.76152">
        <ele>854.4</ele>
        <time>2011-02-25T10:43:34Z</time>
      </trkpt>
      <trkpt lat="43.44757" lon="5.76169">
        <ele>850.7</ele>
        <time>2011-02-25T10:43:53Z</time>
      </trkpt>
      <trkpt lat="43.44765" lon="5.76179">
        <ele>849</ele>
        <time>2011-02-25T10:44:03Z</time>
      </trkpt>
      <trkpt lat="43.44774" lon="5.7619">
        <ele>847.4</ele>
        <time>2011-02-25T10:44:13Z</time>
      </trkpt>
      <trkpt lat="43.44783" lon="5.76198">
        <ele>846</ele>
        <time>2011-02-25T10:44:23Z</time>
      </trkpt>
      <trkpt lat="43.44793" lon="5.76206">
        <ele>844.7</ele>
        <time>2011-02-25T10:44:33Z</time>
      </trkpt>
      <trkpt lat="43.44801" lon="5.76213">
        <ele>843.7</ele>
        <time>2011-02-25T10:44:43Z</time>
      </trkpt>
      <trkpt lat="43.44801" lon="5.76213">
        <ele>843.5</ele>
        <time>2011-02-25T10:44:44Z</time>
      </trkpt>
      <trkpt lat="43.44815" lon="5.76226">
        <ele>842.2</ele>
        <time>2011-02-25T10:45:03Z</time>
      </trkpt>
      <trkpt lat="43.44822" lon="5.76228">
        <ele>841.2</ele>
        <time>2011-02-25T10:45:13Z</time>
      </trkpt>
      <trkpt lat="43.4483" lon="5.76233">
        <ele>840.5</ele>
        <time>2011-02-25T10:45:23Z</time>
      </trkpt>
      <trkpt lat="43.44838" lon="5.7624">
        <ele>839.7</ele>
        <time>2011-02-25T10:45:33Z</time>
      </trkpt>
      <trkpt lat="43.44845" lon="5.76247">
        <ele>838.7</ele>
        <time>2011-02-25T10:45:43Z</time>
      </trkpt>
      <trkpt lat="43.44854" lon="5.76254">
        <ele>837.7</ele>
        <time>2011-02-25T10:45:53Z</time>
      </trkpt>
      <trkpt lat="43.44854" lon="5.76254">
        <ele>837.7</ele>
        <time>2011-02-25T10:45:54Z</time>
      </trkpt>
      <trkpt lat="43.44868" lon="5.76264">
        <ele>835.7</ele>
        <time>2011-02-25T10:46:13Z</time>
      </trkpt>
      <trkpt lat="43.44877" lon="5.76261">
        <ele>834.4</ele>
        <time>2011-02-25T10:46:23Z</time>
      </trkpt>
      <trkpt lat="43.44884" lon="5.76263">
        <ele>833.2</ele>
        <time>2011-02-25T10:46:33Z</time>
      </trkpt>
      <trkpt lat="43.44893" lon="5.76268">
        <ele>832.2</ele>
        <time>2011-02-25T10:46:43Z</time>
      </trkpt>
      <trkpt lat="43.44903" lon="5.76271">
        <ele>831.4</ele>
        <time>2011-02-25T10:46:53Z</time>
      </trkpt>
      <trkpt lat="43.4491" lon="5.76277">
        <ele>830.7</ele>
        <time>2011-02-25T10:47:03Z</time>
      </trkpt>
      <trkpt lat="43.4491" lon="5.76278">
        <ele>830.5</ele>
        <time>2011-02-25T10:47:04Z</time>
      </trkpt>
      <trkpt lat="43.44919" lon="5.76292">
        <ele>829.7</ele>
        <time>2011-02-25T10:47:23Z</time>
      </trkpt>
      <trkpt lat="43.44924" lon="5.763">
        <ele>829.5</ele>
        <time>2011-02-25T10:47:33Z</time>
      </trkpt>
      <trkpt lat="43.44929" lon="5.76308">
        <ele>829.5</ele>
        <time>2011-02-25T10:47:43Z</time>
      </trkpt>
      <trkpt lat="43.44932" lon="5.76316">
        <ele>829.7</ele>
        <time>2011-02-25T10:47:53Z</time>
      </trkpt>
      <trkpt lat="43.44936" lon="5.76326">
        <ele>830.2</ele>
        <time>2011-02-25T10:48:03Z</time>
      </trkpt>
      <trkpt lat="43.44938" lon="5.76334">
        <ele>831</ele>
        <time>2011-02-25T10:48:13Z</time>
      </trkpt>
      <trkpt lat="43.44938" lon="5.76335">
        <ele>831</ele>
        <time>2011-02-25T10:48:14Z</time>
      </trkpt>
      <trkpt lat="43.44938" lon="5.76355">
        <ele>832.4</ele>
        <time>2011-02-25T10:48:33Z</time>
      </trkpt>
      <trkpt lat="43.44939" lon="5.76365">
        <ele>833</ele>
        <time>2011-02-25T10:48:43Z</time>
      </trkpt>
      <trkpt lat="43.4494" lon="5.76375">
        <ele>833.7</ele>
        <time>2011-02-25T10:48:53Z</time>
      </trkpt>
      <trkpt lat="43.44942" lon="5.76384">
        <ele>834.5</ele>
        <time>2011-02-25T10:49:03Z</time>
      </trkpt>
      <trkpt lat="43.44944" lon="5.76389">
        <ele>835</ele>
        <time>2011-02-25T10:49:13Z</time>
      </trkpt>
      <trkpt lat="43.44947" lon="5.76397">
        <ele>835.7</ele>
        <time>2011-02-25T10:49:23Z</time>
      </trkpt>
      <trkpt lat="43.44948" lon="5.76398">
        <ele>835.9</ele>
        <time>2011-02-25T10:49:24Z</time>
      </trkpt>
      <trkpt lat="43.44957" lon="5.76397">
        <ele>837.2</ele>
        <time>2011-02-25T10:49:43Z</time>
      </trkpt>
      <trkpt lat="43.44962" lon="5.76398">
        <ele>838</ele>
        <time>2011-02-25T10:49:53Z</time>
      </trkpt>
      <trkpt lat="43.44963" lon="5.76398">
        <ele>838.2</ele>
        <time>2011-02-25T10:50:03Z</time>
      </trkpt>
      <trkpt lat="43.44966" lon="5.76397">
        <ele>839.2</ele>
        <time>2011-02-25T10:50:13Z</time>
      </trkpt>
      <trkpt lat="43.44969" lon="5.764">
        <ele>840.4</ele>
        <time>2011-02-25T10:50:23Z</time>
      </trkpt>
      <trkpt lat="43.44972" lon="5.76401">
        <ele>840.5</ele>
        <time>2011-02-25T10:50:33Z</time>
      </trkpt>
      <trkpt lat="43.44972" lon="5.76401">
        <ele>840.5</ele>
        <time>2011-02-25T10:50:34Z</time>
      </trkpt>
      <trkpt lat="43.44982" lon="5.76402">
        <ele>842.7</ele>
        <time>2011-02-25T10:50:53Z</time>
      </trkpt>
      <trkpt lat="43.44985" lon="5.76401">
        <ele>843.2</ele>
        <time>2011-02-25T10:51:03Z</time>
      </trkpt>
      <trkpt lat="43.44988" lon="5.76401">
        <ele>843.7</ele>
        <time>2011-02-25T10:51:13Z</time>
      </trkpt>
      <trkpt lat="43.44992" lon="5.76403">
        <ele>844.5</ele>
        <time>2011-02-25T10:51:23Z</time>
      </trkpt>
      <trkpt lat="43.44996" lon="5.76406">
        <ele>846</ele>
        <time>2011-02-25T10:51:33Z</time>
      </trkpt>
      <trkpt lat="43.45001" lon="5.76411">
        <ele>847.7</ele>
        <time>2011-02-25T10:51:43Z</time>
      </trkpt>
      <trkpt lat="43.45002" lon="5.76412">
        <ele>847.9</ele>
        <time>2011-02-25T10:51:44Z</time>
      </trkpt>
      <trkpt lat="43.45011" lon="5.76416">
        <ele>850.9</ele>
        <time>2011-02-25T10:52:03Z</time>
      </trkpt>
      <trkpt lat="43.45017" lon="5.76421">
        <ele>853</ele>
        <time>2011-02-25T10:52:13Z</time>
      </trkpt>
      <trkpt lat="43.45022" lon="5.76427">
        <ele>854.4</ele>
        <time>2011-02-25T10:52:23Z</time>
      </trkpt>
      <trkpt lat="43.45024" lon="5.76428">
        <ele>854.5</ele>
        <time>2011-02-25T10:52:33Z</time>
      </trkpt>
      <trkpt lat="43.45025" lon="5.76428">
        <ele>854.7</ele>
        <time>2011-02-25T10:52:43Z</time>
      </trkpt>
      <trkpt lat="43.45024" lon="5.76428">
        <ele>854.9</ele>
        <time>2011-02-25T10:52:53Z</time>
      </trkpt>
      <trkpt lat="43.45024" lon="5.76428">
        <ele>854.9</ele>
        <time>2011-02-25T10:52:54Z</time>
      </trkpt>
      <trkpt lat="43.45028" lon="5.76434">
        <ele>856.4</ele>
        <time>2011-02-25T10:53:13Z</time>
      </trkpt>
      <trkpt lat="43.4503" lon="5.76442">
        <ele>858.2</ele>
        <time>2011-02-25T10:53:23Z</time>
      </trkpt>
      <trkpt lat="43.45032" lon="5.76453">
        <ele>859.7</ele>
        <time>2011-02-25T10:53:33Z</time>
      </trkpt>
      <trkpt lat="43.45034" lon="5.76459">
        <ele>860.7</ele>
        <time>2011-02-25T10:53:43Z</time>
      </trkpt>
      <trkpt lat="43.45034" lon="5.7646">
        <ele>860.9</ele>
        <time>2011-02-25T10:53:53Z</time>
      </trkpt>
      <trkpt lat="43.45035" lon="5.76461">
        <ele>861</ele>
        <time>2011-02-25T10:54:03Z</time>
      </trkpt>
      <trkpt lat="43.45035" lon="5.76461">
        <ele>861</ele>
        <time>2011-02-25T10:54:04Z</time>
      </trkpt>
      <trkpt lat="43.45036" lon="5.76467">
        <ele>861.7</ele>
        <time>2011-02-25T10:54:23Z</time>
      </trkpt>
      <trkpt lat="43.45037" lon="5.76477">
        <ele>862.5</ele>
        <time>2011-02-25T10:54:33Z</time>
      </trkpt>
      <trkpt lat="43.45037" lon="5.76486">
        <ele>863</ele>
        <time>2011-02-25T10:54:43Z</time>
      </trkpt>
      <trkpt lat="43.45039" lon="5.76493">
        <ele>863.2</ele>
        <time>2011-02-25T10:54:53Z</time>
      </trkpt>
      <trkpt lat="43.45041" lon="5.76496">
        <ele>863.2</ele>
        <time>2011-02-25T10:55:03Z</time>
      </trkpt>
      <trkpt lat="43.45039" lon="5.76498">
        <ele>863.2</ele>
        <time>2011-02-25T10:55:13Z</time>
      </trkpt>
      <trkpt lat="43.45039" lon="5.76499">
        <ele>863.2</ele>
        <time>2011-02-25T10:55:14Z</time>
      </trkpt>
      <trkpt lat="43.45036" lon="5.76503">
        <ele>863.2</ele>
        <time>2011-02-25T10:55:33Z</time>
      </trkpt>
      <trkpt lat="43.4503" lon="5.76504">
        <ele>862.9</ele>
        <time>2011-02-25T10:55:43Z</time>
      </trkpt>
      <trkpt lat="43.45027" lon="5.76506">
        <ele>862.7</ele>
        <time>2011-02-25T10:55:53Z</time>
      </trkpt>
      <trkpt lat="43.45021" lon="5.76514">
        <ele>862.2</ele>
        <time>2011-02-25T10:56:03Z</time>
      </trkpt>
      <trkpt lat="43.45019" lon="5.76518">
        <ele>861.7</ele>
        <time>2011-02-25T10:56:13Z</time>
      </trkpt>
      <trkpt lat="43.45019" lon="5.76519">
        <ele>861.7</ele>
        <time>2011-02-25T10:56:14Z</time>
      </trkpt>
      <trkpt lat="43.45022" lon="5.76533">
        <ele>859.2</ele>
        <time>2011-02-25T10:56:33Z</time>
      </trkpt>
      <trkpt lat="43.45023" lon="5.76542">
        <ele>857.9</ele>
        <time>2011-02-25T10:56:43Z</time>
      </trkpt>
      <trkpt lat="43.45026" lon="5.76548">
        <ele>856.2</ele>
        <time>2011-02-25T10:56:53Z</time>
      </trkpt>
      <trkpt lat="43.45034" lon="5.7655">
        <ele>854.7</ele>
        <time>2011-02-25T10:57:03Z</time>
      </trkpt>
      <trkpt lat="43.4504" lon="5.76553">
        <ele>853.5</ele>
        <time>2011-02-25T10:57:13Z</time>
      </trkpt>
      <trkpt lat="43.45045" lon="5.76562">
        <ele>852.2</ele>
        <time>2011-02-25T10:57:23Z</time>
      </trkpt>
      <trkpt lat="43.45046" lon="5.76562">
        <ele>852</ele>
        <time>2011-02-25T10:57:24Z</time>
      </trkpt>
      <trkpt lat="43.45051" lon="5.76576">
        <ele>849.9</ele>
        <time>2011-02-25T10:57:43Z</time>
      </trkpt>
      <trkpt lat="43.45054" lon="5.76584">
        <ele>848.7</ele>
        <time>2011-02-25T10:57:53Z</time>
      </trkpt>
      <trkpt lat="43.45061" lon="5.76594">
        <ele>847.7</ele>
        <time>2011-02-25T10:58:03Z</time>
      </trkpt>
      <trkpt lat="43.45068" lon="5.76605">
        <ele>846.5</ele>
        <time>2011-02-25T10:58:13Z</time>
      </trkpt>
      <trkpt lat="43.45076" lon="5.76619">
        <ele>845.7</ele>
        <time>2011-02-25T10:58:23Z</time>
      </trkpt>
      <trkpt lat="43.45079" lon="5.76633">
        <ele>845.2</ele>
        <time>2011-02-25T10:58:33Z</time>
      </trkpt>
      <trkpt lat="43.45079" lon="5.76635">
        <ele>845</ele>
        <time>2011-02-25T10:58:34Z</time>
      </trkpt>
      <trkpt lat="43.4508" lon="5.76661">
        <ele>844</ele>
        <time>2011-02-25T10:58:53Z</time>
      </trkpt>
      <trkpt lat="43.45081" lon="5.76674">
        <ele>843.7</ele>
        <time>2011-02-25T10:59:03Z</time>
      </trkpt>
      <trkpt lat="43.45081" lon="5.76688">
        <ele>843.7</ele>
        <time>2011-02-25T10:59:13Z</time>
      </trkpt>
      <trkpt lat="43.45082" lon="5.76701">
        <ele>843.9</ele>
        <time>2011-02-25T10:59:23Z</time>
      </trkpt>
      <trkpt lat="43.45083" lon="5.76712">
        <ele>844.2</ele>
        <time>2011-02-25T10:59:33Z</time>
      </trkpt>
      <trkpt lat="43.45084" lon="5.76725">
        <ele>844.7</ele>
        <time>2011-02-25T10:59:43Z</time>
      </trkpt>
      <trkpt lat="43.45084" lon="5.76726">
        <ele>844.9</ele>
        <time>2011-02-25T10:59:44Z</time>
      </trkpt>
      <trkpt lat="43.45087" lon="5.76744">
        <ele>846</ele>
        <time>2011-02-25T11:00:03Z</time>
      </trkpt>
      <trkpt lat="43.45087" lon="5.76755">
        <ele>846.9</ele>
        <time>2011-02-25T11:00:13Z</time>
      </trkpt>
      <trkpt lat="43.45087" lon="5.76767">
        <ele>847.7</ele>
        <time>2011-02-25T11:00:23Z</time>
      </trkpt>
      <trkpt lat="43.45087" lon="5.76779">
        <ele>848.4</ele>
        <time>2011-02-25T11:00:33Z</time>
      </trkpt>
      <trkpt lat="43.45085" lon="5.76792">
        <ele>849</ele>
        <time>2011-02-25T11:00:43Z</time>
      </trkpt>
      <trkpt lat="43.45085" lon="5.76793">
        <ele>849.2</ele>
        <time>2011-02-25T11:00:44Z</time>
      </trkpt>
      <trkpt lat="43.45086" lon="5.76815">
        <ele>850.7</ele>
        <time>2011-02-25T11:01:03Z</time>
      </trkpt>
      <trkpt lat="43.45087" lon="5.76827">
        <ele>851.5</ele>
        <time>2011-02-25T11:01:13Z</time>
      </trkpt>
      <trkpt lat="43.45087" lon="5.76839">
        <ele>852.4</ele>
        <time>2011-02-25T11:01:23Z</time>
      </trkpt>
      <trkpt lat="43.45085" lon="5.76855">
        <ele>853.4</ele>
        <time>2011-02-25T11:01:33Z</time>
      </trkpt>
      <trkpt lat="43.45085" lon="5.7687">
        <ele>854.5</ele>
        <time>2011-02-25T11:01:43Z</time>
      </trkpt>
      <trkpt lat="43.45085" lon="5.76886">
        <ele>855.7</ele>
        <time>2011-02-25T11:01:53Z</time>
      </trkpt>
      <trkpt lat="43.45085" lon="5.76888">
        <ele>855.9</ele>
        <time>2011-02-25T11:01:54Z</time>
      </trkpt>
      <trkpt lat="43.45087" lon="5.76921">
        <ele>857.5</ele>
        <time>2011-02-25T11:02:13Z</time>
      </trkpt>
      <trkpt lat="43.45092" lon="5.76936">
        <ele>858</ele>
        <time>2011-02-25T11:02:23Z</time>
      </trkpt>
      <trkpt lat="43.45097" lon="5.76951">
        <ele>858.5</ele>
        <time>2011-02-25T11:02:33Z</time>
      </trkpt>
      <trkpt lat="43.45099" lon="5.76967">
        <ele>859.2</ele>
        <time>2011-02-25T11:02:43Z</time>
      </trkpt>
      <trkpt lat="43.45101" lon="5.76983">
        <ele>859.7</ele>
        <time>2011-02-25T11:02:53Z</time>
      </trkpt>
      <trkpt lat="43.45103" lon="5.76999">
        <ele>860.2</ele>
        <time>2011-02-25T11:03:03Z</time>
      </trkpt>
      <trkpt lat="43.45103" lon="5.77">
        <ele>860.4</ele>
        <time>2011-02-25T11:03:04Z</time>
      </trkpt>
      <trkpt lat="43.4511" lon="5.77028">
        <ele>861.5</ele>
        <time>2011-02-25T11:03:23Z</time>
      </trkpt>
      <trkpt lat="43.45115" lon="5.7704">
        <ele>862</ele>
        <time>2011-02-25T11:03:33Z</time>
      </trkpt>
      <trkpt lat="43.45114" lon="5.77054">
        <ele>862.2</ele>
        <time>2011-02-25T11:03:43Z</time>
      </trkpt>
      <trkpt lat="43.45113" lon="5.77069">
        <ele>862.5</ele>
        <time>2011-02-25T11:03:53Z</time>
      </trkpt>
      <trkpt lat="43.45115" lon="5.77082">
        <ele>862.7</ele>
        <time>2011-02-25T11:04:03Z</time>
      </trkpt>
      <trkpt lat="43.45119" lon="5.77093">
        <ele>863</ele>
        <time>2011-02-25T11:04:13Z</time>
      </trkpt>
      <trkpt lat="43.45119" lon="5.77094">
        <ele>863</ele>
        <time>2011-02-25T11:04:14Z</time>
      </trkpt>
      <trkpt lat="43.45127" lon="5.77095">
        <ele>863</ele>
        <time>2011-02-25T11:04:33Z</time>
      </trkpt>
      <trkpt lat="43.45128" lon="5.77095">
        <ele>863</ele>
        <time>2011-02-25T11:04:43Z</time>
      </trkpt>
      <trkpt lat="43.45125" lon="5.7709">
        <ele>863</ele>
        <time>2011-02-25T11:04:53Z</time>
      </trkpt>
      <trkpt lat="43.45123" lon="5.7708">
        <ele>863.4</ele>
        <time>2011-02-25T11:05:03Z</time>
      </trkpt>
      <trkpt lat="43.45122" lon="5.77066">
        <ele>863.9</ele>
        <time>2011-02-25T11:05:13Z</time>
      </trkpt>
      <trkpt lat="43.45121" lon="5.77053">
        <ele>864.2</ele>
        <time>2011-02-25T11:05:23Z</time>
      </trkpt>
      <trkpt lat="43.45121" lon="5.77052">
        <ele>864.2</ele>
        <time>2011-02-25T11:05:24Z</time>
      </trkpt>
      <trkpt lat="43.45118" lon="5.77029">
        <ele>865</ele>
        <time>2011-02-25T11:05:43Z</time>
      </trkpt>
      <trkpt lat="43.45117" lon="5.77024">
        <ele>865.2</ele>
        <time>2011-02-25T11:05:53Z</time>
      </trkpt>
      <trkpt lat="43.45116" lon="5.77012">
        <ele>865.5</ele>
        <time>2011-02-25T11:06:03Z</time>
      </trkpt>
      <trkpt lat="43.45115" lon="5.76998">
        <ele>866</ele>
        <time>2011-02-25T11:06:13Z</time>
      </trkpt>
      <trkpt lat="43.45117" lon="5.76987">
        <ele>866.2</ele>
        <time>2011-02-25T11:06:23Z</time>
      </trkpt>
      <trkpt lat="43.45117" lon="5.76982">
        <ele>866.2</ele>
        <time>2011-02-25T11:06:33Z</time>
      </trkpt>
      <trkpt lat="43.45117" lon="5.76981">
        <ele>866.2</ele>
        <time>2011-02-25T11:06:34Z</time>
      </trkpt>
      <trkpt lat="43.45117" lon="5.76978">
        <ele>866.2</ele>
        <time>2011-02-25T11:06:53Z</time>
      </trkpt>
      <trkpt lat="43.45116" lon="5.76988">
        <ele>866.2</ele>
        <time>2011-02-25T11:07:03Z</time>
      </trkpt>
      <trkpt lat="43.45119" lon="5.76997">
        <ele>866.4</ele>
        <time>2011-02-25T11:07:13Z</time>
      </trkpt>
      <trkpt lat="43.4512" lon="5.77003">
        <ele>866.4</ele>
        <time>2011-02-25T11:07:23Z</time>
      </trkpt>
      <trkpt lat="43.4512" lon="5.77011">
        <ele>866.4</ele>
        <time>2011-02-25T11:07:33Z</time>
      </trkpt>
      <trkpt lat="43.45118" lon="5.77022">
        <ele>866.5</ele>
        <time>2011-02-25T11:07:43Z</time>
      </trkpt>
      <trkpt lat="43.45118" lon="5.77023">
        <ele>866.5</ele>
        <time>2011-02-25T11:07:44Z</time>
      </trkpt>
      <trkpt lat="43.45117" lon="5.77041">
        <ele>866.7</ele>
        <time>2011-02-25T11:08:03Z</time>
      </trkpt>
      <trkpt lat="43.45117" lon="5.77047">
        <ele>866.9</ele>
        <time>2011-02-25T11:08:13Z</time>
      </trkpt>
      <trkpt lat="43.45117" lon="5.77047">
        <ele>867</ele>
        <time>2011-02-25T11:08:23Z</time>
      </trkpt>
      <trkpt lat="43.45118" lon="5.77045">
        <ele>867.2</ele>
        <time>2011-02-25T11:08:33Z</time>
      </trkpt>
      <trkpt lat="43.45117" lon="5.77045">
        <ele>867.2</ele>
        <time>2011-02-25T11:08:43Z</time>
      </trkpt>
      <trkpt lat="43.45117" lon="5.77045">
        <ele>867.2</ele>
        <time>2011-02-25T11:08:44Z</time>
      </trkpt>
      <trkpt lat="43.45117" lon="5.77045">
        <ele>867.2</ele>
        <time>2011-02-25T11:09:03Z</time>
      </trkpt>
      <trkpt lat="43.45117" lon="5.77045">
        <ele>867.2</ele>
        <time>2011-02-25T11:09:13Z</time>
      </trkpt>
      <trkpt lat="43.45117" lon="5.77045">
        <ele>867.2</ele>
        <time>2011-02-25T11:09:23Z</time>
      </trkpt>
      <trkpt lat="43.45117" lon="5.77045">
        <ele>867.4</ele>
        <time>2011-02-25T11:09:33Z</time>
      </trkpt>
      <trkpt lat="43.45117" lon="5.77046">
        <ele>867.4</ele>
        <time>2011-02-25T11:09:43Z</time>
      </trkpt>
      <trkpt lat="43.45116" lon="5.77046">
        <ele>867.4</ele>
        <time>2011-02-25T11:09:53Z</time>
      </trkpt>
      <trkpt lat="43.45116" lon="5.77046">
        <ele>867.4</ele>
        <time>2011-02-25T11:09:54Z</time>
      </trkpt>
      <trkpt lat="43.45118" lon="5.77046">
        <ele>867.7</ele>
        <time>2011-02-25T11:10:13Z</time>
      </trkpt>
      <trkpt lat="43.45119" lon="5.77046">
        <ele>867.7</ele>
        <time>2011-02-25T11:10:23Z</time>
      </trkpt>
      <trkpt lat="43.45119" lon="5.77045">
        <ele>867.7</ele>
        <time>2011-02-25T11:10:30Z</time>
      </trkpt>
      <trkpt lat="43.45119" lon="5.77045">
        <ele>867.7</ele>
        <time>2011-02-25T11:10:30Z</time>
      </trkpt>
      <trkpt lat="43.45118" lon="5.7704">
        <ele>868</ele>
        <time>2011-02-25T11:45:07Z</time>
      </trkpt>
      <trkpt lat="43.45117" lon="5.7704">
        <ele>868</ele>
        <time>2011-02-25T11:45:08Z</time>
      </trkpt>
      <trkpt lat="43.45119" lon="5.77044">
        <ele>868</ele>
        <time>2011-02-25T11:45:27Z</time>
      </trkpt>
      <trkpt lat="43.45119" lon="5.77046">
        <ele>868</ele>
        <time>2011-02-25T11:45:37Z</time>
      </trkpt>
      <trkpt lat="43.45118" lon="5.77055">
        <ele>867.7</ele>
        <time>2011-02-25T11:45:47Z</time>
      </trkpt>
      <trkpt lat="43.45119" lon="5.77063">
        <ele>867.4</ele>
        <time>2011-02-25T11:45:57Z</time>
      </trkpt>
      <trkpt lat="43.4512" lon="5.77062">
        <ele>867.2</ele>
        <time>2011-02-25T11:46:07Z</time>
      </trkpt>
      <trkpt lat="43.45121" lon="5.77061">
        <ele>867.2</ele>
        <time>2011-02-25T11:46:17Z</time>
      </trkpt>
      <trkpt lat="43.45121" lon="5.77061">
        <ele>867.2</ele>
        <time>2011-02-25T11:46:18Z</time>
      </trkpt>
      <trkpt lat="43.45124" lon="5.77061">
        <ele>867.4</ele>
        <time>2011-02-25T11:46:37Z</time>
      </trkpt>
      <trkpt lat="43.45123" lon="5.77061">
        <ele>867.2</ele>
        <time>2011-02-25T11:46:47Z</time>
      </trkpt>
      <trkpt lat="43.45122" lon="5.77065">
        <ele>867</ele>
        <time>2011-02-25T11:46:57Z</time>
      </trkpt>
      <trkpt lat="43.45126" lon="5.77067">
        <ele>866.7</ele>
        <time>2011-02-25T11:47:07Z</time>
      </trkpt>
      <trkpt lat="43.45126" lon="5.77067">
        <ele>866.7</ele>
        <time>2011-02-25T11:47:17Z</time>
      </trkpt>
      <trkpt lat="43.45125" lon="5.77067">
        <ele>866.7</ele>
        <time>2011-02-25T11:47:27Z</time>
      </trkpt>
      <trkpt lat="43.45125" lon="5.77067">
        <ele>866.7</ele>
        <time>2011-02-25T11:47:28Z</time>
      </trkpt>
      <trkpt lat="43.45124" lon="5.77067">
        <ele>866.9</ele>
        <time>2011-02-25T11:47:47Z</time>
      </trkpt>
      <trkpt lat="43.45124" lon="5.77067">
        <ele>866.9</ele>
        <time>2011-02-25T11:47:57Z</time>
      </trkpt>
      <trkpt lat="43.45124" lon="5.77066">
        <ele>867</ele>
        <time>2011-02-25T11:48:07Z</time>
      </trkpt>
      <trkpt lat="43.45124" lon="5.77065">
        <ele>867</ele>
        <time>2011-02-25T11:48:17Z</time>
      </trkpt>
      <trkpt lat="43.45123" lon="5.77065">
        <ele>867</ele>
        <time>2011-02-25T11:48:27Z</time>
      </trkpt>
      <trkpt lat="43.45123" lon="5.77064">
        <ele>867</ele>
        <time>2011-02-25T11:48:37Z</time>
      </trkpt>
      <trkpt lat="43.45123" lon="5.77064">
        <ele>867</ele>
        <time>2011-02-25T11:48:38Z</time>
      </trkpt>
      <trkpt lat="43.45123" lon="5.77087">
        <ele>867.2</ele>
        <time>2011-02-25T11:48:57Z</time>
      </trkpt>
      <trkpt lat="43.45126" lon="5.771">
        <ele>867.2</ele>
        <time>2011-02-25T11:49:07Z</time>
      </trkpt>
      <trkpt lat="43.45128" lon="5.77113">
        <ele>867</ele>
        <time>2011-02-25T11:49:17Z</time>
      </trkpt>
      <trkpt lat="43.45127" lon="5.77126">
        <ele>866.9</ele>
        <time>2011-02-25T11:49:27Z</time>
      </trkpt>
      <trkpt lat="43.45128" lon="5.77136">
        <ele>866.7</ele>
        <time>2011-02-25T11:49:37Z</time>
      </trkpt>
      <trkpt lat="43.45128" lon="5.77141">
        <ele>866.7</ele>
        <time>2011-02-25T11:49:47Z</time>
      </trkpt>
      <trkpt lat="43.45128" lon="5.77141">
        <ele>866.7</ele>
        <time>2011-02-25T11:49:48Z</time>
      </trkpt>
      <trkpt lat="43.45127" lon="5.77164">
        <ele>866.5</ele>
        <time>2011-02-25T11:50:07Z</time>
      </trkpt>
      <trkpt lat="43.45127" lon="5.77169">
        <ele>866.5</ele>
        <time>2011-02-25T11:50:17Z</time>
      </trkpt>
      <trkpt lat="43.45122" lon="5.77179">
        <ele>866.5</ele>
        <time>2011-02-25T11:50:27Z</time>
      </trkpt>
      <trkpt lat="43.45118" lon="5.77185">
        <ele>866.5</ele>
        <time>2011-02-25T11:50:37Z</time>
      </trkpt>
      <trkpt lat="43.45119" lon="5.77187">
        <ele>866.5</ele>
        <time>2011-02-25T11:50:47Z</time>
      </trkpt>
      <trkpt lat="43.45117" lon="5.77198">
        <ele>867</ele>
        <time>2011-02-25T11:50:57Z</time>
      </trkpt>
      <trkpt lat="43.45117" lon="5.77199">
        <ele>867</ele>
        <time>2011-02-25T11:50:58Z</time>
      </trkpt>
      <trkpt lat="43.4512" lon="5.77227">
        <ele>867.9</ele>
        <time>2011-02-25T11:51:17Z</time>
      </trkpt>
      <trkpt lat="43.45125" lon="5.77238">
        <ele>868.2</ele>
        <time>2011-02-25T11:51:27Z</time>
      </trkpt>
      <trkpt lat="43.45128" lon="5.77241">
        <ele>868.2</ele>
        <time>2011-02-25T11:51:37Z</time>
      </trkpt>
      <trkpt lat="43.45129" lon="5.77245">
        <ele>868.2</ele>
        <time>2011-02-25T11:51:47Z</time>
      </trkpt>
      <trkpt lat="43.45129" lon="5.77246">
        <ele>868.2</ele>
        <time>2011-02-25T11:51:57Z</time>
      </trkpt>
      <trkpt lat="43.45129" lon="5.77246">
        <ele>868.2</ele>
        <time>2011-02-25T11:52:07Z</time>
      </trkpt>
      <trkpt lat="43.45129" lon="5.77247">
        <ele>868.4</ele>
        <time>2011-02-25T11:52:08Z</time>
      </trkpt>
      <trkpt lat="43.45128" lon="5.77256">
        <ele>868.9</ele>
        <time>2011-02-25T11:52:27Z</time>
      </trkpt>
      <trkpt lat="43.45127" lon="5.77268">
        <ele>869.2</ele>
        <time>2011-02-25T11:52:37Z</time>
      </trkpt>
      <trkpt lat="43.45124" lon="5.77282">
        <ele>869.5</ele>
        <time>2011-02-25T11:52:47Z</time>
      </trkpt>
      <trkpt lat="43.45123" lon="5.7729">
        <ele>869.9</ele>
        <time>2011-02-25T11:52:57Z</time>
      </trkpt>
      <trkpt lat="43.45123" lon="5.773">
        <ele>869.9</ele>
        <time>2011-02-25T11:53:07Z</time>
      </trkpt>
      <trkpt lat="43.45119" lon="5.77311">
        <ele>869.7</ele>
        <time>2011-02-25T11:53:17Z</time>
      </trkpt>
      <trkpt lat="43.45118" lon="5.77312">
        <ele>869.7</ele>
        <time>2011-02-25T11:53:18Z</time>
      </trkpt>
      <trkpt lat="43.45114" lon="5.77318">
        <ele>869.5</ele>
        <time>2011-02-25T11:53:37Z</time>
      </trkpt>
      <trkpt lat="43.45115" lon="5.7732">
        <ele>869.4</ele>
        <time>2011-02-25T11:53:47Z</time>
      </trkpt>
      <trkpt lat="43.45116" lon="5.77323">
        <ele>869.4</ele>
        <time>2011-02-25T11:53:57Z</time>
      </trkpt>
      <trkpt lat="43.45116" lon="5.77321">
        <ele>869.5</ele>
        <time>2011-02-25T11:54:07Z</time>
      </trkpt>
      <trkpt lat="43.45116" lon="5.77322">
        <ele>869.5</ele>
        <time>2011-02-25T11:54:17Z</time>
      </trkpt>
      <trkpt lat="43.45116" lon="5.77322">
        <ele>869.5</ele>
        <time>2011-02-25T11:54:27Z</time>
      </trkpt>
      <trkpt lat="43.45116" lon="5.77322">
        <ele>869.5</ele>
        <time>2011-02-25T11:54:28Z</time>
      </trkpt>
      <trkpt lat="43.45115" lon="5.77319">
        <ele>869.5</ele>
        <time>2011-02-25T11:54:47Z</time>
      </trkpt>
      <trkpt lat="43.45115" lon="5.77319">
        <ele>869.5</ele>
        <time>2011-02-25T11:54:57Z</time>
      </trkpt>
      <trkpt lat="43.45114" lon="5.7732">
        <ele>869.5</ele>
        <time>2011-02-25T11:55:07Z</time>
      </trkpt>
      <trkpt lat="43.45115" lon="5.77321">
        <ele>869.5</ele>
        <time>2011-02-25T11:55:17Z</time>
      </trkpt>
      <trkpt lat="43.45117" lon="5.77321">
        <ele>869.5</ele>
        <time>2011-02-25T11:55:27Z</time>
      </trkpt>
      <trkpt lat="43.45117" lon="5.77321">
        <ele>869.5</ele>
        <time>2011-02-25T11:55:37Z</time>
      </trkpt>
      <trkpt lat="43.45117" lon="5.77321">
        <ele>869.5</ele>
        <time>2011-02-25T11:55:38Z</time>
      </trkpt>
      <trkpt lat="43.45116" lon="5.77321">
        <ele>869.7</ele>
        <time>2011-02-25T11:55:57Z</time>
      </trkpt>
      <trkpt lat="43.45116" lon="5.77321">
        <ele>869.7</ele>
        <time>2011-02-25T11:56:07Z</time>
      </trkpt>
      <trkpt lat="43.45116" lon="5.77322">
        <ele>869.7</ele>
        <time>2011-02-25T11:56:17Z</time>
      </trkpt>
      <trkpt lat="43.45115" lon="5.77323">
        <ele>869.7</ele>
        <time>2011-02-25T11:56:27Z</time>
      </trkpt>
      <trkpt lat="43.45114" lon="5.77325">
        <ele>870</ele>
        <time>2011-02-25T11:56:37Z</time>
      </trkpt>
      <trkpt lat="43.45114" lon="5.77325">
        <ele>870</ele>
        <time>2011-02-25T11:56:47Z</time>
      </trkpt>
      <trkpt lat="43.45114" lon="5.77325">
        <ele>870</ele>
        <time>2011-02-25T11:56:48Z</time>
      </trkpt>
      <trkpt lat="43.45113" lon="5.77329">
        <ele>870</ele>
        <time>2011-02-25T11:57:07Z</time>
      </trkpt>
      <trkpt lat="43.4511" lon="5.77342">
        <ele>870.2</ele>
        <time>2011-02-25T11:57:17Z</time>
      </trkpt>
      <trkpt lat="43.45108" lon="5.77354">
        <ele>870.4</ele>
        <time>2011-02-25T11:57:27Z</time>
      </trkpt>
      <trkpt lat="43.45107" lon="5.77367">
        <ele>870</ele>
        <time>2011-02-25T11:57:37Z</time>
      </trkpt>
      <trkpt lat="43.45108" lon="5.77382">
        <ele>869.7</ele>
        <time>2011-02-25T11:57:47Z</time>
      </trkpt>
      <trkpt lat="43.45108" lon="5.77388">
        <ele>869.5</ele>
        <time>2011-02-25T11:57:57Z</time>
      </trkpt>
      <trkpt lat="43.45108" lon="5.77389">
        <ele>869.5</ele>
        <time>2011-02-25T11:57:58Z</time>
      </trkpt>
      <trkpt lat="43.45106" lon="5.77413">
        <ele>868.5</ele>
        <time>2011-02-25T11:58:17Z</time>
      </trkpt>
      <trkpt lat="43.45106" lon="5.77423">
        <ele>868</ele>
        <time>2011-02-25T11:58:27Z</time>
      </trkpt>
      <trkpt lat="43.45104" lon="5.77434">
        <ele>867.5</ele>
        <time>2011-02-25T11:58:37Z</time>
      </trkpt>
      <trkpt lat="43.45103" lon="5.77446">
        <ele>867.2</ele>
        <time>2011-02-25T11:58:47Z</time>
      </trkpt>
      <trkpt lat="43.45101" lon="5.7746">
        <ele>867.2</ele>
        <time>2011-02-25T11:58:57Z</time>
      </trkpt>
      <trkpt lat="43.451" lon="5.77473">
        <ele>867.2</ele>
        <time>2011-02-25T11:59:07Z</time>
      </trkpt>
      <trkpt lat="43.451" lon="5.77475">
        <ele>867.2</ele>
        <time>2011-02-25T11:59:08Z</time>
      </trkpt>
      <trkpt lat="43.45097" lon="5.77499">
        <ele>867.4</ele>
        <time>2011-02-25T11:59:27Z</time>
      </trkpt>
      <trkpt lat="43.45095" lon="5.77514">
        <ele>867.2</ele>
        <time>2011-02-25T11:59:37Z</time>
      </trkpt>
      <trkpt lat="43.45094" lon="5.77526">
        <ele>867.2</ele>
        <time>2011-02-25T11:59:47Z</time>
      </trkpt>
      <trkpt lat="43.45092" lon="5.77538">
        <ele>867.2</ele>
        <time>2011-02-25T11:59:57Z</time>
      </trkpt>
      <trkpt lat="43.45091" lon="5.7755">
        <ele>867.2</ele>
        <time>2011-02-25T12:00:07Z</time>
      </trkpt>
      <trkpt lat="43.45092" lon="5.77563">
        <ele>867</ele>
        <time>2011-02-25T12:00:17Z</time>
      </trkpt>
      <trkpt lat="43.45093" lon="5.77565">
        <ele>867</ele>
        <time>2011-02-25T12:00:18Z</time>
      </trkpt>
      <trkpt lat="43.45091" lon="5.77589">
        <ele>866.7</ele>
        <time>2011-02-25T12:00:37Z</time>
      </trkpt>
      <trkpt lat="43.45088" lon="5.77601">
        <ele>866.7</ele>
        <time>2011-02-25T12:00:47Z</time>
      </trkpt>
      <trkpt lat="43.45084" lon="5.77612">
        <ele>866.7</ele>
        <time>2011-02-25T12:00:57Z</time>
      </trkpt>
      <trkpt lat="43.4508" lon="5.77624">
        <ele>866.9</ele>
        <time>2011-02-25T12:01:07Z</time>
      </trkpt>
      <trkpt lat="43.45076" lon="5.77635">
        <ele>867</ele>
        <time>2011-02-25T12:01:17Z</time>
      </trkpt>
      <trkpt lat="43.45073" lon="5.77649">
        <ele>867.5</ele>
        <time>2011-02-25T12:01:27Z</time>
      </trkpt>
      <trkpt lat="43.45073" lon="5.7765">
        <ele>867.5</ele>
        <time>2011-02-25T12:01:28Z</time>
      </trkpt>
      <trkpt lat="43.45068" lon="5.77675">
        <ele>867.9</ele>
        <time>2011-02-25T12:01:47Z</time>
      </trkpt>
      <trkpt lat="43.45066" lon="5.77688">
        <ele>867.9</ele>
        <time>2011-02-25T12:01:57Z</time>
      </trkpt>
      <trkpt lat="43.45065" lon="5.77702">
        <ele>867.9</ele>
        <time>2011-02-25T12:02:07Z</time>
      </trkpt>
      <trkpt lat="43.45063" lon="5.77717">
        <ele>868</ele>
        <time>2011-02-25T12:02:17Z</time>
      </trkpt>
      <trkpt lat="43.45061" lon="5.77731">
        <ele>868.4</ele>
        <time>2011-02-25T12:02:27Z</time>
      </trkpt>
      <trkpt lat="43.45061" lon="5.77732">
        <ele>868.5</ele>
        <time>2011-02-25T12:02:28Z</time>
      </trkpt>
      <trkpt lat="43.45055" lon="5.77756">
        <ele>869</ele>
        <time>2011-02-25T12:02:47Z</time>
      </trkpt>
      <trkpt lat="43.4505" lon="5.77766">
        <ele>869.2</ele>
        <time>2011-02-25T12:02:57Z</time>
      </trkpt>
      <trkpt lat="43.45046" lon="5.77777">
        <ele>869.2</ele>
        <time>2011-02-25T12:03:07Z</time>
      </trkpt>
      <trkpt lat="43.45045" lon="5.77792">
        <ele>869.2</ele>
        <time>2011-02-25T12:03:17Z</time>
      </trkpt>
      <trkpt lat="43.45044" lon="5.77804">
        <ele>869.4</ele>
        <time>2011-02-25T12:03:27Z</time>
      </trkpt>
      <trkpt lat="43.45045" lon="5.77811">
        <ele>869.2</ele>
        <time>2011-02-25T12:03:37Z</time>
      </trkpt>
      <trkpt lat="43.45045" lon="5.77813">
        <ele>869.2</ele>
        <time>2011-02-25T12:03:38Z</time>
      </trkpt>
      <trkpt lat="43.45031" lon="5.77832">
        <ele>869.4</ele>
        <time>2011-02-25T12:03:57Z</time>
      </trkpt>
      <trkpt lat="43.45021" lon="5.77842">
        <ele>869.5</ele>
        <time>2011-02-25T12:04:07Z</time>
      </trkpt>
      <trkpt lat="43.45015" lon="5.77856">
        <ele>869.4</ele>
        <time>2011-02-25T12:04:17Z</time>
      </trkpt>
      <trkpt lat="43.45009" lon="5.77868">
        <ele>869.5</ele>
        <time>2011-02-25T12:04:27Z</time>
      </trkpt>
      <trkpt lat="43.45004" lon="5.7788">
        <ele>869.7</ele>
        <time>2011-02-25T12:04:37Z</time>
      </trkpt>
      <trkpt lat="43.44999" lon="5.77892">
        <ele>869.9</ele>
        <time>2011-02-25T12:04:47Z</time>
      </trkpt>
      <trkpt lat="43.44999" lon="5.77893">
        <ele>869.9</ele>
        <time>2011-02-25T12:04:48Z</time>
      </trkpt>
      <trkpt lat="43.44987" lon="5.77913">
        <ele>870.2</ele>
        <time>2011-02-25T12:05:07Z</time>
      </trkpt>
      <trkpt lat="43.44981" lon="5.77924">
        <ele>870.2</ele>
        <time>2011-02-25T12:05:17Z</time>
      </trkpt>
      <trkpt lat="43.44976" lon="5.77936">
        <ele>870.4</ele>
        <time>2011-02-25T12:05:27Z</time>
      </trkpt>
      <trkpt lat="43.4497" lon="5.77946">
        <ele>870.5</ele>
        <time>2011-02-25T12:05:37Z</time>
      </trkpt>
      <trkpt lat="43.44964" lon="5.77957">
        <ele>870.7</ele>
        <time>2011-02-25T12:05:47Z</time>
      </trkpt>
      <trkpt lat="43.44956" lon="5.77965">
        <ele>870.7</ele>
        <time>2011-02-25T12:05:57Z</time>
      </trkpt>
      <trkpt lat="43.44955" lon="5.77966">
        <ele>870.7</ele>
        <time>2011-02-25T12:05:58Z</time>
      </trkpt>
      <trkpt lat="43.44946" lon="5.77987">
        <ele>870.7</ele>
        <time>2011-02-25T12:06:17Z</time>
      </trkpt>
      <trkpt lat="43.44941" lon="5.78">
        <ele>870.4</ele>
        <time>2011-02-25T12:06:27Z</time>
      </trkpt>
      <trkpt lat="43.44935" lon="5.78016">
        <ele>869.7</ele>
        <time>2011-02-25T12:06:37Z</time>
      </trkpt>
      <trkpt lat="43.44929" lon="5.78028">
        <ele>869.2</ele>
        <time>2011-02-25T12:06:47Z</time>
      </trkpt>
      <trkpt lat="43.44924" lon="5.78042">
        <ele>868.7</ele>
        <time>2011-02-25T12:06:57Z</time>
      </trkpt>
      <trkpt lat="43.44924" lon="5.78044">
        <ele>868.5</ele>
        <time>2011-02-25T12:06:58Z</time>
      </trkpt>
      <trkpt lat="43.44921" lon="5.78071">
        <ele>868</ele>
        <time>2011-02-25T12:07:17Z</time>
      </trkpt>
      <trkpt lat="43.44919" lon="5.78084">
        <ele>867.7</ele>
        <time>2011-02-25T12:07:27Z</time>
      </trkpt>
      <trkpt lat="43.44915" lon="5.78096">
        <ele>867.7</ele>
        <time>2011-02-25T12:07:37Z</time>
      </trkpt>
      <trkpt lat="43.4491" lon="5.78106">
        <ele>867.5</ele>
        <time>2011-02-25T12:07:47Z</time>
      </trkpt>
      <trkpt lat="43.44905" lon="5.78115">
        <ele>867.2</ele>
        <time>2011-02-25T12:07:57Z</time>
      </trkpt>
      <trkpt lat="43.449" lon="5.78125">
        <ele>867</ele>
        <time>2011-02-25T12:08:07Z</time>
      </trkpt>
      <trkpt lat="43.449" lon="5.78126">
        <ele>866.9</ele>
        <time>2011-02-25T12:08:08Z</time>
      </trkpt>
      <trkpt lat="43.4489" lon="5.78138">
        <ele>866</ele>
        <time>2011-02-25T12:08:27Z</time>
      </trkpt>
      <trkpt lat="43.44884" lon="5.78147">
        <ele>865.7</ele>
        <time>2011-02-25T12:08:37Z</time>
      </trkpt>
      <trkpt lat="43.44879" lon="5.78161">
        <ele>865.2</ele>
        <time>2011-02-25T12:08:47Z</time>
      </trkpt>
      <trkpt lat="43.44874" lon="5.78175">
        <ele>865</ele>
        <time>2011-02-25T12:08:57Z</time>
      </trkpt>
      <trkpt lat="43.44873" lon="5.78191">
        <ele>865</ele>
        <time>2011-02-25T12:09:07Z</time>
      </trkpt>
      <trkpt lat="43.4487" lon="5.78207">
        <ele>864.9</ele>
        <time>2011-02-25T12:09:17Z</time>
      </trkpt>
      <trkpt lat="43.44869" lon="5.78208">
        <ele>864.7</ele>
        <time>2011-02-25T12:09:18Z</time>
      </trkpt>
      <trkpt lat="43.44859" lon="5.7823">
        <ele>864</ele>
        <time>2011-02-25T12:09:37Z</time>
      </trkpt>
      <trkpt lat="43.44857" lon="5.78243">
        <ele>863.7</ele>
        <time>2011-02-25T12:09:47Z</time>
      </trkpt>
      <trkpt lat="43.44856" lon="5.78256">
        <ele>863.5</ele>
        <time>2011-02-25T12:09:57Z</time>
      </trkpt>
      <trkpt lat="43.44856" lon="5.78268">
        <ele>863.2</ele>
        <time>2011-02-25T12:10:07Z</time>
      </trkpt>
      <trkpt lat="43.44852" lon="5.7828">
        <ele>863</ele>
        <time>2011-02-25T12:10:17Z</time>
      </trkpt>
      <trkpt lat="43.44846" lon="5.78291">
        <ele>863</ele>
        <time>2011-02-25T12:10:27Z</time>
      </trkpt>
      <trkpt lat="43.44846" lon="5.78292">
        <ele>863</ele>
        <time>2011-02-25T12:10:28Z</time>
      </trkpt>
      <trkpt lat="43.44838" lon="5.78307">
        <ele>862.7</ele>
        <time>2011-02-25T12:10:47Z</time>
      </trkpt>
      <trkpt lat="43.44832" lon="5.78317">
        <ele>862.4</ele>
        <time>2011-02-25T12:10:57Z</time>
      </trkpt>
      <trkpt lat="43.44827" lon="5.78328">
        <ele>861.9</ele>
        <time>2011-02-25T12:11:07Z</time>
      </trkpt>
      <trkpt lat="43.4482" lon="5.78334">
        <ele>861.5</ele>
        <time>2011-02-25T12:11:17Z</time>
      </trkpt>
      <trkpt lat="43.44813" lon="5.7834">
        <ele>861.2</ele>
        <time>2011-02-25T12:11:27Z</time>
      </trkpt>
      <trkpt lat="43.44809" lon="5.78349">
        <ele>860.9</ele>
        <time>2011-02-25T12:11:37Z</time>
      </trkpt>
      <trkpt lat="43.44809" lon="5.7835">
        <ele>860.7</ele>
        <time>2011-02-25T12:11:38Z</time>
      </trkpt>
      <trkpt lat="43.44801" lon="5.7837">
        <ele>860</ele>
        <time>2011-02-25T12:11:57Z</time>
      </trkpt>
      <trkpt lat="43.44799" lon="5.78382">
        <ele>859.9</ele>
        <time>2011-02-25T12:12:07Z</time>
      </trkpt>
      <trkpt lat="43.44798" lon="5.78394">
        <ele>859.7</ele>
        <time>2011-02-25T12:12:17Z</time>
      </trkpt>
      <trkpt lat="43.44795" lon="5.78405">
        <ele>859.9</ele>
        <time>2011-02-25T12:12:27Z</time>
      </trkpt>
      <trkpt lat="43.4479" lon="5.78416">
        <ele>859.9</ele>
        <time>2011-02-25T12:12:37Z</time>
      </trkpt>
      <trkpt lat="43.44786" lon="5.78426">
        <ele>859.7</ele>
        <time>2011-02-25T12:12:47Z</time>
      </trkpt>
      <trkpt lat="43.44785" lon="5.78427">
        <ele>859.7</ele>
        <time>2011-02-25T12:12:48Z</time>
      </trkpt>
      <trkpt lat="43.44778" lon="5.78448">
        <ele>859.5</ele>
        <time>2011-02-25T12:13:07Z</time>
      </trkpt>
      <trkpt lat="43.44774" lon="5.78459">
        <ele>859.4</ele>
        <time>2011-02-25T12:13:17Z</time>
      </trkpt>
      <trkpt lat="43.44772" lon="5.78475">
        <ele>859.2</ele>
        <time>2011-02-25T12:13:27Z</time>
      </trkpt>
      <trkpt lat="43.44771" lon="5.78491">
        <ele>859.4</ele>
        <time>2011-02-25T12:13:37Z</time>
      </trkpt>
      <trkpt lat="43.4477" lon="5.78501">
        <ele>859.5</ele>
        <time>2011-02-25T12:13:47Z</time>
      </trkpt>
      <trkpt lat="43.44766" lon="5.78506">
        <ele>859.9</ele>
        <time>2011-02-25T12:13:57Z</time>
      </trkpt>
      <trkpt lat="43.44765" lon="5.78507">
        <ele>859.9</ele>
        <time>2011-02-25T12:13:58Z</time>
      </trkpt>
      <trkpt lat="43.44752" lon="5.78516">
        <ele>860.2</ele>
        <time>2011-02-25T12:14:17Z</time>
      </trkpt>
      <trkpt lat="43.44747" lon="5.78528">
        <ele>860.5</ele>
        <time>2011-02-25T12:14:27Z</time>
      </trkpt>
      <trkpt lat="43.44742" lon="5.78538">
        <ele>860.7</ele>
        <time>2011-02-25T12:14:37Z</time>
      </trkpt>
      <trkpt lat="43.44736" lon="5.78548">
        <ele>860.9</ele>
        <time>2011-02-25T12:14:47Z</time>
      </trkpt>
      <trkpt lat="43.44729" lon="5.78556">
        <ele>861</ele>
        <time>2011-02-25T12:14:57Z</time>
      </trkpt>
      <trkpt lat="43.44724" lon="5.78563">
        <ele>861</ele>
        <time>2011-02-25T12:15:07Z</time>
      </trkpt>
      <trkpt lat="43.44724" lon="5.78564">
        <ele>861</ele>
        <time>2011-02-25T12:15:08Z</time>
      </trkpt>
      <trkpt lat="43.44713" lon="5.78581">
        <ele>860.9</ele>
        <time>2011-02-25T12:15:27Z</time>
      </trkpt>
      <trkpt lat="43.44706" lon="5.78591">
        <ele>860.7</ele>
        <time>2011-02-25T12:15:37Z</time>
      </trkpt>
      <trkpt lat="43.44702" lon="5.78606">
        <ele>861</ele>
        <time>2011-02-25T12:15:47Z</time>
      </trkpt>
      <trkpt lat="43.44698" lon="5.78619">
        <ele>861</ele>
        <time>2011-02-25T12:15:57Z</time>
      </trkpt>
      <trkpt lat="43.44694" lon="5.78633">
        <ele>861.2</ele>
        <time>2011-02-25T12:16:07Z</time>
      </trkpt>
      <trkpt lat="43.44692" lon="5.78647">
        <ele>861</ele>
        <time>2011-02-25T12:16:17Z</time>
      </trkpt>
      <trkpt lat="43.44691" lon="5.78648">
        <ele>861</ele>
        <time>2011-02-25T12:16:18Z</time>
      </trkpt>
      <trkpt lat="43.44685" lon="5.78672">
        <ele>860.7</ele>
        <time>2011-02-25T12:16:37Z</time>
      </trkpt>
      <trkpt lat="43.44682" lon="5.78684">
        <ele>860.7</ele>
        <time>2011-02-25T12:16:47Z</time>
      </trkpt>
      <trkpt lat="43.44681" lon="5.78696">
        <ele>860.7</ele>
        <time>2011-02-25T12:16:57Z</time>
      </trkpt>
      <trkpt lat="43.44679" lon="5.78708">
        <ele>860.7</ele>
        <time>2011-02-25T12:17:07Z</time>
      </trkpt>
      <trkpt lat="43.44675" lon="5.78718">
        <ele>860.7</ele>
        <time>2011-02-25T12:17:17Z</time>
      </trkpt>
      <trkpt lat="43.44669" lon="5.78725">
        <ele>860.7</ele>
        <time>2011-02-25T12:17:27Z</time>
      </trkpt>
      <trkpt lat="43.44669" lon="5.78726">
        <ele>860.7</ele>
        <time>2011-02-25T12:17:28Z</time>
      </trkpt>
      <trkpt lat="43.44658" lon="5.78742">
        <ele>860.5</ele>
        <time>2011-02-25T12:17:47Z</time>
      </trkpt>
      <trkpt lat="43.4465" lon="5.78742">
        <ele>860.4</ele>
        <time>2011-02-25T12:17:57Z</time>
      </trkpt>
      <trkpt lat="43.44642" lon="5.7874">
        <ele>860.2</ele>
        <time>2011-02-25T12:18:07Z</time>
      </trkpt>
      <trkpt lat="43.44634" lon="5.78741">
        <ele>860.2</ele>
        <time>2011-02-25T12:18:17Z</time>
      </trkpt>
      <trkpt lat="43.44626" lon="5.78742">
        <ele>860</ele>
        <time>2011-02-25T12:18:27Z</time>
      </trkpt>
      <trkpt lat="43.44624" lon="5.78752">
        <ele>859.9</ele>
        <time>2011-02-25T12:18:37Z</time>
      </trkpt>
      <trkpt lat="43.44625" lon="5.78753">
        <ele>859.9</ele>
        <time>2011-02-25T12:18:38Z</time>
      </trkpt>
      <trkpt lat="43.44633" lon="5.78775">
        <ele>859.4</ele>
        <time>2011-02-25T12:18:57Z</time>
      </trkpt>
      <trkpt lat="43.4463" lon="5.78786">
        <ele>859.5</ele>
        <time>2011-02-25T12:19:07Z</time>
      </trkpt>
      <trkpt lat="43.44625" lon="5.78797">
        <ele>859.5</ele>
        <time>2011-02-25T12:19:17Z</time>
      </trkpt>
      <trkpt lat="43.4462" lon="5.78808">
        <ele>859.5</ele>
        <time>2011-02-25T12:19:27Z</time>
      </trkpt>
      <trkpt lat="43.44615" lon="5.78821">
        <ele>859.5</ele>
        <time>2011-02-25T12:19:37Z</time>
      </trkpt>
      <trkpt lat="43.44612" lon="5.78835">
        <ele>859.4</ele>
        <time>2011-02-25T12:19:47Z</time>
      </trkpt>
      <trkpt lat="43.44611" lon="5.78837">
        <ele>859.4</ele>
        <time>2011-02-25T12:19:48Z</time>
      </trkpt>
      <trkpt lat="43.44601" lon="5.78862">
        <ele>859.2</ele>
        <time>2011-02-25T12:20:07Z</time>
      </trkpt>
      <trkpt lat="43.44596" lon="5.78878">
        <ele>859.2</ele>
        <time>2011-02-25T12:20:17Z</time>
      </trkpt>
      <trkpt lat="43.44593" lon="5.78891">
        <ele>859.2</ele>
        <time>2011-02-25T12:20:27Z</time>
      </trkpt>
      <trkpt lat="43.44586" lon="5.78901">
        <ele>859</ele>
        <time>2011-02-25T12:20:37Z</time>
      </trkpt>
      <trkpt lat="43.44582" lon="5.78911">
        <ele>859</ele>
        <time>2011-02-25T12:20:47Z</time>
      </trkpt>
      <trkpt lat="43.44575" lon="5.78924">
        <ele>859</ele>
        <time>2011-02-25T12:20:57Z</time>
      </trkpt>
      <trkpt lat="43.44575" lon="5.78925">
        <ele>859</ele>
        <time>2011-02-25T12:20:58Z</time>
      </trkpt>
      <trkpt lat="43.44569" lon="5.78953">
        <ele>858.9</ele>
        <time>2011-02-25T12:21:17Z</time>
      </trkpt>
      <trkpt lat="43.44564" lon="5.78965">
        <ele>858.7</ele>
        <time>2011-02-25T12:21:27Z</time>
      </trkpt>
      <trkpt lat="43.44562" lon="5.78973">
        <ele>858.5</ele>
        <time>2011-02-25T12:21:37Z</time>
      </trkpt>
      <trkpt lat="43.44562" lon="5.78977">
        <ele>858.2</ele>
        <time>2011-02-25T12:21:47Z</time>
      </trkpt>
      <trkpt lat="43.44558" lon="5.78984">
        <ele>857.7</ele>
        <time>2011-02-25T12:21:57Z</time>
      </trkpt>
      <trkpt lat="43.44554" lon="5.78994">
        <ele>857.2</ele>
        <time>2011-02-25T12:22:07Z</time>
      </trkpt>
      <trkpt lat="43.44553" lon="5.78995">
        <ele>857.2</ele>
        <time>2011-02-25T12:22:08Z</time>
      </trkpt>
      <trkpt lat="43.44548" lon="5.79012">
        <ele>856.5</ele>
        <time>2011-02-25T12:22:27Z</time>
      </trkpt>
      <trkpt lat="43.44545" lon="5.79018">
        <ele>856.4</ele>
        <time>2011-02-25T12:22:37Z</time>
      </trkpt>
      <trkpt lat="43.44546" lon="5.79019">
        <ele>856.2</ele>
        <time>2011-02-25T12:22:47Z</time>
      </trkpt>
      <trkpt lat="43.44545" lon="5.7902">
        <ele>856.2</ele>
        <time>2011-02-25T12:22:57Z</time>
      </trkpt>
      <trkpt lat="43.44543" lon="5.79024">
        <ele>855.9</ele>
        <time>2011-02-25T12:23:07Z</time>
      </trkpt>
      <trkpt lat="43.44538" lon="5.79029">
        <ele>855.2</ele>
        <time>2011-02-25T12:23:17Z</time>
      </trkpt>
      <trkpt lat="43.44537" lon="5.7903">
        <ele>855</ele>
        <time>2011-02-25T12:23:18Z</time>
      </trkpt>
      <trkpt lat="43.44524" lon="5.7904">
        <ele>854</ele>
        <time>2011-02-25T12:23:37Z</time>
      </trkpt>
      <trkpt lat="43.44515" lon="5.79046">
        <ele>853.5</ele>
        <time>2011-02-25T12:23:47Z</time>
      </trkpt>
      <trkpt lat="43.44507" lon="5.79052">
        <ele>853</ele>
        <time>2011-02-25T12:23:57Z</time>
      </trkpt>
      <trkpt lat="43.445" lon="5.7906">
        <ele>852.2</ele>
        <time>2011-02-25T12:24:07Z</time>
      </trkpt>
      <trkpt lat="43.44495" lon="5.7907">
        <ele>851.7</ele>
        <time>2011-02-25T12:24:17Z</time>
      </trkpt>
      <trkpt lat="43.44492" lon="5.79081">
        <ele>851.2</ele>
        <time>2011-02-25T12:24:27Z</time>
      </trkpt>
      <trkpt lat="43.44492" lon="5.79082">
        <ele>851.2</ele>
        <time>2011-02-25T12:24:28Z</time>
      </trkpt>
      <trkpt lat="43.44486" lon="5.79113">
        <ele>850.5</ele>
        <time>2011-02-25T12:24:47Z</time>
      </trkpt>
      <trkpt lat="43.44482" lon="5.79128">
        <ele>850.2</ele>
        <time>2011-02-25T12:24:57Z</time>
      </trkpt>
      <trkpt lat="43.44476" lon="5.79142">
        <ele>849.5</ele>
        <time>2011-02-25T12:25:07Z</time>
      </trkpt>
      <trkpt lat="43.44474" lon="5.79152">
        <ele>849</ele>
        <time>2011-02-25T12:25:17Z</time>
      </trkpt>
      <trkpt lat="43.44474" lon="5.79157">
        <ele>848.5</ele>
        <time>2011-02-25T12:25:27Z</time>
      </trkpt>
      <trkpt lat="43.44469" lon="5.7917">
        <ele>847.9</ele>
        <time>2011-02-25T12:25:37Z</time>
      </trkpt>
      <trkpt lat="43.44469" lon="5.79171">
        <ele>847.7</ele>
        <time>2011-02-25T12:25:38Z</time>
      </trkpt>
      <trkpt lat="43.44466" lon="5.7919">
        <ele>846.4</ele>
        <time>2011-02-25T12:25:57Z</time>
      </trkpt>
      <trkpt lat="43.44472" lon="5.79201">
        <ele>845.5</ele>
        <time>2011-02-25T12:26:07Z</time>
      </trkpt>
      <trkpt lat="43.44477" lon="5.79213">
        <ele>844.7</ele>
        <time>2011-02-25T12:26:17Z</time>
      </trkpt>
      <trkpt lat="43.44479" lon="5.79227">
        <ele>844</ele>
        <time>2011-02-25T12:26:27Z</time>
      </trkpt>
      <trkpt lat="43.44476" lon="5.79238">
        <ele>842.9</ele>
        <time>2011-02-25T12:26:37Z</time>
      </trkpt>
      <trkpt lat="43.44471" lon="5.79249">
        <ele>841.7</ele>
        <time>2011-02-25T12:26:47Z</time>
      </trkpt>
      <trkpt lat="43.44471" lon="5.7925">
        <ele>841.7</ele>
        <time>2011-02-25T12:26:48Z</time>
      </trkpt>
      <trkpt lat="43.44467" lon="5.79275">
        <ele>839.7</ele>
        <time>2011-02-25T12:27:07Z</time>
      </trkpt>
      <trkpt lat="43.44466" lon="5.79291">
        <ele>838.7</ele>
        <time>2011-02-25T12:27:17Z</time>
      </trkpt>
      <trkpt lat="43.44468" lon="5.79306">
        <ele>838.2</ele>
        <time>2011-02-25T12:27:27Z</time>
      </trkpt>
      <trkpt lat="43.44471" lon="5.7932">
        <ele>837.5</ele>
        <time>2011-02-25T12:27:37Z</time>
      </trkpt>
      <trkpt lat="43.44474" lon="5.79332">
        <ele>836.9</ele>
        <time>2011-02-25T12:27:47Z</time>
      </trkpt>
      <trkpt lat="43.44474" lon="5.79333">
        <ele>836.9</ele>
        <time>2011-02-25T12:27:48Z</time>
      </trkpt>
      <trkpt lat="43.44485" lon="5.79351">
        <ele>835.9</ele>
        <time>2011-02-25T12:28:07Z</time>
      </trkpt>
      <trkpt lat="43.44491" lon="5.79362">
        <ele>835.2</ele>
        <time>2011-02-25T12:28:17Z</time>
      </trkpt>
      <trkpt lat="43.44491" lon="5.79375">
        <ele>834.5</ele>
        <time>2011-02-25T12:28:27Z</time>
      </trkpt>
      <trkpt lat="43.44486" lon="5.79387">
        <ele>833.2</ele>
        <time>2011-02-25T12:28:37Z</time>
      </trkpt>
      <trkpt lat="43.44484" lon="5.79395">
        <ele>832</ele>
        <time>2011-02-25T12:28:47Z</time>
      </trkpt>
      <trkpt lat="43.44485" lon="5.79395">
        <ele>831.7</ele>
        <time>2011-02-25T12:28:57Z</time>
      </trkpt>
      <trkpt lat="43.44485" lon="5.79395">
        <ele>831.7</ele>
        <time>2011-02-25T12:28:58Z</time>
      </trkpt>
      <trkpt lat="43.44493" lon="5.79402">
        <ele>829.4</ele>
        <time>2011-02-25T12:29:17Z</time>
      </trkpt>
      <trkpt lat="43.44501" lon="5.79407">
        <ele>828</ele>
        <time>2011-02-25T12:29:27Z</time>
      </trkpt>
      <trkpt lat="43.44506" lon="5.79413">
        <ele>826.9</ele>
        <time>2011-02-25T12:29:37Z</time>
      </trkpt>
      <trkpt lat="43.44509" lon="5.79417">
        <ele>826</ele>
        <time>2011-02-25T12:29:47Z</time>
      </trkpt>
      <trkpt lat="43.44508" lon="5.79423">
        <ele>825.4</ele>
        <time>2011-02-25T12:29:57Z</time>
      </trkpt>
      <trkpt lat="43.44507" lon="5.79424">
        <ele>825.4</ele>
        <time>2011-02-25T12:29:58Z</time>
      </trkpt>
      <trkpt lat="43.44509" lon="5.79439">
        <ele>823.7</ele>
        <time>2011-02-25T12:30:17Z</time>
      </trkpt>
      <trkpt lat="43.4451" lon="5.79444">
        <ele>823</ele>
        <time>2011-02-25T12:30:27Z</time>
      </trkpt>
      <trkpt lat="43.44509" lon="5.79449">
        <ele>822.5</ele>
        <time>2011-02-25T12:30:37Z</time>
      </trkpt>
      <trkpt lat="43.44509" lon="5.79454">
        <ele>822</ele>
        <time>2011-02-25T12:30:47Z</time>
      </trkpt>
      <trkpt lat="43.44509" lon="5.79456">
        <ele>821.9</ele>
        <time>2011-02-25T12:30:57Z</time>
      </trkpt>
      <trkpt lat="43.4451" lon="5.79462">
        <ele>821.2</ele>
        <time>2011-02-25T12:31:07Z</time>
      </trkpt>
      <trkpt lat="43.44511" lon="5.79463">
        <ele>821</ele>
        <time>2011-02-25T12:31:08Z</time>
      </trkpt>
      <trkpt lat="43.44513" lon="5.79468">
        <ele>819.7</ele>
        <time>2011-02-25T12:31:27Z</time>
      </trkpt>
      <trkpt lat="43.44513" lon="5.79474">
        <ele>817.9</ele>
        <time>2011-02-25T12:31:37Z</time>
      </trkpt>
      <trkpt lat="43.44513" lon="5.79482">
        <ele>816.5</ele>
        <time>2011-02-25T12:31:47Z</time>
      </trkpt>
      <trkpt lat="43.44513" lon="5.79486">
        <ele>815.9</ele>
        <time>2011-02-25T12:31:57Z</time>
      </trkpt>
      <trkpt lat="43.44514" lon="5.79493">
        <ele>814</ele>
        <time>2011-02-25T12:32:07Z</time>
      </trkpt>
      <trkpt lat="43.44515" lon="5.795">
        <ele>812.5</ele>
        <time>2011-02-25T12:32:17Z</time>
      </trkpt>
      <trkpt lat="43.44515" lon="5.795">
        <ele>812.5</ele>
        <time>2011-02-25T12:32:18Z</time>
      </trkpt>
      <trkpt lat="43.44513" lon="5.79507">
        <ele>811.2</ele>
        <time>2011-02-25T12:32:37Z</time>
      </trkpt>
      <trkpt lat="43.44514" lon="5.79513">
        <ele>809.7</ele>
        <time>2011-02-25T12:32:47Z</time>
      </trkpt>
      <trkpt lat="43.4452" lon="5.79518">
        <ele>807.5</ele>
        <time>2011-02-25T12:32:57Z</time>
      </trkpt>
      <trkpt lat="43.44526" lon="5.79522">
        <ele>805.4</ele>
        <time>2011-02-25T12:33:07Z</time>
      </trkpt>
      <trkpt lat="43.4453" lon="5.79526">
        <ele>803.4</ele>
        <time>2011-02-25T12:33:17Z</time>
      </trkpt>
      <trkpt lat="43.44533" lon="5.79531">
        <ele>801</ele>
        <time>2011-02-25T12:33:27Z</time>
      </trkpt>
      <trkpt lat="43.44533" lon="5.79532">
        <ele>800.9</ele>
        <time>2011-02-25T12:33:28Z</time>
      </trkpt>
      <trkpt lat="43.44541" lon="5.79544">
        <ele>797.2</ele>
        <time>2011-02-25T12:33:47Z</time>
      </trkpt>
      <trkpt lat="43.44544" lon="5.79555">
        <ele>794.7</ele>
        <time>2011-02-25T12:33:57Z</time>
      </trkpt>
      <trkpt lat="43.44544" lon="5.79565">
        <ele>791.9</ele>
        <time>2011-02-25T12:34:07Z</time>
      </trkpt>
      <trkpt lat="43.44543" lon="5.79575">
        <ele>789</ele>
        <time>2011-02-25T12:34:17Z</time>
      </trkpt>
      <trkpt lat="43.44543" lon="5.79588">
        <ele>786.2</ele>
        <time>2011-02-25T12:34:27Z</time>
      </trkpt>
      <trkpt lat="43.44543" lon="5.79599">
        <ele>783.2</ele>
        <time>2011-02-25T12:34:37Z</time>
      </trkpt>
      <trkpt lat="43.44543" lon="5.796">
        <ele>782.9</ele>
        <time>2011-02-25T12:34:38Z</time>
      </trkpt>
      <trkpt lat="43.44552" lon="5.79617">
        <ele>777.2</ele>
        <time>2011-02-25T12:34:57Z</time>
      </trkpt>
      <trkpt lat="43.44554" lon="5.79627">
        <ele>773.9</ele>
        <time>2011-02-25T12:35:07Z</time>
      </trkpt>
      <trkpt lat="43.44555" lon="5.7964">
        <ele>770.2</ele>
        <time>2011-02-25T12:35:17Z</time>
      </trkpt>
      <trkpt lat="43.44555" lon="5.79652">
        <ele>766.5</ele>
        <time>2011-02-25T12:35:27Z</time>
      </trkpt>
      <trkpt lat="43.4456" lon="5.79663">
        <ele>763.2</ele>
        <time>2011-02-25T12:35:37Z</time>
      </trkpt>
      <trkpt lat="43.44565" lon="5.79672">
        <ele>760.2</ele>
        <time>2011-02-25T12:35:47Z</time>
      </trkpt>
      <trkpt lat="43.44566" lon="5.79673">
        <ele>759.9</ele>
        <time>2011-02-25T12:35:48Z</time>
      </trkpt>
      <trkpt lat="43.4457" lon="5.79694">
        <ele>754.2</ele>
        <time>2011-02-25T12:36:07Z</time>
      </trkpt>
      <trkpt lat="43.44571" lon="5.79706">
        <ele>751.5</ele>
        <time>2011-02-25T12:36:17Z</time>
      </trkpt>
      <trkpt lat="43.44573" lon="5.79716">
        <ele>749</ele>
        <time>2011-02-25T12:36:27Z</time>
      </trkpt>
      <trkpt lat="43.44579" lon="5.79724">
        <ele>747</ele>
        <time>2011-02-25T12:36:37Z</time>
      </trkpt>
      <trkpt lat="43.44585" lon="5.79731">
        <ele>745.5</ele>
        <time>2011-02-25T12:36:47Z</time>
      </trkpt>
      <trkpt lat="43.44592" lon="5.79743">
        <ele>744.4</ele>
        <time>2011-02-25T12:36:57Z</time>
      </trkpt>
      <trkpt lat="43.44593" lon="5.79744">
        <ele>744.2</ele>
        <time>2011-02-25T12:36:58Z</time>
      </trkpt>
      <trkpt lat="43.44608" lon="5.79759">
        <ele>741.5</ele>
        <time>2011-02-25T12:37:17Z</time>
      </trkpt>
      <trkpt lat="43.44617" lon="5.79761">
        <ele>740.2</ele>
        <time>2011-02-25T12:37:27Z</time>
      </trkpt>
      <trkpt lat="43.44622" lon="5.79763">
        <ele>739</ele>
        <time>2011-02-25T12:37:37Z</time>
      </trkpt>
      <trkpt lat="43.44623" lon="5.79763">
        <ele>738.7</ele>
        <time>2011-02-25T12:37:47Z</time>
      </trkpt>
      <trkpt lat="43.44624" lon="5.79765">
        <ele>737.2</ele>
        <time>2011-02-25T12:37:57Z</time>
      </trkpt>
      <trkpt lat="43.44631" lon="5.79769">
        <ele>734.9</ele>
        <time>2011-02-25T12:38:07Z</time>
      </trkpt>
      <trkpt lat="43.44632" lon="5.79769">
        <ele>734.7</ele>
        <time>2011-02-25T12:38:08Z</time>
      </trkpt>
      <trkpt lat="43.44647" lon="5.79775">
        <ele>730.2</ele>
        <time>2011-02-25T12:38:27Z</time>
      </trkpt>
      <trkpt lat="43.44656" lon="5.79782">
        <ele>728</ele>
        <time>2011-02-25T12:38:37Z</time>
      </trkpt>
      <trkpt lat="43.44665" lon="5.79786">
        <ele>726</ele>
        <time>2011-02-25T12:38:47Z</time>
      </trkpt>
      <trkpt lat="43.44672" lon="5.7979">
        <ele>723.9</ele>
        <time>2011-02-25T12:38:57Z</time>
      </trkpt>
      <trkpt lat="43.44681" lon="5.7979">
        <ele>721.7</ele>
        <time>2011-02-25T12:39:07Z</time>
      </trkpt>
      <trkpt lat="43.44689" lon="5.79794">
        <ele>719.2</ele>
        <time>2011-02-25T12:39:17Z</time>
      </trkpt>
      <trkpt lat="43.4469" lon="5.79795">
        <ele>719</ele>
        <time>2011-02-25T12:39:18Z</time>
      </trkpt>
      <trkpt lat="43.44701" lon="5.79801">
        <ele>714.7</ele>
        <time>2011-02-25T12:39:37Z</time>
      </trkpt>
      <trkpt lat="43.44705" lon="5.79802">
        <ele>712.5</ele>
        <time>2011-02-25T12:39:47Z</time>
      </trkpt>
      <trkpt lat="43.4471" lon="5.7981">
        <ele>709.9</ele>
        <time>2011-02-25T12:39:57Z</time>
      </trkpt>
      <trkpt lat="43.44714" lon="5.79819">
        <ele>707.2</ele>
        <time>2011-02-25T12:40:07Z</time>
      </trkpt>
      <trkpt lat="43.44718" lon="5.79823">
        <ele>705.5</ele>
        <time>2011-02-25T12:40:17Z</time>
      </trkpt>
      <trkpt lat="43.44723" lon="5.79831">
        <ele>703.2</ele>
        <time>2011-02-25T12:40:27Z</time>
      </trkpt>
      <trkpt lat="43.44724" lon="5.79832">
        <ele>703</ele>
        <time>2011-02-25T12:40:28Z</time>
      </trkpt>
      <trkpt lat="43.44736" lon="5.7985">
        <ele>698.7</ele>
        <time>2011-02-25T12:40:47Z</time>
      </trkpt>
      <trkpt lat="43.44741" lon="5.79856">
        <ele>696.9</ele>
        <time>2011-02-25T12:40:57Z</time>
      </trkpt>
      <trkpt lat="43.44746" lon="5.79868">
        <ele>695</ele>
        <time>2011-02-25T12:41:07Z</time>
      </trkpt>
      <trkpt lat="43.44746" lon="5.7987">
        <ele>694</ele>
        <time>2011-02-25T12:41:17Z</time>
      </trkpt>
      <trkpt lat="43.44747" lon="5.7987">
        <ele>693</ele>
        <time>2011-02-25T12:41:27Z</time>
      </trkpt>
      <trkpt lat="43.44751" lon="5.79876">
        <ele>690.5</ele>
        <time>2011-02-25T12:41:37Z</time>
      </trkpt>
      <trkpt lat="43.44751" lon="5.79877">
        <ele>690.2</ele>
        <time>2011-02-25T12:41:38Z</time>
      </trkpt>
      <trkpt lat="43.44761" lon="5.79887">
        <ele>686.4</ele>
        <time>2011-02-25T12:41:57Z</time>
      </trkpt>
      <trkpt lat="43.44766" lon="5.79894">
        <ele>684.5</ele>
        <time>2011-02-25T12:42:07Z</time>
      </trkpt>
      <trkpt lat="43.44771" lon="5.79901">
        <ele>682.7</ele>
        <time>2011-02-25T12:42:17Z</time>
      </trkpt>
      <trkpt lat="43.44778" lon="5.79903">
        <ele>681</ele>
        <time>2011-02-25T12:42:27Z</time>
      </trkpt>
      <trkpt lat="43.44784" lon="5.79906">
        <ele>679</ele>
        <time>2011-02-25T12:42:37Z</time>
      </trkpt>
      <trkpt lat="43.44785" lon="5.79906">
        <ele>679</ele>
        <time>2011-02-25T12:42:38Z</time>
      </trkpt>
      <trkpt lat="43.44799" lon="5.79906">
        <ele>676.2</ele>
        <time>2011-02-25T12:42:57Z</time>
      </trkpt>
      <trkpt lat="43.44804" lon="5.79908">
        <ele>675.4</ele>
        <time>2011-02-25T12:43:07Z</time>
      </trkpt>
      <trkpt lat="43.44813" lon="5.79908">
        <ele>673.7</ele>
        <time>2011-02-25T12:43:17Z</time>
      </trkpt>
      <trkpt lat="43.44822" lon="5.79902">
        <ele>670.9</ele>
        <time>2011-02-25T12:43:27Z</time>
      </trkpt>
      <trkpt lat="43.44829" lon="5.79899">
        <ele>667.9</ele>
        <time>2011-02-25T12:43:37Z</time>
      </trkpt>
      <trkpt lat="43.44839" lon="5.799">
        <ele>665.7</ele>
        <time>2011-02-25T12:43:47Z</time>
      </trkpt>
      <trkpt lat="43.4484" lon="5.799">
        <ele>665.5</ele>
        <time>2011-02-25T12:43:48Z</time>
      </trkpt>
      <trkpt lat="43.44856" lon="5.79902">
        <ele>662.5</ele>
        <time>2011-02-25T12:44:07Z</time>
      </trkpt>
      <trkpt lat="43.44859" lon="5.79891">
        <ele>661.5</ele>
        <time>2011-02-25T12:44:17Z</time>
      </trkpt>
      <trkpt lat="43.44854" lon="5.79874">
        <ele>659.5</ele>
        <time>2011-02-25T12:44:27Z</time>
      </trkpt>
      <trkpt lat="43.44856" lon="5.79861">
        <ele>656.9</ele>
        <time>2011-02-25T12:44:37Z</time>
      </trkpt>
      <trkpt lat="43.44855" lon="5.79862">
        <ele>656.2</ele>
        <time>2011-02-25T12:44:47Z</time>
      </trkpt>
      <trkpt lat="43.44854" lon="5.79862">
        <ele>656.2</ele>
        <time>2011-02-25T12:44:48Z</time>
      </trkpt>
      <trkpt lat="43.44852" lon="5.79862">
        <ele>655.5</ele>
        <time>2011-02-25T12:45:07Z</time>
      </trkpt>
      <trkpt lat="43.44852" lon="5.79861">
        <ele>655</ele>
        <time>2011-02-25T12:45:17Z</time>
      </trkpt>
      <trkpt lat="43.44852" lon="5.79863">
        <ele>654.5</ele>
        <time>2011-02-25T12:45:27Z</time>
      </trkpt>
      <trkpt lat="43.44851" lon="5.79866">
        <ele>654</ele>
        <time>2011-02-25T12:45:37Z</time>
      </trkpt>
      <trkpt lat="43.4485" lon="5.79868">
        <ele>653.5</ele>
        <time>2011-02-25T12:45:47Z</time>
      </trkpt>
      <trkpt lat="43.44851" lon="5.79869">
        <ele>653.2</ele>
        <time>2011-02-25T12:45:57Z</time>
      </trkpt>
      <trkpt lat="43.44851" lon="5.7987">
        <ele>653.2</ele>
        <time>2011-02-25T12:45:58Z</time>
      </trkpt>
      <trkpt lat="43.44852" lon="5.79872">
        <ele>652.5</ele>
        <time>2011-02-25T12:46:17Z</time>
      </trkpt>
      <trkpt lat="43.44853" lon="5.79873">
        <ele>652.2</ele>
        <time>2011-02-25T12:46:27Z</time>
      </trkpt>
      <trkpt lat="43.44854" lon="5.7987">
        <ele>651.7</ele>
        <time>2011-02-25T12:46:37Z</time>
      </trkpt>
      <trkpt lat="43.44856" lon="5.79859">
        <ele>650</ele>
        <time>2011-02-25T12:46:47Z</time>
      </trkpt>
      <trkpt lat="43.44855" lon="5.79845">
        <ele>646.9</ele>
        <time>2011-02-25T12:46:57Z</time>
      </trkpt>
      <trkpt lat="43.44856" lon="5.79843">
        <ele>646.5</ele>
        <time>2011-02-25T12:46:58Z</time>
      </trkpt>
      <trkpt lat="43.44862" lon="5.79817">
        <ele>641.7</ele>
        <time>2011-02-25T12:47:17Z</time>
      </trkpt>
      <trkpt lat="43.44871" lon="5.79814">
        <ele>640</ele>
        <time>2011-02-25T12:47:27Z</time>
      </trkpt>
      <trkpt lat="43.44881" lon="5.79811">
        <ele>638.7</ele>
        <time>2011-02-25T12:47:37Z</time>
      </trkpt>
      <trkpt lat="43.4489" lon="5.79801">
        <ele>637.9</ele>
        <time>2011-02-25T12:47:47Z</time>
      </trkpt>
      <trkpt lat="43.44893" lon="5.79791">
        <ele>637</ele>
        <time>2011-02-25T12:47:57Z</time>
      </trkpt>
      <trkpt lat="43.44895" lon="5.79782">
        <ele>635.9</ele>
        <time>2011-02-25T12:48:07Z</time>
      </trkpt>
      <trkpt lat="43.44895" lon="5.79782">
        <ele>635.7</ele>
        <time>2011-02-25T12:48:08Z</time>
      </trkpt>
      <trkpt lat="43.44899" lon="5.79756">
        <ele>634</ele>
        <time>2011-02-25T12:48:27Z</time>
      </trkpt>
      <trkpt lat="43.44903" lon="5.79741">
        <ele>633</ele>
        <time>2011-02-25T12:48:37Z</time>
      </trkpt>
      <trkpt lat="43.44907" lon="5.79728">
        <ele>632.2</ele>
        <time>2011-02-25T12:48:47Z</time>
      </trkpt>
      <trkpt lat="43.4491" lon="5.79712">
        <ele>631.2</ele>
        <time>2011-02-25T12:48:57Z</time>
      </trkpt>
      <trkpt lat="43.44914" lon="5.79696">
        <ele>630</ele>
        <time>2011-02-25T12:49:07Z</time>
      </trkpt>
      <trkpt lat="43.44918" lon="5.79681">
        <ele>629</ele>
        <time>2011-02-25T12:49:17Z</time>
      </trkpt>
      <trkpt lat="43.44918" lon="5.7968">
        <ele>628.9</ele>
        <time>2011-02-25T12:49:18Z</time>
      </trkpt>
      <trkpt lat="43.44924" lon="5.7965">
        <ele>627</ele>
        <time>2011-02-25T12:49:37Z</time>
      </trkpt>
      <trkpt lat="43.44927" lon="5.79635">
        <ele>626.2</ele>
        <time>2011-02-25T12:49:47Z</time>
      </trkpt>
      <trkpt lat="43.44928" lon="5.79621">
        <ele>625.5</ele>
        <time>2011-02-25T12:49:57Z</time>
      </trkpt>
      <trkpt lat="43.44928" lon="5.79605">
        <ele>624.5</ele>
        <time>2011-02-25T12:50:07Z</time>
      </trkpt>
      <trkpt lat="43.44928" lon="5.7959">
        <ele>623.9</ele>
        <time>2011-02-25T12:50:17Z</time>
      </trkpt>
      <trkpt lat="43.44927" lon="5.79574">
        <ele>622.7</ele>
        <time>2011-02-25T12:50:27Z</time>
      </trkpt>
      <trkpt lat="43.44927" lon="5.79572">
        <ele>622.5</ele>
        <time>2011-02-25T12:50:28Z</time>
      </trkpt>
      <trkpt lat="43.44926" lon="5.79544">
        <ele>619</ele>
        <time>2011-02-25T12:50:47Z</time>
      </trkpt>
      <trkpt lat="43.44928" lon="5.79528">
        <ele>617.2</ele>
        <time>2011-02-25T12:50:57Z</time>
      </trkpt>
      <trkpt lat="43.44931" lon="5.79512">
        <ele>616</ele>
        <time>2011-02-25T12:51:07Z</time>
      </trkpt>
      <trkpt lat="43.44933" lon="5.79494">
        <ele>615</ele>
        <time>2011-02-25T12:51:17Z</time>
      </trkpt>
      <trkpt lat="43.44938" lon="5.79481">
        <ele>614.2</ele>
        <time>2011-02-25T12:51:27Z</time>
      </trkpt>
      <trkpt lat="43.44938" lon="5.7948">
        <ele>614</ele>
        <time>2011-02-25T12:51:28Z</time>
      </trkpt>
      <trkpt lat="43.44944" lon="5.79448">
        <ele>611.9</ele>
        <time>2011-02-25T12:51:47Z</time>
      </trkpt>
      <trkpt lat="43.44945" lon="5.79431">
        <ele>610.7</ele>
        <time>2011-02-25T12:51:57Z</time>
      </trkpt>
      <trkpt lat="43.44943" lon="5.79414">
        <ele>609.9</ele>
        <time>2011-02-25T12:52:07Z</time>
      </trkpt>
      <trkpt lat="43.44942" lon="5.79397">
        <ele>609</ele>
        <time>2011-02-25T12:52:17Z</time>
      </trkpt>
      <trkpt lat="43.44939" lon="5.7938">
        <ele>607.9</ele>
        <time>2011-02-25T12:52:27Z</time>
      </trkpt>
      <trkpt lat="43.44936" lon="5.79366">
        <ele>606.7</ele>
        <time>2011-02-25T12:52:37Z</time>
      </trkpt>
      <trkpt lat="43.44936" lon="5.79364">
        <ele>606.5</ele>
        <time>2011-02-25T12:52:38Z</time>
      </trkpt>
      <trkpt lat="43.44931" lon="5.79342">
        <ele>604.7</ele>
        <time>2011-02-25T12:52:57Z</time>
      </trkpt>
      <trkpt lat="43.44923" lon="5.79337">
        <ele>604</ele>
        <time>2011-02-25T12:53:07Z</time>
      </trkpt>
      <trkpt lat="43.44915" lon="5.79333">
        <ele>603.5</ele>
        <time>2011-02-25T12:53:17Z</time>
      </trkpt>
      <trkpt lat="43.44908" lon="5.79323">
        <ele>603</ele>
        <time>2011-02-25T12:53:27Z</time>
      </trkpt>
      <trkpt lat="43.44906" lon="5.79308">
        <ele>602.2</ele>
        <time>2011-02-25T12:53:37Z</time>
      </trkpt>
      <trkpt lat="43.44906" lon="5.79294">
        <ele>601.4</ele>
        <time>2011-02-25T12:53:47Z</time>
      </trkpt>
      <trkpt lat="43.44906" lon="5.79293">
        <ele>601.2</ele>
        <time>2011-02-25T12:53:48Z</time>
      </trkpt>
      <trkpt lat="43.44894" lon="5.79273">
        <ele>599.9</ele>
        <time>2011-02-25T12:54:07Z</time>
      </trkpt>
      <trkpt lat="43.44887" lon="5.79256">
        <ele>599.2</ele>
        <time>2011-02-25T12:54:17Z</time>
      </trkpt>
      <trkpt lat="43.4488" lon="5.7924">
        <ele>598.7</ele>
        <time>2011-02-25T12:54:27Z</time>
      </trkpt>
      <trkpt lat="43.44876" lon="5.79223">
        <ele>598</ele>
        <time>2011-02-25T12:54:37Z</time>
      </trkpt>
      <trkpt lat="43.44874" lon="5.79208">
        <ele>597.5</ele>
        <time>2011-02-25T12:54:47Z</time>
      </trkpt>
      <trkpt lat="43.44874" lon="5.79191">
        <ele>597</ele>
        <time>2011-02-25T12:54:57Z</time>
      </trkpt>
      <trkpt lat="43.44874" lon="5.7919">
        <ele>597</ele>
        <time>2011-02-25T12:54:58Z</time>
      </trkpt>
      <trkpt lat="43.44886" lon="5.79175">
        <ele>596.4</ele>
        <time>2011-02-25T12:55:17Z</time>
      </trkpt>
      <trkpt lat="43.44896" lon="5.79183">
        <ele>596.2</ele>
        <time>2011-02-25T12:55:27Z</time>
      </trkpt>
      <trkpt lat="43.44906" lon="5.79184">
        <ele>595.9</ele>
        <time>2011-02-25T12:55:37Z</time>
      </trkpt>
      <trkpt lat="43.44913" lon="5.79176">
        <ele>595.2</ele>
        <time>2011-02-25T12:55:47Z</time>
      </trkpt>
      <trkpt lat="43.44914" lon="5.79157">
        <ele>594.9</ele>
        <time>2011-02-25T12:55:57Z</time>
      </trkpt>
      <trkpt lat="43.44915" lon="5.79137">
        <ele>594.4</ele>
        <time>2011-02-25T12:56:07Z</time>
      </trkpt>
      <trkpt lat="43.44915" lon="5.79136">
        <ele>594.2</ele>
        <time>2011-02-25T12:56:08Z</time>
      </trkpt>
      <trkpt lat="43.44929" lon="5.79118">
        <ele>593.9</ele>
        <time>2011-02-25T12:56:27Z</time>
      </trkpt>
      <trkpt lat="43.44933" lon="5.79105">
        <ele>594</ele>
        <time>2011-02-25T12:56:37Z</time>
      </trkpt>
      <trkpt lat="43.44932" lon="5.79087">
        <ele>593.9</ele>
        <time>2011-02-25T12:56:47Z</time>
      </trkpt>
      <trkpt lat="43.44934" lon="5.79071">
        <ele>593.7</ele>
        <time>2011-02-25T12:56:57Z</time>
      </trkpt>
      <trkpt lat="43.44943" lon="5.79063">
        <ele>593.7</ele>
        <time>2011-02-25T12:57:07Z</time>
      </trkpt>
      <trkpt lat="43.44953" lon="5.79067">
        <ele>593.7</ele>
        <time>2011-02-25T12:57:17Z</time>
      </trkpt>
      <trkpt lat="43.44954" lon="5.79067">
        <ele>593.7</ele>
        <time>2011-02-25T12:57:18Z</time>
      </trkpt>
      <trkpt lat="43.44971" lon="5.79058">
        <ele>594.2</ele>
        <time>2011-02-25T12:57:37Z</time>
      </trkpt>
      <trkpt lat="43.44972" lon="5.7904">
        <ele>594.7</ele>
        <time>2011-02-25T12:57:47Z</time>
      </trkpt>
      <trkpt lat="43.44969" lon="5.79019">
        <ele>595.2</ele>
        <time>2011-02-25T12:57:57Z</time>
      </trkpt>
      <trkpt lat="43.44967" lon="5.79003">
        <ele>595.7</ele>
        <time>2011-02-25T12:58:07Z</time>
      </trkpt>
      <trkpt lat="43.44968" lon="5.78986">
        <ele>596</ele>
        <time>2011-02-25T12:58:17Z</time>
      </trkpt>
      <trkpt lat="43.4497" lon="5.78969">
        <ele>596.2</ele>
        <time>2011-02-25T12:58:27Z</time>
      </trkpt>
      <trkpt lat="43.44971" lon="5.78967">
        <ele>596.2</ele>
        <time>2011-02-25T12:58:28Z</time>
      </trkpt>
      <trkpt lat="43.44985" lon="5.78955">
        <ele>596.5</ele>
        <time>2011-02-25T12:58:47Z</time>
      </trkpt>
      <trkpt lat="43.44993" lon="5.78961">
        <ele>596.5</ele>
        <time>2011-02-25T12:58:57Z</time>
      </trkpt>
      <trkpt lat="43.45004" lon="5.78961">
        <ele>596.2</ele>
        <time>2011-02-25T12:59:07Z</time>
      </trkpt>
      <trkpt lat="43.45014" lon="5.78954">
        <ele>596.2</ele>
        <time>2011-02-25T12:59:17Z</time>
      </trkpt>
      <trkpt lat="43.45022" lon="5.78944">
        <ele>596.2</ele>
        <time>2011-02-25T12:59:27Z</time>
      </trkpt>
      <trkpt lat="43.45026" lon="5.7893">
        <ele>596.5</ele>
        <time>2011-02-25T12:59:37Z</time>
      </trkpt>
      <trkpt lat="43.45026" lon="5.78928">
        <ele>596.5</ele>
        <time>2011-02-25T12:59:38Z</time>
      </trkpt>
      <trkpt lat="43.45033" lon="5.78895">
        <ele>598</ele>
        <time>2011-02-25T12:59:57Z</time>
      </trkpt>
      <trkpt lat="43.45041" lon="5.78882">
        <ele>598.9</ele>
        <time>2011-02-25T13:00:07Z</time>
      </trkpt>
      <trkpt lat="43.45051" lon="5.78874">
        <ele>599.7</ele>
        <time>2011-02-25T13:00:17Z</time>
      </trkpt>
      <trkpt lat="43.4506" lon="5.78865">
        <ele>600.4</ele>
        <time>2011-02-25T13:00:27Z</time>
      </trkpt>
      <trkpt lat="43.4507" lon="5.78856">
        <ele>600.9</ele>
        <time>2011-02-25T13:00:37Z</time>
      </trkpt>
      <trkpt lat="43.45077" lon="5.78845">
        <ele>601.4</ele>
        <time>2011-02-25T13:00:47Z</time>
      </trkpt>
      <trkpt lat="43.45078" lon="5.78844">
        <ele>601.4</ele>
        <time>2011-02-25T13:00:48Z</time>
      </trkpt>
      <trkpt lat="43.45091" lon="5.78819">
        <ele>601.9</ele>
        <time>2011-02-25T13:01:07Z</time>
      </trkpt>
      <trkpt lat="43.45098" lon="5.78808">
        <ele>602.2</ele>
        <time>2011-02-25T13:01:17Z</time>
      </trkpt>
      <trkpt lat="43.45106" lon="5.78798">
        <ele>602.9</ele>
        <time>2011-02-25T13:01:27Z</time>
      </trkpt>
      <trkpt lat="43.45113" lon="5.78787">
        <ele>603.5</ele>
        <time>2011-02-25T13:01:37Z</time>
      </trkpt>
      <trkpt lat="43.4512" lon="5.78776">
        <ele>604.2</ele>
        <time>2011-02-25T13:01:47Z</time>
      </trkpt>
      <trkpt lat="43.45125" lon="5.78763">
        <ele>605.2</ele>
        <time>2011-02-25T13:01:57Z</time>
      </trkpt>
      <trkpt lat="43.45126" lon="5.78761">
        <ele>605.4</ele>
        <time>2011-02-25T13:01:58Z</time>
      </trkpt>
      <trkpt lat="43.45133" lon="5.78738">
        <ele>607.4</ele>
        <time>2011-02-25T13:02:17Z</time>
      </trkpt>
      <trkpt lat="43.45135" lon="5.78724">
        <ele>608.7</ele>
        <time>2011-02-25T13:02:27Z</time>
      </trkpt>
      <trkpt lat="43.45137" lon="5.78711">
        <ele>609.7</ele>
        <time>2011-02-25T13:02:37Z</time>
      </trkpt>
      <trkpt lat="43.45138" lon="5.78695">
        <ele>610.7</ele>
        <time>2011-02-25T13:02:47Z</time>
      </trkpt>
      <trkpt lat="43.45137" lon="5.78678">
        <ele>611.7</ele>
        <time>2011-02-25T13:02:57Z</time>
      </trkpt>
      <trkpt lat="43.45137" lon="5.78676">
        <ele>611.9</ele>
        <time>2011-02-25T13:02:58Z</time>
      </trkpt>
      <trkpt lat="43.4514" lon="5.78648">
        <ele>613.5</ele>
        <time>2011-02-25T13:03:17Z</time>
      </trkpt>
      <trkpt lat="43.45148" lon="5.78637">
        <ele>614</ele>
        <time>2011-02-25T13:03:27Z</time>
      </trkpt>
      <trkpt lat="43.45153" lon="5.78623">
        <ele>614.4</ele>
        <time>2011-02-25T13:03:37Z</time>
      </trkpt>
      <trkpt lat="43.45154" lon="5.78606">
        <ele>614.7</ele>
        <time>2011-02-25T13:03:47Z</time>
      </trkpt>
      <trkpt lat="43.45155" lon="5.78588">
        <ele>615</ele>
        <time>2011-02-25T13:03:57Z</time>
      </trkpt>
      <trkpt lat="43.45158" lon="5.78573">
        <ele>615.4</ele>
        <time>2011-02-25T13:04:07Z</time>
      </trkpt>
      <trkpt lat="43.45158" lon="5.78571">
        <ele>615.5</ele>
        <time>2011-02-25T13:04:08Z</time>
      </trkpt>
      <trkpt lat="43.45163" lon="5.78545">
        <ele>616</ele>
        <time>2011-02-25T13:04:27Z</time>
      </trkpt>
      <trkpt lat="43.45162" lon="5.7853">
        <ele>616.2</ele>
        <time>2011-02-25T13:04:37Z</time>
      </trkpt>
      <trkpt lat="43.45159" lon="5.78516">
        <ele>616.4</ele>
        <time>2011-02-25T13:04:47Z</time>
      </trkpt>
      <trkpt lat="43.45158" lon="5.78504">
        <ele>616.4</ele>
        <time>2011-02-25T13:04:57Z</time>
      </trkpt>
      <trkpt lat="43.45158" lon="5.78489">
        <ele>616</ele>
        <time>2011-02-25T13:05:07Z</time>
      </trkpt>
      <trkpt lat="43.45163" lon="5.78474">
        <ele>615.7</ele>
        <time>2011-02-25T13:05:17Z</time>
      </trkpt>
      <trkpt lat="43.45163" lon="5.78472">
        <ele>615.5</ele>
        <time>2011-02-25T13:05:18Z</time>
      </trkpt>
      <trkpt lat="43.4516" lon="5.78439">
        <ele>615.2</ele>
        <time>2011-02-25T13:05:37Z</time>
      </trkpt>
      <trkpt lat="43.45168" lon="5.78427">
        <ele>615.2</ele>
        <time>2011-02-25T13:05:47Z</time>
      </trkpt>
      <trkpt lat="43.45178" lon="5.78421">
        <ele>615.4</ele>
        <time>2011-02-25T13:05:57Z</time>
      </trkpt>
      <trkpt lat="43.45184" lon="5.78406">
        <ele>615.5</ele>
        <time>2011-02-25T13:06:07Z</time>
      </trkpt>
      <trkpt lat="43.45186" lon="5.78392">
        <ele>615.5</ele>
        <time>2011-02-25T13:06:17Z</time>
      </trkpt>
      <trkpt lat="43.45192" lon="5.78377">
        <ele>615.4</ele>
        <time>2011-02-25T13:06:27Z</time>
      </trkpt>
      <trkpt lat="43.45192" lon="5.78376">
        <ele>615.4</ele>
        <time>2011-02-25T13:06:28Z</time>
      </trkpt>
      <trkpt lat="43.45204" lon="5.78377">
        <ele>615.2</ele>
        <time>2011-02-25T13:06:47Z</time>
      </trkpt>
      <trkpt lat="43.45207" lon="5.78377">
        <ele>615.2</ele>
        <time>2011-02-25T13:06:57Z</time>
      </trkpt>
      <trkpt lat="43.45214" lon="5.78377">
        <ele>614.9</ele>
        <time>2011-02-25T13:07:07Z</time>
      </trkpt>
      <trkpt lat="43.45223" lon="5.78379">
        <ele>614.7</ele>
        <time>2011-02-25T13:07:17Z</time>
      </trkpt>
      <trkpt lat="43.45235" lon="5.78375">
        <ele>614.5</ele>
        <time>2011-02-25T13:07:27Z</time>
      </trkpt>
      <trkpt lat="43.45245" lon="5.78365">
        <ele>615</ele>
        <time>2011-02-25T13:07:37Z</time>
      </trkpt>
      <trkpt lat="43.45246" lon="5.78363">
        <ele>615</ele>
        <time>2011-02-25T13:07:38Z</time>
      </trkpt>
      <trkpt lat="43.45253" lon="5.78334">
        <ele>615.7</ele>
        <time>2011-02-25T13:07:57Z</time>
      </trkpt>
      <trkpt lat="43.45254" lon="5.78318">
        <ele>616</ele>
        <time>2011-02-25T13:08:07Z</time>
      </trkpt>
      <trkpt lat="43.45255" lon="5.78301">
        <ele>616.2</ele>
        <time>2011-02-25T13:08:17Z</time>
      </trkpt>
      <trkpt lat="43.45254" lon="5.78283">
        <ele>616.2</ele>
        <time>2011-02-25T13:08:27Z</time>
      </trkpt>
      <trkpt lat="43.45253" lon="5.78266">
        <ele>616.2</ele>
        <time>2011-02-25T13:08:37Z</time>
      </trkpt>
      <trkpt lat="43.4525" lon="5.78248">
        <ele>616.2</ele>
        <time>2011-02-25T13:08:47Z</time>
      </trkpt>
      <trkpt lat="43.45249" lon="5.78247">
        <ele>616.2</ele>
        <time>2011-02-25T13:08:48Z</time>
      </trkpt>
      <trkpt lat="43.45241" lon="5.78217">
        <ele>616</ele>
        <time>2011-02-25T13:09:07Z</time>
      </trkpt>
      <trkpt lat="43.45238" lon="5.78201">
        <ele>616</ele>
        <time>2011-02-25T13:09:17Z</time>
      </trkpt>
      <trkpt lat="43.45244" lon="5.78187">
        <ele>616</ele>
        <time>2011-02-25T13:09:27Z</time>
      </trkpt>
      <trkpt lat="43.45251" lon="5.78179">
        <ele>616</ele>
        <time>2011-02-25T13:09:37Z</time>
      </trkpt>
      <trkpt lat="43.4526" lon="5.78172">
        <ele>616.2</ele>
        <time>2011-02-25T13:09:47Z</time>
      </trkpt>
      <trkpt lat="43.4527" lon="5.78169">
        <ele>616.2</ele>
        <time>2011-02-25T13:09:57Z</time>
      </trkpt>
      <trkpt lat="43.4527" lon="5.78169">
        <ele>616.2</ele>
        <time>2011-02-25T13:09:58Z</time>
      </trkpt>
      <trkpt lat="43.45285" lon="5.78167">
        <ele>616.2</ele>
        <time>2011-02-25T13:10:17Z</time>
      </trkpt>
      <trkpt lat="43.45296" lon="5.78166">
        <ele>616.2</ele>
        <time>2011-02-25T13:10:27Z</time>
      </trkpt>
      <trkpt lat="43.45309" lon="5.78163">
        <ele>616</ele>
        <time>2011-02-25T13:10:37Z</time>
      </trkpt>
      <trkpt lat="43.45324" lon="5.7816">
        <ele>615.7</ele>
        <time>2011-02-25T13:10:47Z</time>
      </trkpt>
      <trkpt lat="43.45336" lon="5.78151">
        <ele>615.7</ele>
        <time>2011-02-25T13:10:57Z</time>
      </trkpt>
      <trkpt lat="43.45337" lon="5.7815">
        <ele>615.7</ele>
        <time>2011-02-25T13:10:58Z</time>
      </trkpt>
      <trkpt lat="43.45351" lon="5.78129">
        <ele>615.5</ele>
        <time>2011-02-25T13:11:17Z</time>
      </trkpt>
      <trkpt lat="43.45356" lon="5.78118">
        <ele>615.9</ele>
        <time>2011-02-25T13:11:27Z</time>
      </trkpt>
      <trkpt lat="43.45357" lon="5.78106">
        <ele>616.4</ele>
        <time>2011-02-25T13:11:37Z</time>
      </trkpt>
      <trkpt lat="43.45357" lon="5.78089">
        <ele>616.5</ele>
        <time>2011-02-25T13:11:47Z</time>
      </trkpt>
      <trkpt lat="43.45355" lon="5.78073">
        <ele>616.9</ele>
        <time>2011-02-25T13:11:57Z</time>
      </trkpt>
      <trkpt lat="43.45351" lon="5.78059">
        <ele>617</ele>
        <time>2011-02-25T13:12:07Z</time>
      </trkpt>
      <trkpt lat="43.4535" lon="5.78058">
        <ele>617</ele>
        <time>2011-02-25T13:12:08Z</time>
      </trkpt>
      <trkpt lat="43.45347" lon="5.78034">
        <ele>616.5</ele>
        <time>2011-02-25T13:12:27Z</time>
      </trkpt>
      <trkpt lat="43.45345" lon="5.78022">
        <ele>616.2</ele>
        <time>2011-02-25T13:12:37Z</time>
      </trkpt>
      <trkpt lat="43.4535" lon="5.78016">
        <ele>615.9</ele>
        <time>2011-02-25T13:12:47Z</time>
      </trkpt>
      <trkpt lat="43.45354" lon="5.78022">
        <ele>615.5</ele>
        <time>2011-02-25T13:12:57Z</time>
      </trkpt>
      <trkpt lat="43.4535" lon="5.7802">
        <ele>615.5</ele>
        <time>2011-02-25T13:13:07Z</time>
      </trkpt>
      <trkpt lat="43.45345" lon="5.78016">
        <ele>615.5</ele>
        <time>2011-02-25T13:13:17Z</time>
      </trkpt>
      <trkpt lat="43.45345" lon="5.78016">
        <ele>615.5</ele>
        <time>2011-02-25T13:13:18Z</time>
      </trkpt>
      <trkpt lat="43.45345" lon="5.78009">
        <ele>615.7</ele>
        <time>2011-02-25T13:13:37Z</time>
      </trkpt>
      <trkpt lat="43.45345" lon="5.78006">
        <ele>616</ele>
        <time>2011-02-25T13:13:47Z</time>
      </trkpt>
      <trkpt lat="43.45344" lon="5.78005">
        <ele>616</ele>
        <time>2011-02-25T13:13:57Z</time>
      </trkpt>
      <trkpt lat="43.45344" lon="5.77996">
        <ele>617</ele>
        <time>2011-02-25T13:14:07Z</time>
      </trkpt>
      <trkpt lat="43.45345" lon="5.77984">
        <ele>617.5</ele>
        <time>2011-02-25T13:14:17Z</time>
      </trkpt>
      <trkpt lat="43.45349" lon="5.77971">
        <ele>618</ele>
        <time>2011-02-25T13:14:27Z</time>
      </trkpt>
      <trkpt lat="43.4535" lon="5.7797">
        <ele>618.2</ele>
        <time>2011-02-25T13:14:28Z</time>
      </trkpt>
      <trkpt lat="43.45358" lon="5.77963">
        <ele>619</ele>
        <time>2011-02-25T13:14:47Z</time>
      </trkpt>
      <trkpt lat="43.45358" lon="5.77964">
        <ele>619.5</ele>
        <time>2011-02-25T13:14:57Z</time>
      </trkpt>
      <trkpt lat="43.45364" lon="5.77959">
        <ele>620.2</ele>
        <time>2011-02-25T13:15:07Z</time>
      </trkpt>
      <trkpt lat="43.45372" lon="5.7795">
        <ele>620.7</ele>
        <time>2011-02-25T13:15:17Z</time>
      </trkpt>
      <trkpt lat="43.45379" lon="5.77941">
        <ele>621.2</ele>
        <time>2011-02-25T13:15:27Z</time>
      </trkpt>
      <trkpt lat="43.45386" lon="5.77935">
        <ele>621.5</ele>
        <time>2011-02-25T13:15:37Z</time>
      </trkpt>
      <trkpt lat="43.45387" lon="5.77934">
        <ele>621.5</ele>
        <time>2011-02-25T13:15:38Z</time>
      </trkpt>
      <trkpt lat="43.45397" lon="5.77931">
        <ele>621.7</ele>
        <time>2011-02-25T13:15:57Z</time>
      </trkpt>
      <trkpt lat="43.45409" lon="5.77929">
        <ele>622.4</ele>
        <time>2011-02-25T13:16:07Z</time>
      </trkpt>
      <trkpt lat="43.4542" lon="5.77926">
        <ele>622.9</ele>
        <time>2011-02-25T13:16:17Z</time>
      </trkpt>
      <trkpt lat="43.45428" lon="5.7792">
        <ele>623.2</ele>
        <time>2011-02-25T13:16:27Z</time>
      </trkpt>
      <trkpt lat="43.45433" lon="5.7791">
        <ele>623.5</ele>
        <time>2011-02-25T13:16:37Z</time>
      </trkpt>
      <trkpt lat="43.45433" lon="5.77908">
        <ele>623.5</ele>
        <time>2011-02-25T13:16:38Z</time>
      </trkpt>
      <trkpt lat="43.4544" lon="5.77888">
        <ele>624</ele>
        <time>2011-02-25T13:16:57Z</time>
      </trkpt>
      <trkpt lat="43.45445" lon="5.77876">
        <ele>624</ele>
        <time>2011-02-25T13:17:07Z</time>
      </trkpt>
      <trkpt lat="43.45449" lon="5.77859">
        <ele>624.5</ele>
        <time>2011-02-25T13:17:17Z</time>
      </trkpt>
      <trkpt lat="43.45453" lon="5.77843">
        <ele>625.2</ele>
        <time>2011-02-25T13:17:27Z</time>
      </trkpt>
      <trkpt lat="43.45455" lon="5.77828">
        <ele>626</ele>
        <time>2011-02-25T13:17:37Z</time>
      </trkpt>
      <trkpt lat="43.45461" lon="5.77816">
        <ele>626.7</ele>
        <time>2011-02-25T13:17:47Z</time>
      </trkpt>
      <trkpt lat="43.45461" lon="5.77815">
        <ele>626.7</ele>
        <time>2011-02-25T13:17:48Z</time>
      </trkpt>
      <trkpt lat="43.45462" lon="5.77813">
        <ele>627</ele>
        <time>2011-02-25T13:18:07Z</time>
      </trkpt>
      <trkpt lat="43.45463" lon="5.77807">
        <ele>627.2</ele>
        <time>2011-02-25T13:18:17Z</time>
      </trkpt>
      <trkpt lat="43.45469" lon="5.7781">
        <ele>627.5</ele>
        <time>2011-02-25T13:18:27Z</time>
      </trkpt>
      <trkpt lat="43.45474" lon="5.77813">
        <ele>627.7</ele>
        <time>2011-02-25T13:18:37Z</time>
      </trkpt>
      <trkpt lat="43.45472" lon="5.77811">
        <ele>628</ele>
        <time>2011-02-25T13:18:47Z</time>
      </trkpt>
      <trkpt lat="43.45469" lon="5.77808">
        <ele>628.4</ele>
        <time>2011-02-25T13:18:57Z</time>
      </trkpt>
      <trkpt lat="43.45469" lon="5.77808">
        <ele>628.4</ele>
        <time>2011-02-25T13:18:58Z</time>
      </trkpt>
      <trkpt lat="43.45469" lon="5.77802">
        <ele>630.2</ele>
        <time>2011-02-25T13:19:17Z</time>
      </trkpt>
      <trkpt lat="43.45468" lon="5.77807">
        <ele>631.2</ele>
        <time>2011-02-25T13:19:27Z</time>
      </trkpt>
      <trkpt lat="43.45469" lon="5.77808">
        <ele>631.4</ele>
        <time>2011-02-25T13:19:37Z</time>
      </trkpt>
      <trkpt lat="43.4547" lon="5.77809">
        <ele>631.5</ele>
        <time>2011-02-25T13:19:47Z</time>
      </trkpt>
      <trkpt lat="43.45469" lon="5.77804">
        <ele>632.2</ele>
        <time>2011-02-25T13:19:57Z</time>
      </trkpt>
      <trkpt lat="43.45471" lon="5.77793">
        <ele>633.5</ele>
        <time>2011-02-25T13:20:07Z</time>
      </trkpt>
      <trkpt lat="43.45471" lon="5.77792">
        <ele>633.7</ele>
        <time>2011-02-25T13:20:08Z</time>
      </trkpt>
      <trkpt lat="43.45481" lon="5.77766">
        <ele>635</ele>
        <time>2011-02-25T13:20:27Z</time>
      </trkpt>
      <trkpt lat="43.45485" lon="5.77754">
        <ele>635.2</ele>
        <time>2011-02-25T13:20:37Z</time>
      </trkpt>
      <trkpt lat="43.4549" lon="5.77741">
        <ele>635</ele>
        <time>2011-02-25T13:20:47Z</time>
      </trkpt>
      <trkpt lat="43.45496" lon="5.77731">
        <ele>634.9</ele>
        <time>2011-02-25T13:20:57Z</time>
      </trkpt>
      <trkpt lat="43.45502" lon="5.77721">
        <ele>634.5</ele>
        <time>2011-02-25T13:21:07Z</time>
      </trkpt>
      <trkpt lat="43.45507" lon="5.77704">
        <ele>634.4</ele>
        <time>2011-02-25T13:21:17Z</time>
      </trkpt>
      <trkpt lat="43.45508" lon="5.77702">
        <ele>634.4</ele>
        <time>2011-02-25T13:21:18Z</time>
      </trkpt>
      <trkpt lat="43.45514" lon="5.77668">
        <ele>633.7</ele>
        <time>2011-02-25T13:21:37Z</time>
      </trkpt>
      <trkpt lat="43.45517" lon="5.7765">
        <ele>633.4</ele>
        <time>2011-02-25T13:21:47Z</time>
      </trkpt>
      <trkpt lat="43.45521" lon="5.77633">
        <ele>633</ele>
        <time>2011-02-25T13:21:57Z</time>
      </trkpt>
      <trkpt lat="43.45525" lon="5.77614">
        <ele>632.9</ele>
        <time>2011-02-25T13:22:07Z</time>
      </trkpt>
      <trkpt lat="43.4553" lon="5.77598">
        <ele>632.5</ele>
        <time>2011-02-25T13:22:17Z</time>
      </trkpt>
      <trkpt lat="43.45539" lon="5.77585">
        <ele>632.5</ele>
        <time>2011-02-25T13:22:27Z</time>
      </trkpt>
      <trkpt lat="43.4554" lon="5.77584">
        <ele>632.5</ele>
        <time>2011-02-25T13:22:28Z</time>
      </trkpt>
      <trkpt lat="43.45563" lon="5.77574">
        <ele>632.2</ele>
        <time>2011-02-25T13:22:47Z</time>
      </trkpt>
      <trkpt lat="43.45575" lon="5.77567">
        <ele>632.2</ele>
        <time>2011-02-25T13:22:57Z</time>
      </trkpt>
      <trkpt lat="43.45587" lon="5.77561">
        <ele>632</ele>
        <time>2011-02-25T13:23:07Z</time>
      </trkpt>
      <trkpt lat="43.45599" lon="5.77555">
        <ele>632</ele>
        <time>2011-02-25T13:23:17Z</time>
      </trkpt>
      <trkpt lat="43.4561" lon="5.7755">
        <ele>632.2</ele>
        <time>2011-02-25T13:23:27Z</time>
      </trkpt>
      <trkpt lat="43.45621" lon="5.77546">
        <ele>632.2</ele>
        <time>2011-02-25T13:23:37Z</time>
      </trkpt>
      <trkpt lat="43.45622" lon="5.77546">
        <ele>632.4</ele>
        <time>2011-02-25T13:23:38Z</time>
      </trkpt>
      <trkpt lat="43.45645" lon="5.77539">
        <ele>632.5</ele>
        <time>2011-02-25T13:23:57Z</time>
      </trkpt>
      <trkpt lat="43.45659" lon="5.77538">
        <ele>632.7</ele>
        <time>2011-02-25T13:24:07Z</time>
      </trkpt>
      <trkpt lat="43.45671" lon="5.77539">
        <ele>632.7</ele>
        <time>2011-02-25T13:24:17Z</time>
      </trkpt>
      <trkpt lat="43.45683" lon="5.77545">
        <ele>632.5</ele>
        <time>2011-02-25T13:24:27Z</time>
      </trkpt>
      <trkpt lat="43.45695" lon="5.77551">
        <ele>632.2</ele>
        <time>2011-02-25T13:24:37Z</time>
      </trkpt>
      <trkpt lat="43.45696" lon="5.77552">
        <ele>632.2</ele>
        <time>2011-02-25T13:24:38Z</time>
      </trkpt>
      <trkpt lat="43.45711" lon="5.77574">
        <ele>631</ele>
        <time>2011-02-25T13:24:57Z</time>
      </trkpt>
      <trkpt lat="43.45717" lon="5.77587">
        <ele>629.7</ele>
        <time>2011-02-25T13:25:07Z</time>
      </trkpt>
      <trkpt lat="43.45723" lon="5.77603">
        <ele>628.4</ele>
        <time>2011-02-25T13:25:17Z</time>
      </trkpt>
      <trkpt lat="43.45728" lon="5.77617">
        <ele>627</ele>
        <time>2011-02-25T13:25:27Z</time>
      </trkpt>
      <trkpt lat="43.45734" lon="5.77631">
        <ele>625.7</ele>
        <time>2011-02-25T13:25:37Z</time>
      </trkpt>
      <trkpt lat="43.45744" lon="5.77648">
        <ele>624</ele>
        <time>2011-02-25T13:25:47Z</time>
      </trkpt>
      <trkpt lat="43.45745" lon="5.77649">
        <ele>623.7</ele>
        <time>2011-02-25T13:25:48Z</time>
      </trkpt>
      <trkpt lat="43.45771" lon="5.77645">
        <ele>620.9</ele>
        <time>2011-02-25T13:26:07Z</time>
      </trkpt>
      <trkpt lat="43.45779" lon="5.77629">
        <ele>619.9</ele>
        <time>2011-02-25T13:26:17Z</time>
      </trkpt>
      <trkpt lat="43.45785" lon="5.77614">
        <ele>619.4</ele>
        <time>2011-02-25T13:26:27Z</time>
      </trkpt>
      <trkpt lat="43.45789" lon="5.776">
        <ele>619</ele>
        <time>2011-02-25T13:26:37Z</time>
      </trkpt>
      <trkpt lat="43.45794" lon="5.77585">
        <ele>618.5</ele>
        <time>2011-02-25T13:26:47Z</time>
      </trkpt>
      <trkpt lat="43.45798" lon="5.77569">
        <ele>618.2</ele>
        <time>2011-02-25T13:26:57Z</time>
      </trkpt>
      <trkpt lat="43.45799" lon="5.77567">
        <ele>618.2</ele>
        <time>2011-02-25T13:26:58Z</time>
      </trkpt>
      <trkpt lat="43.45809" lon="5.77537">
        <ele>618</ele>
        <time>2011-02-25T13:27:17Z</time>
      </trkpt>
      <trkpt lat="43.45818" lon="5.77524">
        <ele>618</ele>
        <time>2011-02-25T13:27:27Z</time>
      </trkpt>
      <trkpt lat="43.45827" lon="5.77511">
        <ele>618</ele>
        <time>2011-02-25T13:27:37Z</time>
      </trkpt>
      <trkpt lat="43.45835" lon="5.77498">
        <ele>617.9</ele>
        <time>2011-02-25T13:27:47Z</time>
      </trkpt>
      <trkpt lat="43.45843" lon="5.77485">
        <ele>617.5</ele>
        <time>2011-02-25T13:27:57Z</time>
      </trkpt>
      <trkpt lat="43.45852" lon="5.77472">
        <ele>617.4</ele>
        <time>2011-02-25T13:28:07Z</time>
      </trkpt>
      <trkpt lat="43.45853" lon="5.7747">
        <ele>617.4</ele>
        <time>2011-02-25T13:28:08Z</time>
      </trkpt>
      <trkpt lat="43.45869" lon="5.77443">
        <ele>617</ele>
        <time>2011-02-25T13:28:27Z</time>
      </trkpt>
      <trkpt lat="43.45876" lon="5.77426">
        <ele>616.9</ele>
        <time>2011-02-25T13:28:37Z</time>
      </trkpt>
      <trkpt lat="43.45884" lon="5.77411">
        <ele>616.9</ele>
        <time>2011-02-25T13:28:47Z</time>
      </trkpt>
      <trkpt lat="43.45889" lon="5.77395">
        <ele>616.7</ele>
        <time>2011-02-25T13:28:57Z</time>
      </trkpt>
      <trkpt lat="43.45889" lon="5.77377">
        <ele>616</ele>
        <time>2011-02-25T13:29:07Z</time>
      </trkpt>
      <trkpt lat="43.45885" lon="5.77358">
        <ele>614.5</ele>
        <time>2011-02-25T13:29:17Z</time>
      </trkpt>
      <trkpt lat="43.45885" lon="5.77356">
        <ele>614.4</ele>
        <time>2011-02-25T13:29:18Z</time>
      </trkpt>
      <trkpt lat="43.45877" lon="5.77317">
        <ele>610.5</ele>
        <time>2011-02-25T13:29:37Z</time>
      </trkpt>
      <trkpt lat="43.45869" lon="5.77299">
        <ele>608.2</ele>
        <time>2011-02-25T13:29:47Z</time>
      </trkpt>
      <trkpt lat="43.45867" lon="5.77282">
        <ele>606.2</ele>
        <time>2011-02-25T13:29:57Z</time>
      </trkpt>
      <trkpt lat="43.45865" lon="5.77266">
        <ele>604.4</ele>
        <time>2011-02-25T13:30:07Z</time>
      </trkpt>
      <trkpt lat="43.45864" lon="5.77249">
        <ele>602.4</ele>
        <time>2011-02-25T13:30:17Z</time>
      </trkpt>
      <trkpt lat="43.45862" lon="5.77236">
        <ele>600.9</ele>
        <time>2011-02-25T13:30:27Z</time>
      </trkpt>
      <trkpt lat="43.45862" lon="5.77237">
        <ele>600.9</ele>
        <time>2011-02-25T13:30:28Z</time>
      </trkpt>
      <trkpt lat="43.45862" lon="5.77217">
        <ele>598.5</ele>
        <time>2011-02-25T13:30:47Z</time>
      </trkpt>
      <trkpt lat="43.45862" lon="5.77202">
        <ele>597</ele>
        <time>2011-02-25T13:30:57Z</time>
      </trkpt>
      <trkpt lat="43.45864" lon="5.77185">
        <ele>595.7</ele>
        <time>2011-02-25T13:31:07Z</time>
      </trkpt>
      <trkpt lat="43.45865" lon="5.77184">
        <ele>595</ele>
        <time>2011-02-25T13:31:17Z</time>
      </trkpt>
      <trkpt lat="43.4587" lon="5.77175">
        <ele>593.7</ele>
        <time>2011-02-25T13:31:27Z</time>
      </trkpt>
      <trkpt lat="43.45876" lon="5.77167">
        <ele>592</ele>
        <time>2011-02-25T13:31:37Z</time>
      </trkpt>
      <trkpt lat="43.45876" lon="5.77167">
        <ele>592</ele>
        <time>2011-02-25T13:31:38Z</time>
      </trkpt>
      <trkpt lat="43.45879" lon="5.77158">
        <ele>590.4</ele>
        <time>2011-02-25T13:31:57Z</time>
      </trkpt>
      <trkpt lat="43.45887" lon="5.77148">
        <ele>588.7</ele>
        <time>2011-02-25T13:32:07Z</time>
      </trkpt>
      <trkpt lat="43.45895" lon="5.77138">
        <ele>587.5</ele>
        <time>2011-02-25T13:32:17Z</time>
      </trkpt>
      <trkpt lat="43.45904" lon="5.77127">
        <ele>586.2</ele>
        <time>2011-02-25T13:32:27Z</time>
      </trkpt>
      <trkpt lat="43.45913" lon="5.77125">
        <ele>585</ele>
        <time>2011-02-25T13:32:37Z</time>
      </trkpt>
      <trkpt lat="43.45914" lon="5.77122">
        <ele>584.9</ele>
        <time>2011-02-25T13:32:47Z</time>
      </trkpt>
      <trkpt lat="43.45914" lon="5.77122">
        <ele>584.9</ele>
        <time>2011-02-25T13:32:48Z</time>
      </trkpt>
      <trkpt lat="43.45916" lon="5.77129">
        <ele>583.9</ele>
        <time>2011-02-25T13:33:07Z</time>
      </trkpt>
      <trkpt lat="43.45919" lon="5.77141">
        <ele>582.5</ele>
        <time>2011-02-25T13:33:17Z</time>
      </trkpt>
      <trkpt lat="43.45922" lon="5.77154">
        <ele>581</ele>
        <time>2011-02-25T13:33:27Z</time>
      </trkpt>
      <trkpt lat="43.45926" lon="5.77168">
        <ele>579.7</ele>
        <time>2011-02-25T13:33:37Z</time>
      </trkpt>
      <trkpt lat="43.4593" lon="5.77183">
        <ele>578.5</ele>
        <time>2011-02-25T13:33:47Z</time>
      </trkpt>
      <trkpt lat="43.45936" lon="5.77199">
        <ele>577.2</ele>
        <time>2011-02-25T13:33:57Z</time>
      </trkpt>
      <trkpt lat="43.45936" lon="5.772">
        <ele>577.2</ele>
        <time>2011-02-25T13:33:58Z</time>
      </trkpt>
      <trkpt lat="43.45944" lon="5.77226">
        <ele>576</ele>
        <time>2011-02-25T13:34:17Z</time>
      </trkpt>
      <trkpt lat="43.4595" lon="5.7724">
        <ele>575.7</ele>
        <time>2011-02-25T13:34:27Z</time>
      </trkpt>
      <trkpt lat="43.45958" lon="5.77254">
        <ele>575</ele>
        <time>2011-02-25T13:34:37Z</time>
      </trkpt>
      <trkpt lat="43.45967" lon="5.77267">
        <ele>574.5</ele>
        <time>2011-02-25T13:34:47Z</time>
      </trkpt>
      <trkpt lat="43.45975" lon="5.77281">
        <ele>574</ele>
        <time>2011-02-25T13:34:57Z</time>
      </trkpt>
      <trkpt lat="43.45981" lon="5.77294">
        <ele>573.5</ele>
        <time>2011-02-25T13:35:07Z</time>
      </trkpt>
      <trkpt lat="43.45982" lon="5.77296">
        <ele>573.5</ele>
        <time>2011-02-25T13:35:08Z</time>
      </trkpt>
      <trkpt lat="43.45996" lon="5.77322">
        <ele>572.5</ele>
        <time>2011-02-25T13:35:27Z</time>
      </trkpt>
      <trkpt lat="43.45997" lon="5.77339">
        <ele>571.9</ele>
        <time>2011-02-25T13:35:37Z</time>
      </trkpt>
      <trkpt lat="43.46" lon="5.77357">
        <ele>571.2</ele>
        <time>2011-02-25T13:35:47Z</time>
      </trkpt>
      <trkpt lat="43.46007" lon="5.77374">
        <ele>570.5</ele>
        <time>2011-02-25T13:35:57Z</time>
      </trkpt>
      <trkpt lat="43.46013" lon="5.77387">
        <ele>569.9</ele>
        <time>2011-02-25T13:36:07Z</time>
      </trkpt>
      <trkpt lat="43.4602" lon="5.774">
        <ele>569.2</ele>
        <time>2011-02-25T13:36:17Z</time>
      </trkpt>
      <trkpt lat="43.46021" lon="5.77402">
        <ele>569.2</ele>
        <time>2011-02-25T13:36:18Z</time>
      </trkpt>
      <trkpt lat="43.46034" lon="5.77424">
        <ele>568.2</ele>
        <time>2011-02-25T13:36:37Z</time>
      </trkpt>
      <trkpt lat="43.46046" lon="5.77433">
        <ele>567.2</ele>
        <time>2011-02-25T13:36:47Z</time>
      </trkpt>
      <trkpt lat="43.46057" lon="5.77443">
        <ele>566.4</ele>
        <time>2011-02-25T13:36:57Z</time>
      </trkpt>
      <trkpt lat="43.46065" lon="5.77455">
        <ele>565.5</ele>
        <time>2011-02-25T13:37:07Z</time>
      </trkpt>
      <trkpt lat="43.46072" lon="5.77468">
        <ele>564.5</ele>
        <time>2011-02-25T13:37:17Z</time>
      </trkpt>
      <trkpt lat="43.46082" lon="5.77477">
        <ele>563.7</ele>
        <time>2011-02-25T13:37:27Z</time>
      </trkpt>
      <trkpt lat="43.46083" lon="5.77478">
        <ele>563.7</ele>
        <time>2011-02-25T13:37:28Z</time>
      </trkpt>
      <trkpt lat="43.46109" lon="5.77484">
        <ele>562.2</ele>
        <time>2011-02-25T13:37:47Z</time>
      </trkpt>
      <trkpt lat="43.46125" lon="5.77485">
        <ele>561.2</ele>
        <time>2011-02-25T13:37:57Z</time>
      </trkpt>
      <trkpt lat="43.46138" lon="5.7749">
        <ele>560.4</ele>
        <time>2011-02-25T13:38:07Z</time>
      </trkpt>
      <trkpt lat="43.46148" lon="5.775">
        <ele>559.4</ele>
        <time>2011-02-25T13:38:17Z</time>
      </trkpt>
      <trkpt lat="43.46153" lon="5.77515">
        <ele>558.5</ele>
        <time>2011-02-25T13:38:27Z</time>
      </trkpt>
      <trkpt lat="43.46152" lon="5.77529">
        <ele>557.5</ele>
        <time>2011-02-25T13:38:37Z</time>
      </trkpt>
      <trkpt lat="43.46152" lon="5.77531">
        <ele>557.5</ele>
        <time>2011-02-25T13:38:38Z</time>
      </trkpt>
      <trkpt lat="43.46154" lon="5.77554">
        <ele>555.7</ele>
        <time>2011-02-25T13:38:57Z</time>
      </trkpt>
      <trkpt lat="43.46161" lon="5.7756">
        <ele>554.2</ele>
        <time>2011-02-25T13:39:07Z</time>
      </trkpt>
      <trkpt lat="43.46167" lon="5.77563">
        <ele>553.2</ele>
        <time>2011-02-25T13:39:17Z</time>
      </trkpt>
      <trkpt lat="43.46178" lon="5.7756">
        <ele>551.7</ele>
        <time>2011-02-25T13:39:27Z</time>
      </trkpt>
      <trkpt lat="43.46187" lon="5.77546">
        <ele>550.2</ele>
        <time>2011-02-25T13:39:37Z</time>
      </trkpt>
      <trkpt lat="43.46191" lon="5.77532">
        <ele>548.9</ele>
        <time>2011-02-25T13:39:47Z</time>
      </trkpt>
      <trkpt lat="43.46191" lon="5.7753">
        <ele>548.7</ele>
        <time>2011-02-25T13:39:48Z</time>
      </trkpt>
      <trkpt lat="43.46184" lon="5.77505">
        <ele>546.5</ele>
        <time>2011-02-25T13:40:07Z</time>
      </trkpt>
      <trkpt lat="43.4618" lon="5.7749">
        <ele>545.4</ele>
        <time>2011-02-25T13:40:17Z</time>
      </trkpt>
      <trkpt lat="43.46176" lon="5.77473">
        <ele>544.2</ele>
        <time>2011-02-25T13:40:27Z</time>
      </trkpt>
      <trkpt lat="43.46174" lon="5.77455">
        <ele>543</ele>
        <time>2011-02-25T13:40:37Z</time>
      </trkpt>
      <trkpt lat="43.46171" lon="5.77439">
        <ele>541.7</ele>
        <time>2011-02-25T13:40:47Z</time>
      </trkpt>
      <trkpt lat="43.4617" lon="5.77437">
        <ele>541.5</ele>
        <time>2011-02-25T13:40:48Z</time>
      </trkpt>
      <trkpt lat="43.46155" lon="5.77409">
        <ele>538.9</ele>
        <time>2011-02-25T13:41:07Z</time>
      </trkpt>
      <trkpt lat="43.46148" lon="5.77395">
        <ele>538</ele>
        <time>2011-02-25T13:41:17Z</time>
      </trkpt>
      <trkpt lat="43.46142" lon="5.77381">
        <ele>537</ele>
        <time>2011-02-25T13:41:27Z</time>
      </trkpt>
      <trkpt lat="43.46133" lon="5.77361">
        <ele>536</ele>
        <time>2011-02-25T13:41:37Z</time>
      </trkpt>
      <trkpt lat="43.46126" lon="5.77349">
        <ele>535.2</ele>
        <time>2011-02-25T13:41:47Z</time>
      </trkpt>
      <trkpt lat="43.46118" lon="5.77337">
        <ele>534.2</ele>
        <time>2011-02-25T13:41:57Z</time>
      </trkpt>
      <trkpt lat="43.46117" lon="5.77336">
        <ele>534.2</ele>
        <time>2011-02-25T13:41:58Z</time>
      </trkpt>
      <trkpt lat="43.46101" lon="5.77312">
        <ele>532.5</ele>
        <time>2011-02-25T13:42:17Z</time>
      </trkpt>
      <trkpt lat="43.461" lon="5.77294">
        <ele>531.5</ele>
        <time>2011-02-25T13:42:27Z</time>
      </trkpt>
      <trkpt lat="43.46097" lon="5.77274">
        <ele>530.2</ele>
        <time>2011-02-25T13:42:37Z</time>
      </trkpt>
      <trkpt lat="43.46097" lon="5.77265">
        <ele>529.2</ele>
        <time>2011-02-25T13:42:47Z</time>
      </trkpt>
      <trkpt lat="43.46103" lon="5.77252">
        <ele>527.7</ele>
        <time>2011-02-25T13:42:57Z</time>
      </trkpt>
      <trkpt lat="43.46104" lon="5.77234">
        <ele>526.2</ele>
        <time>2011-02-25T13:43:07Z</time>
      </trkpt>
      <trkpt lat="43.46104" lon="5.77233">
        <ele>526.2</ele>
        <time>2011-02-25T13:43:08Z</time>
      </trkpt>
      <trkpt lat="43.46102" lon="5.77199">
        <ele>523.5</ele>
        <time>2011-02-25T13:43:27Z</time>
      </trkpt>
      <trkpt lat="43.46104" lon="5.77183">
        <ele>522.4</ele>
        <time>2011-02-25T13:43:37Z</time>
      </trkpt>
      <trkpt lat="43.46103" lon="5.77165">
        <ele>521.2</ele>
        <time>2011-02-25T13:43:47Z</time>
      </trkpt>
      <trkpt lat="43.46099" lon="5.77151">
        <ele>520.2</ele>
        <time>2011-02-25T13:43:57Z</time>
      </trkpt>
      <trkpt lat="43.46093" lon="5.77136">
        <ele>519</ele>
        <time>2011-02-25T13:44:07Z</time>
      </trkpt>
      <trkpt lat="43.46094" lon="5.77119">
        <ele>518.2</ele>
        <time>2011-02-25T13:44:17Z</time>
      </trkpt>
      <trkpt lat="43.46095" lon="5.77119">
        <ele>518</ele>
        <time>2011-02-25T13:44:18Z</time>
      </trkpt>
      <trkpt lat="43.46112" lon="5.77135">
        <ele>516</ele>
        <time>2011-02-25T13:44:37Z</time>
      </trkpt>
      <trkpt lat="43.46122" lon="5.77141">
        <ele>515.2</ele>
        <time>2011-02-25T13:44:47Z</time>
      </trkpt>
      <trkpt lat="43.46131" lon="5.77149">
        <ele>514.2</ele>
        <time>2011-02-25T13:44:57Z</time>
      </trkpt>
      <trkpt lat="43.46139" lon="5.77157">
        <ele>513.5</ele>
        <time>2011-02-25T13:45:07Z</time>
      </trkpt>
      <trkpt lat="43.46147" lon="5.77166">
        <ele>512.7</ele>
        <time>2011-02-25T13:45:17Z</time>
      </trkpt>
      <trkpt lat="43.46158" lon="5.77168">
        <ele>511.7</ele>
        <time>2011-02-25T13:45:27Z</time>
      </trkpt>
      <trkpt lat="43.46159" lon="5.77168">
        <ele>511.6</ele>
        <time>2011-02-25T13:45:28Z</time>
      </trkpt>
      <trkpt lat="43.46163" lon="5.77139">
        <ele>508.7</ele>
        <time>2011-02-25T13:45:47Z</time>
      </trkpt>
      <trkpt lat="43.46159" lon="5.77121">
        <ele>507.2</ele>
        <time>2011-02-25T13:45:57Z</time>
      </trkpt>
      <trkpt lat="43.46155" lon="5.77104">
        <ele>505.7</ele>
        <time>2011-02-25T13:46:07Z</time>
      </trkpt>
      <trkpt lat="43.46152" lon="5.77087">
        <ele>504.2</ele>
        <time>2011-02-25T13:46:17Z</time>
      </trkpt>
      <trkpt lat="43.46151" lon="5.7707">
        <ele>503.1</ele>
        <time>2011-02-25T13:46:27Z</time>
      </trkpt>
      <trkpt lat="43.46152" lon="5.77053">
        <ele>502.1</ele>
        <time>2011-02-25T13:46:37Z</time>
      </trkpt>
      <trkpt lat="43.46152" lon="5.77051">
        <ele>502</ele>
        <time>2011-02-25T13:46:38Z</time>
      </trkpt>
      <trkpt lat="43.46154" lon="5.77019">
        <ele>499.6</ele>
        <time>2011-02-25T13:46:57Z</time>
      </trkpt>
      <trkpt lat="43.46149" lon="5.77004">
        <ele>498.2</ele>
        <time>2011-02-25T13:47:07Z</time>
      </trkpt>
      <trkpt lat="43.4614" lon="5.7699">
        <ele>496.2</ele>
        <time>2011-02-25T13:47:17Z</time>
      </trkpt>
      <trkpt lat="43.46133" lon="5.76976">
        <ele>494.2</ele>
        <time>2011-02-25T13:47:27Z</time>
      </trkpt>
      <trkpt lat="43.46128" lon="5.76968">
        <ele>492.7</ele>
        <time>2011-02-25T13:47:37Z</time>
      </trkpt>
      <trkpt lat="43.46128" lon="5.76967">
        <ele>492.5</ele>
        <time>2011-02-25T13:47:38Z</time>
      </trkpt>
      <trkpt lat="43.4612" lon="5.76937">
        <ele>489.2</ele>
        <time>2011-02-25T13:47:57Z</time>
      </trkpt>
      <trkpt lat="43.46116" lon="5.76923">
        <ele>488.1</ele>
        <time>2011-02-25T13:48:07Z</time>
      </trkpt>
      <trkpt lat="43.46106" lon="5.7691">
        <ele>486.7</ele>
        <time>2011-02-25T13:48:17Z</time>
      </trkpt>
      <trkpt lat="43.46096" lon="5.76899">
        <ele>485.7</ele>
        <time>2011-02-25T13:48:27Z</time>
      </trkpt>
      <trkpt lat="43.46086" lon="5.7689">
        <ele>485.1</ele>
        <time>2011-02-25T13:48:37Z</time>
      </trkpt>
      <trkpt lat="43.46074" lon="5.76881">
        <ele>484.5</ele>
        <time>2011-02-25T13:48:47Z</time>
      </trkpt>
      <trkpt lat="43.46073" lon="5.7688">
        <ele>484.5</ele>
        <time>2011-02-25T13:48:48Z</time>
      </trkpt>
      <trkpt lat="43.46053" lon="5.76858">
        <ele>483.2</ele>
        <time>2011-02-25T13:49:07Z</time>
      </trkpt>
      <trkpt lat="43.46043" lon="5.76842">
        <ele>482.5</ele>
        <time>2011-02-25T13:49:17Z</time>
      </trkpt>
      <trkpt lat="43.46034" lon="5.76833">
        <ele>481.5</ele>
        <time>2011-02-25T13:49:27Z</time>
      </trkpt>
      <trkpt lat="43.46024" lon="5.76828">
        <ele>480.7</ele>
        <time>2011-02-25T13:49:37Z</time>
      </trkpt>
      <trkpt lat="43.46014" lon="5.76824">
        <ele>480.1</ele>
        <time>2011-02-25T13:49:47Z</time>
      </trkpt>
      <trkpt lat="43.46005" lon="5.7682">
        <ele>479.6</ele>
        <time>2011-02-25T13:49:57Z</time>
      </trkpt>
      <trkpt lat="43.46004" lon="5.7682">
        <ele>479.6</ele>
        <time>2011-02-25T13:49:58Z</time>
      </trkpt>
      <trkpt lat="43.45987" lon="5.76807">
        <ele>478.2</ele>
        <time>2011-02-25T13:50:17Z</time>
      </trkpt>
      <trkpt lat="43.45979" lon="5.76793">
        <ele>477.7</ele>
        <time>2011-02-25T13:50:27Z</time>
      </trkpt>
      <trkpt lat="43.45973" lon="5.76775">
        <ele>477</ele>
        <time>2011-02-25T13:50:37Z</time>
      </trkpt>
      <trkpt lat="43.45972" lon="5.76756">
        <ele>475.7</ele>
        <time>2011-02-25T13:50:47Z</time>
      </trkpt>
      <trkpt lat="43.45981" lon="5.76746">
        <ele>473.7</ele>
        <time>2011-02-25T13:50:57Z</time>
      </trkpt>
      <trkpt lat="43.45991" lon="5.76748">
        <ele>471.6</ele>
        <time>2011-02-25T13:51:07Z</time>
      </trkpt>
      <trkpt lat="43.45992" lon="5.76749">
        <ele>471.2</ele>
        <time>2011-02-25T13:51:08Z</time>
      </trkpt>
      <trkpt lat="43.46009" lon="5.76755">
        <ele>468.5</ele>
        <time>2011-02-25T13:51:27Z</time>
      </trkpt>
      <trkpt lat="43.4602" lon="5.7676">
        <ele>467.2</ele>
        <time>2011-02-25T13:51:37Z</time>
      </trkpt>
      <trkpt lat="43.46035" lon="5.76762">
        <ele>466.2</ele>
        <time>2011-02-25T13:51:47Z</time>
      </trkpt>
      <trkpt lat="43.46049" lon="5.76757">
        <ele>465</ele>
        <time>2011-02-25T13:51:57Z</time>
      </trkpt>
      <trkpt lat="43.46062" lon="5.76749">
        <ele>463.2</ele>
        <time>2011-02-25T13:52:07Z</time>
      </trkpt>
      <trkpt lat="43.46063" lon="5.76747">
        <ele>463.2</ele>
        <time>2011-02-25T13:52:08Z</time>
      </trkpt>
      <trkpt lat="43.46076" lon="5.76715">
        <ele>460.2</ele>
        <time>2011-02-25T13:52:27Z</time>
      </trkpt>
      <trkpt lat="43.46083" lon="5.76701">
        <ele>458.7</ele>
        <time>2011-02-25T13:52:37Z</time>
      </trkpt>
      <trkpt lat="43.46093" lon="5.76691">
        <ele>457.2</ele>
        <time>2011-02-25T13:52:47Z</time>
      </trkpt>
      <trkpt lat="43.46102" lon="5.76679">
        <ele>455.7</ele>
        <time>2011-02-25T13:52:57Z</time>
      </trkpt>
      <trkpt lat="43.4611" lon="5.7667">
        <ele>454.2</ele>
        <time>2011-02-25T13:53:07Z</time>
      </trkpt>
      <trkpt lat="43.46099" lon="5.76656">
        <ele>451.6</ele>
        <time>2011-02-25T13:53:17Z</time>
      </trkpt>
      <trkpt lat="43.46097" lon="5.76655">
        <ele>451.2</ele>
        <time>2011-02-25T13:53:18Z</time>
      </trkpt>
      <trkpt lat="43.46071" lon="5.76646">
        <ele>447.7</ele>
        <time>2011-02-25T13:53:37Z</time>
      </trkpt>
      <trkpt lat="43.46057" lon="5.76646">
        <ele>446.7</ele>
        <time>2011-02-25T13:53:47Z</time>
      </trkpt>
      <trkpt lat="43.46044" lon="5.76649">
        <ele>445.7</ele>
        <time>2011-02-25T13:53:57Z</time>
      </trkpt>
      <trkpt lat="43.46032" lon="5.76648">
        <ele>445.2</ele>
        <time>2011-02-25T13:54:07Z</time>
      </trkpt>
      <trkpt lat="43.4602" lon="5.76643">
        <ele>444.7</ele>
        <time>2011-02-25T13:54:17Z</time>
      </trkpt>
      <trkpt lat="43.46007" lon="5.7664">
        <ele>444.6</ele>
        <time>2011-02-25T13:54:27Z</time>
      </trkpt>
      <trkpt lat="43.46006" lon="5.7664">
        <ele>444.5</ele>
        <time>2011-02-25T13:54:28Z</time>
      </trkpt>
      <trkpt lat="43.4598" lon="5.76638">
        <ele>442.6</ele>
        <time>2011-02-25T13:54:47Z</time>
      </trkpt>
      <trkpt lat="43.45967" lon="5.76637">
        <ele>441.5</ele>
        <time>2011-02-25T13:54:57Z</time>
      </trkpt>
      <trkpt lat="43.45952" lon="5.76636">
        <ele>440.7</ele>
        <time>2011-02-25T13:55:07Z</time>
      </trkpt>
      <trkpt lat="43.4594" lon="5.76638">
        <ele>440.2</ele>
        <time>2011-02-25T13:55:17Z</time>
      </trkpt>
      <trkpt lat="43.45928" lon="5.76644">
        <ele>439.7</ele>
        <time>2011-02-25T13:55:27Z</time>
      </trkpt>
      <trkpt lat="43.45927" lon="5.76644">
        <ele>439.7</ele>
        <time>2011-02-25T13:55:28Z</time>
      </trkpt>
      <trkpt lat="43.45906" lon="5.76652">
        <ele>438.7</ele>
        <time>2011-02-25T13:55:47Z</time>
      </trkpt>
      <trkpt lat="43.45896" lon="5.76657">
        <ele>438.2</ele>
        <time>2011-02-25T13:55:57Z</time>
      </trkpt>
      <trkpt lat="43.45883" lon="5.76668">
        <ele>437.7</ele>
        <time>2011-02-25T13:56:07Z</time>
      </trkpt>
      <trkpt lat="43.45874" lon="5.76681">
        <ele>437.2</ele>
        <time>2011-02-25T13:56:17Z</time>
      </trkpt>
      <trkpt lat="43.45866" lon="5.76692">
        <ele>436.7</ele>
        <time>2011-02-25T13:56:27Z</time>
      </trkpt>
      <trkpt lat="43.45858" lon="5.76703">
        <ele>436.2</ele>
        <time>2011-02-25T13:56:37Z</time>
      </trkpt>
      <trkpt lat="43.45857" lon="5.76704">
        <ele>436.2</ele>
        <time>2011-02-25T13:56:38Z</time>
      </trkpt>
      <trkpt lat="43.45844" lon="5.76724">
        <ele>435.6</ele>
        <time>2011-02-25T13:56:57Z</time>
      </trkpt>
      <trkpt lat="43.45837" lon="5.76738">
        <ele>435.2</ele>
        <time>2011-02-25T13:57:07Z</time>
      </trkpt>
      <trkpt lat="43.4583" lon="5.76752">
        <ele>434.7</ele>
        <time>2011-02-25T13:57:17Z</time>
      </trkpt>
      <trkpt lat="43.45822" lon="5.76761">
        <ele>434.2</ele>
        <time>2011-02-25T13:57:27Z</time>
      </trkpt>
      <trkpt lat="43.45811" lon="5.76765">
        <ele>433.7</ele>
        <time>2011-02-25T13:57:37Z</time>
      </trkpt>
      <trkpt lat="43.45805" lon="5.76767">
        <ele>433.5</ele>
        <time>2011-02-25T13:57:47Z</time>
      </trkpt>
      <trkpt lat="43.45805" lon="5.76767">
        <ele>433.5</ele>
        <time>2011-02-25T13:57:48Z</time>
      </trkpt>
      <trkpt lat="43.45796" lon="5.76765">
        <ele>433.6</ele>
        <time>2011-02-25T13:58:07Z</time>
      </trkpt>
      <trkpt lat="43.45796" lon="5.76761">
        <ele>433.6</ele>
        <time>2011-02-25T13:58:17Z</time>
      </trkpt>
      <trkpt lat="43.45796" lon="5.76755">
        <ele>433.5</ele>
        <time>2011-02-25T13:58:27Z</time>
      </trkpt>
      <trkpt lat="43.45795" lon="5.76746">
        <ele>433.2</ele>
        <time>2011-02-25T13:58:37Z</time>
      </trkpt>
      <trkpt lat="43.45796" lon="5.76731">
        <ele>432.7</ele>
        <time>2011-02-25T13:58:47Z</time>
      </trkpt>
      <trkpt lat="43.45798" lon="5.76712">
        <ele>432.5</ele>
        <time>2011-02-25T13:58:57Z</time>
      </trkpt>
      <trkpt lat="43.45798" lon="5.76711">
        <ele>432.2</ele>
        <time>2011-02-25T13:58:58Z</time>
      </trkpt>
      <trkpt lat="43.458" lon="5.76676">
        <ele>431.2</ele>
        <time>2011-02-25T13:59:17Z</time>
      </trkpt>
      <trkpt lat="43.458" lon="5.76662">
        <ele>430.7</ele>
        <time>2011-02-25T13:59:27Z</time>
      </trkpt>
      <trkpt lat="43.458" lon="5.76648">
        <ele>430.5</ele>
        <time>2011-02-25T13:59:37Z</time>
      </trkpt>
      <trkpt lat="43.458" lon="5.76633">
        <ele>430.1</ele>
        <time>2011-02-25T13:59:47Z</time>
      </trkpt>
      <trkpt lat="43.45798" lon="5.76616">
        <ele>429.7</ele>
        <time>2011-02-25T13:59:57Z</time>
      </trkpt>
      <trkpt lat="43.45797" lon="5.76601">
        <ele>429.7</ele>
        <time>2011-02-25T14:00:07Z</time>
      </trkpt>
      <trkpt lat="43.45797" lon="5.76599">
        <ele>429.7</ele>
        <time>2011-02-25T14:00:08Z</time>
      </trkpt>
      <trkpt lat="43.45791" lon="5.76564">
        <ele>428.6</ele>
        <time>2011-02-25T14:00:27Z</time>
      </trkpt>
      <trkpt lat="43.4579" lon="5.76548">
        <ele>427.7</ele>
        <time>2011-02-25T14:00:37Z</time>
      </trkpt>
      <trkpt lat="43.45788" lon="5.76531">
        <ele>427.1</ele>
        <time>2011-02-25T14:00:47Z</time>
      </trkpt>
      <trkpt lat="43.45784" lon="5.76517">
        <ele>426.5</ele>
        <time>2011-02-25T14:00:57Z</time>
      </trkpt>
      <trkpt lat="43.45779" lon="5.76501">
        <ele>426.2</ele>
        <time>2011-02-25T14:01:07Z</time>
      </trkpt>
      <trkpt lat="43.45773" lon="5.76489">
        <ele>426.1</ele>
        <time>2011-02-25T14:01:17Z</time>
      </trkpt>
      <trkpt lat="43.45773" lon="5.76488">
        <ele>426.1</ele>
        <time>2011-02-25T14:01:18Z</time>
      </trkpt>
      <trkpt lat="43.45759" lon="5.76466">
        <ele>425.7</ele>
        <time>2011-02-25T14:01:37Z</time>
      </trkpt>
      <trkpt lat="43.45752" lon="5.76453">
        <ele>425.7</ele>
        <time>2011-02-25T14:01:47Z</time>
      </trkpt>
      <trkpt lat="43.45752" lon="5.76433">
        <ele>425.5</ele>
        <time>2011-02-25T14:01:57Z</time>
      </trkpt>
      <trkpt lat="43.45758" lon="5.76421">
        <ele>425.2</ele>
        <time>2011-02-25T14:02:07Z</time>
      </trkpt>
      <trkpt lat="43.45767" lon="5.76418">
        <ele>425.2</ele>
        <time>2011-02-25T14:02:17Z</time>
      </trkpt>
      <trkpt lat="43.45777" lon="5.76417">
        <ele>425</ele>
        <time>2011-02-25T14:02:27Z</time>
      </trkpt>
      <trkpt lat="43.45778" lon="5.76417">
        <ele>425</ele>
        <time>2011-02-25T14:02:28Z</time>
      </trkpt>
      <trkpt lat="43.45799" lon="5.76412">
        <ele>424.5</ele>
        <time>2011-02-25T14:02:47Z</time>
      </trkpt>
      <trkpt lat="43.4581" lon="5.76406">
        <ele>424</ele>
        <time>2011-02-25T14:02:57Z</time>
      </trkpt>
      <trkpt lat="43.45819" lon="5.764">
        <ele>423.2</ele>
        <time>2011-02-25T14:03:07Z</time>
      </trkpt>
      <trkpt lat="43.45831" lon="5.76392">
        <ele>422.7</ele>
        <time>2011-02-25T14:03:17Z</time>
      </trkpt>
      <trkpt lat="43.4584" lon="5.76378">
        <ele>422.6</ele>
        <time>2011-02-25T14:03:27Z</time>
      </trkpt>
      <trkpt lat="43.45846" lon="5.76364">
        <ele>422.5</ele>
        <time>2011-02-25T14:03:37Z</time>
      </trkpt>
      <trkpt lat="43.45847" lon="5.76363">
        <ele>422.5</ele>
        <time>2011-02-25T14:03:38Z</time>
      </trkpt>
      <trkpt lat="43.45846" lon="5.76333">
        <ele>422</ele>
        <time>2011-02-25T14:03:57Z</time>
      </trkpt>
      <trkpt lat="43.45838" lon="5.76317">
        <ele>421.6</ele>
        <time>2011-02-25T14:04:07Z</time>
      </trkpt>
      <trkpt lat="43.45832" lon="5.76303">
        <ele>421.2</ele>
        <time>2011-02-25T14:04:17Z</time>
      </trkpt>
      <trkpt lat="43.45828" lon="5.76289">
        <ele>421.1</ele>
        <time>2011-02-25T14:04:27Z</time>
      </trkpt>
      <trkpt lat="43.45825" lon="5.76276">
        <ele>420.7</ele>
        <time>2011-02-25T14:04:37Z</time>
      </trkpt>
      <trkpt lat="43.45824" lon="5.76263">
        <ele>420.7</ele>
        <time>2011-02-25T14:04:47Z</time>
      </trkpt>
      <trkpt lat="43.45824" lon="5.76261">
        <ele>420.7</ele>
        <time>2011-02-25T14:04:48Z</time>
      </trkpt>
      <trkpt lat="43.4582" lon="5.76228">
        <ele>420.2</ele>
        <time>2011-02-25T14:05:07Z</time>
      </trkpt>
      <trkpt lat="43.45814" lon="5.76212">
        <ele>420.2</ele>
        <time>2011-02-25T14:05:17Z</time>
      </trkpt>
      <trkpt lat="43.4581" lon="5.76196">
        <ele>420.2</ele>
        <time>2011-02-25T14:05:27Z</time>
      </trkpt>
      <trkpt lat="43.45807" lon="5.7618">
        <ele>420.2</ele>
        <time>2011-02-25T14:05:37Z</time>
      </trkpt>
      <trkpt lat="43.45801" lon="5.76165">
        <ele>420</ele>
        <time>2011-02-25T14:05:47Z</time>
      </trkpt>
      <trkpt lat="43.45794" lon="5.76153">
        <ele>419.7</ele>
        <time>2011-02-25T14:05:57Z</time>
      </trkpt>
      <trkpt lat="43.45794" lon="5.76152">
        <ele>419.7</ele>
        <time>2011-02-25T14:05:58Z</time>
      </trkpt>
      <trkpt lat="43.45779" lon="5.76126">
        <ele>419.5</ele>
        <time>2011-02-25T14:06:17Z</time>
      </trkpt>
      <trkpt lat="43.45773" lon="5.76107">
        <ele>419.5</ele>
        <time>2011-02-25T14:06:27Z</time>
      </trkpt>
      <trkpt lat="43.45768" lon="5.7609">
        <ele>419.2</ele>
        <time>2011-02-25T14:06:37Z</time>
      </trkpt>
      <trkpt lat="43.45768" lon="5.76072">
        <ele>419.2</ele>
        <time>2011-02-25T14:06:47Z</time>
      </trkpt>
      <trkpt lat="43.45767" lon="5.76053">
        <ele>419.2</ele>
        <time>2011-02-25T14:06:57Z</time>
      </trkpt>
      <trkpt lat="43.45765" lon="5.76034">
        <ele>418.6</ele>
        <time>2011-02-25T14:07:07Z</time>
      </trkpt>
      <trkpt lat="43.45765" lon="5.76032">
        <ele>418.6</ele>
        <time>2011-02-25T14:07:08Z</time>
      </trkpt>
      <trkpt lat="43.45756" lon="5.76008">
        <ele>418.1</ele>
        <time>2011-02-25T14:07:27Z</time>
      </trkpt>
      <trkpt lat="43.45748" lon="5.75995">
        <ele>418</ele>
        <time>2011-02-25T14:07:37Z</time>
      </trkpt>
      <trkpt lat="43.4574" lon="5.75981">
        <ele>418</ele>
        <time>2011-02-25T14:07:47Z</time>
      </trkpt>
      <trkpt lat="43.45734" lon="5.75967">
        <ele>418</ele>
        <time>2011-02-25T14:07:57Z</time>
      </trkpt>
      <trkpt lat="43.45731" lon="5.7595">
        <ele>418</ele>
        <time>2011-02-25T14:08:07Z</time>
      </trkpt>
      <trkpt lat="43.45734" lon="5.7593">
        <ele>418</ele>
        <time>2011-02-25T14:08:17Z</time>
      </trkpt>
      <trkpt lat="43.45734" lon="5.75928">
        <ele>417.7</ele>
        <time>2011-02-25T14:08:18Z</time>
      </trkpt>
      <trkpt lat="43.45749" lon="5.75888">
        <ele>417.2</ele>
        <time>2011-02-25T14:08:37Z</time>
      </trkpt>
      <trkpt lat="43.45749" lon="5.75867">
        <ele>417.2</ele>
        <time>2011-02-25T14:08:47Z</time>
      </trkpt>
      <trkpt lat="43.4574" lon="5.7585">
        <ele>417.2</ele>
        <time>2011-02-25T14:08:57Z</time>
      </trkpt>
      <trkpt lat="43.45732" lon="5.7584">
        <ele>417.2</ele>
        <time>2011-02-25T14:09:07Z</time>
      </trkpt>
      <trkpt lat="43.45721" lon="5.75832">
        <ele>417.1</ele>
        <time>2011-02-25T14:09:17Z</time>
      </trkpt>
      <trkpt lat="43.45711" lon="5.75827">
        <ele>417.1</ele>
        <time>2011-02-25T14:09:27Z</time>
      </trkpt>
      <trkpt lat="43.4571" lon="5.75827">
        <ele>417.1</ele>
        <time>2011-02-25T14:09:28Z</time>
      </trkpt>
      <trkpt lat="43.45691" lon="5.75817">
        <ele>416.7</ele>
        <time>2011-02-25T14:09:47Z</time>
      </trkpt>
      <trkpt lat="43.4568" lon="5.75804">
        <ele>416.7</ele>
        <time>2011-02-25T14:09:57Z</time>
      </trkpt>
      <trkpt lat="43.45675" lon="5.75787">
        <ele>416.7</ele>
        <time>2011-02-25T14:10:07Z</time>
      </trkpt>
      <trkpt lat="43.45675" lon="5.75772">
        <ele>417</ele>
        <time>2011-02-25T14:10:17Z</time>
      </trkpt>
      <trkpt lat="43.45676" lon="5.75755">
        <ele>416.7</ele>
        <time>2011-02-25T14:10:27Z</time>
      </trkpt>
      <trkpt lat="43.45675" lon="5.75736">
        <ele>416.6</ele>
        <time>2011-02-25T14:10:37Z</time>
      </trkpt>
      <trkpt lat="43.45675" lon="5.75734">
        <ele>416.6</ele>
        <time>2011-02-25T14:10:38Z</time>
      </trkpt>
      <trkpt lat="43.45677" lon="5.75699">
        <ele>416.2</ele>
        <time>2011-02-25T14:10:57Z</time>
      </trkpt>
      <trkpt lat="43.45681" lon="5.75681">
        <ele>416.1</ele>
        <time>2011-02-25T14:11:07Z</time>
      </trkpt>
      <trkpt lat="43.45686" lon="5.75667">
        <ele>415.7</ele>
        <time>2011-02-25T14:11:17Z</time>
      </trkpt>
      <trkpt lat="43.45691" lon="5.75656">
        <ele>415.5</ele>
        <time>2011-02-25T14:11:27Z</time>
      </trkpt>
      <trkpt lat="43.45692" lon="5.75641">
        <ele>415.2</ele>
        <time>2011-02-25T14:11:37Z</time>
      </trkpt>
      <trkpt lat="43.45694" lon="5.75626">
        <ele>414.6</ele>
        <time>2011-02-25T14:11:47Z</time>
      </trkpt>
      <trkpt lat="43.45693" lon="5.75625">
        <ele>414.6</ele>
        <time>2011-02-25T14:11:48Z</time>
      </trkpt>
      <trkpt lat="43.45696" lon="5.75594">
        <ele>413.2</ele>
        <time>2011-02-25T14:12:07Z</time>
      </trkpt>
      <trkpt lat="43.45696" lon="5.75578">
        <ele>412.2</ele>
        <time>2011-02-25T14:12:17Z</time>
      </trkpt>
      <trkpt lat="43.45699" lon="5.75563">
        <ele>411.2</ele>
        <time>2011-02-25T14:12:27Z</time>
      </trkpt>
      <trkpt lat="43.45702" lon="5.7555">
        <ele>410.6</ele>
        <time>2011-02-25T14:12:37Z</time>
      </trkpt>
      <trkpt lat="43.45705" lon="5.75534">
        <ele>409.7</ele>
        <time>2011-02-25T14:12:47Z</time>
      </trkpt>
      <trkpt lat="43.45708" lon="5.7552">
        <ele>409.5</ele>
        <time>2011-02-25T14:12:57Z</time>
      </trkpt>
      <trkpt lat="43.45709" lon="5.75519">
        <ele>409.2</ele>
        <time>2011-02-25T14:12:58Z</time>
      </trkpt>
      <trkpt lat="43.45715" lon="5.75486">
        <ele>407.5</ele>
        <time>2011-02-25T14:13:17Z</time>
      </trkpt>
      <trkpt lat="43.4572" lon="5.75469">
        <ele>406</ele>
        <time>2011-02-25T14:13:27Z</time>
      </trkpt>
      <trkpt lat="43.45726" lon="5.75455">
        <ele>404.7</ele>
        <time>2011-02-25T14:13:37Z</time>
      </trkpt>
      <trkpt lat="43.45732" lon="5.75439">
        <ele>403.7</ele>
        <time>2011-02-25T14:13:47Z</time>
      </trkpt>
      <trkpt lat="43.45738" lon="5.75424">
        <ele>403</ele>
        <time>2011-02-25T14:13:57Z</time>
      </trkpt>
      <trkpt lat="43.45738" lon="5.75409">
        <ele>402.2</ele>
        <time>2011-02-25T14:14:07Z</time>
      </trkpt>
      <trkpt lat="43.45738" lon="5.75408">
        <ele>402.2</ele>
        <time>2011-02-25T14:14:08Z</time>
      </trkpt>
      <trkpt lat="43.45716" lon="5.75391">
        <ele>400.1</ele>
        <time>2011-02-25T14:14:27Z</time>
      </trkpt>
      <trkpt lat="43.457" lon="5.75393">
        <ele>399.2</ele>
        <time>2011-02-25T14:14:37Z</time>
      </trkpt>
      <trkpt lat="43.45685" lon="5.75393">
        <ele>398.5</ele>
        <time>2011-02-25T14:14:47Z</time>
      </trkpt>
      <trkpt lat="43.45679" lon="5.75381">
        <ele>398.2</ele>
        <time>2011-02-25T14:14:57Z</time>
      </trkpt>
      <trkpt lat="43.45685" lon="5.75362">
        <ele>397.7</ele>
        <time>2011-02-25T14:15:07Z</time>
      </trkpt>
      <trkpt lat="43.45693" lon="5.75347">
        <ele>397.1</ele>
        <time>2011-02-25T14:15:17Z</time>
      </trkpt>
      <trkpt lat="43.45694" lon="5.75346">
        <ele>397</ele>
        <time>2011-02-25T14:15:18Z</time>
      </trkpt>
      <trkpt lat="43.4571" lon="5.75317">
        <ele>395.7</ele>
        <time>2011-02-25T14:15:37Z</time>
      </trkpt>
      <trkpt lat="43.45716" lon="5.75297">
        <ele>394.7</ele>
        <time>2011-02-25T14:15:47Z</time>
      </trkpt>
      <trkpt lat="43.45723" lon="5.75281">
        <ele>394.1</ele>
        <time>2011-02-25T14:15:57Z</time>
      </trkpt>
      <trkpt lat="43.45729" lon="5.75267">
        <ele>393.2</ele>
        <time>2011-02-25T14:16:07Z</time>
      </trkpt>
      <trkpt lat="43.45732" lon="5.75251">
        <ele>392.2</ele>
        <time>2011-02-25T14:16:17Z</time>
      </trkpt>
      <trkpt lat="43.45734" lon="5.75235">
        <ele>391.6</ele>
        <time>2011-02-25T14:16:27Z</time>
      </trkpt>
      <trkpt lat="43.45734" lon="5.75234">
        <ele>391.5</ele>
        <time>2011-02-25T14:16:28Z</time>
      </trkpt>
      <trkpt lat="43.45737" lon="5.75202">
        <ele>390.2</ele>
        <time>2011-02-25T14:16:47Z</time>
      </trkpt>
      <trkpt lat="43.45741" lon="5.75184">
        <ele>389.5</ele>
        <time>2011-02-25T14:16:57Z</time>
      </trkpt>
      <trkpt lat="43.45749" lon="5.75172">
        <ele>388.7</ele>
        <time>2011-02-25T14:17:07Z</time>
      </trkpt>
      <trkpt lat="43.45756" lon="5.7516">
        <ele>388</ele>
        <time>2011-02-25T14:17:17Z</time>
      </trkpt>
      <trkpt lat="43.45765" lon="5.75153">
        <ele>387.5</ele>
        <time>2011-02-25T14:17:27Z</time>
      </trkpt>
      <trkpt lat="43.45766" lon="5.75152">
        <ele>387.5</ele>
        <time>2011-02-25T14:17:28Z</time>
      </trkpt>
      <trkpt lat="43.45785" lon="5.75138">
        <ele>386.7</ele>
        <time>2011-02-25T14:17:47Z</time>
      </trkpt>
      <trkpt lat="43.45799" lon="5.75128">
        <ele>386.2</ele>
        <time>2011-02-25T14:17:57Z</time>
      </trkpt>
      <trkpt lat="43.45812" lon="5.75119">
        <ele>385.7</ele>
        <time>2011-02-25T14:18:07Z</time>
      </trkpt>
      <trkpt lat="43.45824" lon="5.75109">
        <ele>385.2</ele>
        <time>2011-02-25T14:18:17Z</time>
      </trkpt>
      <trkpt lat="43.45835" lon="5.75098">
        <ele>385.1</ele>
        <time>2011-02-25T14:18:27Z</time>
      </trkpt>
      <trkpt lat="43.45842" lon="5.75085">
        <ele>384.6</ele>
        <time>2011-02-25T14:18:37Z</time>
      </trkpt>
      <trkpt lat="43.45843" lon="5.75083">
        <ele>384.6</ele>
        <time>2011-02-25T14:18:38Z</time>
      </trkpt>
      <trkpt lat="43.45863" lon="5.75062">
        <ele>383.6</ele>
        <time>2011-02-25T14:18:57Z</time>
      </trkpt>
      <trkpt lat="43.45875" lon="5.75059">
        <ele>383</ele>
        <time>2011-02-25T14:19:07Z</time>
      </trkpt>
      <trkpt lat="43.45887" lon="5.75055">
        <ele>382.5</ele>
        <time>2011-02-25T14:19:17Z</time>
      </trkpt>
      <trkpt lat="43.459" lon="5.7505">
        <ele>381.7</ele>
        <time>2011-02-25T14:19:27Z</time>
      </trkpt>
      <trkpt lat="43.45911" lon="5.75042">
        <ele>380.7</ele>
        <time>2011-02-25T14:19:37Z</time>
      </trkpt>
      <trkpt lat="43.4592" lon="5.75031">
        <ele>380</ele>
        <time>2011-02-25T14:19:47Z</time>
      </trkpt>
      <trkpt lat="43.45921" lon="5.7503">
        <ele>379.7</ele>
        <time>2011-02-25T14:19:48Z</time>
      </trkpt>
      <trkpt lat="43.4594" lon="5.75012">
        <ele>378.5</ele>
        <time>2011-02-25T14:20:07Z</time>
      </trkpt>
      <trkpt lat="43.45949" lon="5.75004">
        <ele>377.7</ele>
        <time>2011-02-25T14:20:17Z</time>
      </trkpt>
      <trkpt lat="43.45959" lon="5.74996">
        <ele>377</ele>
        <time>2011-02-25T14:20:27Z</time>
      </trkpt>
      <trkpt lat="43.4597" lon="5.7499">
        <ele>376.2</ele>
        <time>2011-02-25T14:20:37Z</time>
      </trkpt>
      <trkpt lat="43.45982" lon="5.74988">
        <ele>375.2</ele>
        <time>2011-02-25T14:20:47Z</time>
      </trkpt>
      <trkpt lat="43.45984" lon="5.74991">
        <ele>374.7</ele>
        <time>2011-02-25T14:20:57Z</time>
      </trkpt>
      <trkpt lat="43.45984" lon="5.74992">
        <ele>374.7</ele>
        <time>2011-02-25T14:20:58Z</time>
      </trkpt>
      <trkpt lat="43.45993" lon="5.74984">
        <ele>372.6</ele>
        <time>2011-02-25T14:21:17Z</time>
      </trkpt>
      <trkpt lat="43.46" lon="5.74971">
        <ele>370.6</ele>
        <time>2011-02-25T14:21:27Z</time>
      </trkpt>
      <trkpt lat="43.46008" lon="5.74959">
        <ele>368.7</ele>
        <time>2011-02-25T14:21:37Z</time>
      </trkpt>
      <trkpt lat="43.46016" lon="5.74949">
        <ele>367</ele>
        <time>2011-02-25T14:21:47Z</time>
      </trkpt>
      <trkpt lat="43.46025" lon="5.74938">
        <ele>365.6</ele>
        <time>2011-02-25T14:21:57Z</time>
      </trkpt>
      <trkpt lat="43.46034" lon="5.74926">
        <ele>364.7</ele>
        <time>2011-02-25T14:22:07Z</time>
      </trkpt>
      <trkpt lat="43.46035" lon="5.74925">
        <ele>364.6</ele>
        <time>2011-02-25T14:22:08Z</time>
      </trkpt>
      <trkpt lat="43.4605" lon="5.749">
        <ele>362.7</ele>
        <time>2011-02-25T14:22:27Z</time>
      </trkpt>
      <trkpt lat="43.46059" lon="5.74887">
        <ele>361.7</ele>
        <time>2011-02-25T14:22:37Z</time>
      </trkpt>
      <trkpt lat="43.46068" lon="5.74874">
        <ele>360.6</ele>
        <time>2011-02-25T14:22:47Z</time>
      </trkpt>
      <trkpt lat="43.46078" lon="5.7486">
        <ele>359.6</ele>
        <time>2011-02-25T14:22:57Z</time>
      </trkpt>
      <trkpt lat="43.46087" lon="5.74846">
        <ele>358.7</ele>
        <time>2011-02-25T14:23:07Z</time>
      </trkpt>
      <trkpt lat="43.46088" lon="5.74845">
        <ele>358.6</ele>
        <time>2011-02-25T14:23:08Z</time>
      </trkpt>
      <trkpt lat="43.46105" lon="5.74824">
        <ele>356.7</ele>
        <time>2011-02-25T14:23:27Z</time>
      </trkpt>
      <trkpt lat="43.46116" lon="5.74812">
        <ele>355.7</ele>
        <time>2011-02-25T14:23:37Z</time>
      </trkpt>
      <trkpt lat="43.46125" lon="5.74801">
        <ele>354.7</ele>
        <time>2011-02-25T14:23:47Z</time>
      </trkpt>
      <trkpt lat="43.46136" lon="5.74796">
        <ele>353.2</ele>
        <time>2011-02-25T14:23:57Z</time>
      </trkpt>
      <trkpt lat="43.46143" lon="5.74796">
        <ele>352.2</ele>
        <time>2011-02-25T14:24:07Z</time>
      </trkpt>
      <trkpt lat="43.46148" lon="5.74795">
        <ele>351</ele>
        <time>2011-02-25T14:24:17Z</time>
      </trkpt>
      <trkpt lat="43.46149" lon="5.74795">
        <ele>350.7</ele>
        <time>2011-02-25T14:24:18Z</time>
      </trkpt>
      <trkpt lat="43.46152" lon="5.74793">
        <ele>349.7</ele>
        <time>2011-02-25T14:24:37Z</time>
      </trkpt>
      <trkpt lat="43.46151" lon="5.74793">
        <ele>349.7</ele>
        <time>2011-02-25T14:24:47Z</time>
      </trkpt>
      <trkpt lat="43.46151" lon="5.74792">
        <ele>349.5</ele>
        <time>2011-02-25T14:24:57Z</time>
      </trkpt>
      <trkpt lat="43.46152" lon="5.74792">
        <ele>348.7</ele>
        <time>2011-02-25T14:25:07Z</time>
      </trkpt>
      <trkpt lat="43.46151" lon="5.74795">
        <ele>347.6</ele>
        <time>2011-02-25T14:25:17Z</time>
      </trkpt>
      <trkpt lat="43.46151" lon="5.74795">
        <ele>347.6</ele>
        <time>2011-02-25T14:25:18Z</time>
      </trkpt>
      <trkpt lat="43.46152" lon="5.74791">
        <ele>347</ele>
        <time>2011-02-25T14:25:37Z</time>
      </trkpt>
      <trkpt lat="43.46151" lon="5.74791">
        <ele>346.7</ele>
        <time>2011-02-25T14:25:47Z</time>
      </trkpt>
      <trkpt lat="43.46151" lon="5.74791">
        <ele>346.2</ele>
        <time>2011-02-25T14:25:57Z</time>
      </trkpt>
      <trkpt lat="43.4616" lon="5.74788">
        <ele>344.7</ele>
        <time>2011-02-25T14:26:07Z</time>
      </trkpt>
      <trkpt lat="43.46162" lon="5.74793">
        <ele>344.6</ele>
        <time>2011-02-25T14:26:17Z</time>
      </trkpt>
      <trkpt lat="43.46162" lon="5.74797">
        <ele>344.5</ele>
        <time>2011-02-25T14:26:27Z</time>
      </trkpt>
      <trkpt lat="43.46162" lon="5.74797">
        <ele>344.5</ele>
        <time>2011-02-25T14:26:28Z</time>
      </trkpt>
      <trkpt lat="43.46174" lon="5.74791">
        <ele>343</ele>
        <time>2011-02-25T14:26:47Z</time>
      </trkpt>
      <trkpt lat="43.46184" lon="5.74786">
        <ele>341.7</ele>
        <time>2011-02-25T14:26:57Z</time>
      </trkpt>
      <trkpt lat="43.46194" lon="5.74778">
        <ele>340.7</ele>
        <time>2011-02-25T14:27:07Z</time>
      </trkpt>
      <trkpt lat="43.46204" lon="5.74771">
        <ele>339.5</ele>
        <time>2011-02-25T14:27:17Z</time>
      </trkpt>
      <trkpt lat="43.46214" lon="5.74764">
        <ele>338.2</ele>
        <time>2011-02-25T14:27:27Z</time>
      </trkpt>
      <trkpt lat="43.46224" lon="5.74758">
        <ele>337.2</ele>
        <time>2011-02-25T14:27:37Z</time>
      </trkpt>
      <trkpt lat="43.46225" lon="5.74757">
        <ele>337.2</ele>
        <time>2011-02-25T14:27:38Z</time>
      </trkpt>
      <trkpt lat="43.46245" lon="5.74747">
        <ele>335.5</ele>
        <time>2011-02-25T14:27:57Z</time>
      </trkpt>
      <trkpt lat="43.46257" lon="5.74742">
        <ele>334.7</ele>
        <time>2011-02-25T14:28:07Z</time>
      </trkpt>
      <trkpt lat="43.46269" lon="5.74737">
        <ele>334</ele>
        <time>2011-02-25T14:28:17Z</time>
      </trkpt>
      <trkpt lat="43.4628" lon="5.74733">
        <ele>333.2</ele>
        <time>2011-02-25T14:28:27Z</time>
      </trkpt>
      <trkpt lat="43.46291" lon="5.74728">
        <ele>332.2</ele>
        <time>2011-02-25T14:28:37Z</time>
      </trkpt>
      <trkpt lat="43.46303" lon="5.74723">
        <ele>331.7</ele>
        <time>2011-02-25T14:28:47Z</time>
      </trkpt>
      <trkpt lat="43.46304" lon="5.74722">
        <ele>331.7</ele>
        <time>2011-02-25T14:28:48Z</time>
      </trkpt>
      <trkpt lat="43.46317" lon="5.74717">
        <ele>331</ele>
        <time>2011-02-25T14:29:07Z</time>
      </trkpt>
      <trkpt lat="43.46324" lon="5.74717">
        <ele>330.6</ele>
        <time>2011-02-25T14:29:17Z</time>
      </trkpt>
      <trkpt lat="43.46332" lon="5.74713">
        <ele>329.7</ele>
        <time>2011-02-25T14:29:27Z</time>
      </trkpt>
      <trkpt lat="43.46344" lon="5.7471">
        <ele>328.6</ele>
        <time>2011-02-25T14:29:37Z</time>
      </trkpt>
      <trkpt lat="43.46356" lon="5.74707">
        <ele>327.7</ele>
        <time>2011-02-25T14:29:47Z</time>
      </trkpt>
      <trkpt lat="43.46369" lon="5.74704">
        <ele>326.7</ele>
        <time>2011-02-25T14:29:57Z</time>
      </trkpt>
      <trkpt lat="43.4637" lon="5.74704">
        <ele>326.7</ele>
        <time>2011-02-25T14:29:58Z</time>
      </trkpt>
      <trkpt lat="43.46395" lon="5.74695">
        <ele>326.1</ele>
        <time>2011-02-25T14:30:17Z</time>
      </trkpt>
      <trkpt lat="43.46408" lon="5.74689">
        <ele>325.7</ele>
        <time>2011-02-25T14:30:27Z</time>
      </trkpt>
      <trkpt lat="43.4642" lon="5.74683">
        <ele>325.2</ele>
        <time>2011-02-25T14:30:37Z</time>
      </trkpt>
      <trkpt lat="43.46432" lon="5.74677">
        <ele>325</ele>
        <time>2011-02-25T14:30:47Z</time>
      </trkpt>
      <trkpt lat="43.46444" lon="5.74671">
        <ele>324.7</ele>
        <time>2011-02-25T14:30:57Z</time>
      </trkpt>
      <trkpt lat="43.46456" lon="5.74665">
        <ele>324.2</ele>
        <time>2011-02-25T14:31:07Z</time>
      </trkpt>
      <trkpt lat="43.46458" lon="5.74665">
        <ele>324.2</ele>
        <time>2011-02-25T14:31:08Z</time>
      </trkpt>
      <trkpt lat="43.4648" lon="5.74654">
        <ele>323.2</ele>
        <time>2011-02-25T14:31:27Z</time>
      </trkpt>
      <trkpt lat="43.46492" lon="5.7465">
        <ele>322.7</ele>
        <time>2011-02-25T14:31:37Z</time>
      </trkpt>
      <trkpt lat="43.46506" lon="5.74645">
        <ele>322</ele>
        <time>2011-02-25T14:31:47Z</time>
      </trkpt>
      <trkpt lat="43.46519" lon="5.74641">
        <ele>321.2</ele>
        <time>2011-02-25T14:31:57Z</time>
      </trkpt>
      <trkpt lat="43.46532" lon="5.74636">
        <ele>320.2</ele>
        <time>2011-02-25T14:32:07Z</time>
      </trkpt>
      <trkpt lat="43.46546" lon="5.7463">
        <ele>319.7</ele>
        <time>2011-02-25T14:32:17Z</time>
      </trkpt>
      <trkpt lat="43.46548" lon="5.7463">
        <ele>319.7</ele>
        <time>2011-02-25T14:32:18Z</time>
      </trkpt>
      <trkpt lat="43.46572" lon="5.74621">
        <ele>318.1</ele>
        <time>2011-02-25T14:32:37Z</time>
      </trkpt>
      <trkpt lat="43.46585" lon="5.74616">
        <ele>317.1</ele>
        <time>2011-02-25T14:32:47Z</time>
      </trkpt>
      <trkpt lat="43.46598" lon="5.74612">
        <ele>316.1</ele>
        <time>2011-02-25T14:32:57Z</time>
      </trkpt>
      <trkpt lat="43.46611" lon="5.74606">
        <ele>315</ele>
        <time>2011-02-25T14:33:07Z</time>
      </trkpt>
      <trkpt lat="43.46622" lon="5.74602">
        <ele>313.7</ele>
        <time>2011-02-25T14:33:17Z</time>
      </trkpt>
      <trkpt lat="43.46634" lon="5.74599">
        <ele>312.6</ele>
        <time>2011-02-25T14:33:27Z</time>
      </trkpt>
      <trkpt lat="43.46636" lon="5.74598">
        <ele>312.5</ele>
        <time>2011-02-25T14:33:28Z</time>
      </trkpt>
      <trkpt lat="43.46658" lon="5.74595">
        <ele>310</ele>
        <time>2011-02-25T14:33:47Z</time>
      </trkpt>
      <trkpt lat="43.46668" lon="5.74596">
        <ele>309</ele>
        <time>2011-02-25T14:33:57Z</time>
      </trkpt>
      <trkpt lat="43.46679" lon="5.746">
        <ele>308.2</ele>
        <time>2011-02-25T14:34:07Z</time>
      </trkpt>
      <trkpt lat="43.4669" lon="5.74594">
        <ele>307.7</ele>
        <time>2011-02-25T14:34:17Z</time>
      </trkpt>
      <trkpt lat="43.467" lon="5.7459">
        <ele>307.6</ele>
        <time>2011-02-25T14:34:27Z</time>
      </trkpt>
      <trkpt lat="43.46709" lon="5.74581">
        <ele>307.2</ele>
        <time>2011-02-25T14:34:37Z</time>
      </trkpt>
      <trkpt lat="43.46709" lon="5.74579">
        <ele>307.2</ele>
        <time>2011-02-25T14:34:38Z</time>
      </trkpt>
      <trkpt lat="43.46717" lon="5.74547">
        <ele>305.6</ele>
        <time>2011-02-25T14:34:57Z</time>
      </trkpt>
      <trkpt lat="43.46723" lon="5.74531">
        <ele>304.7</ele>
        <time>2011-02-25T14:35:07Z</time>
      </trkpt>
      <trkpt lat="43.46731" lon="5.7452">
        <ele>303.7</ele>
        <time>2011-02-25T14:35:17Z</time>
      </trkpt>
      <trkpt lat="43.46738" lon="5.74507">
        <ele>303</ele>
        <time>2011-02-25T14:35:27Z</time>
      </trkpt>
      <trkpt lat="43.46747" lon="5.74496">
        <ele>301.7</ele>
        <time>2011-02-25T14:35:37Z</time>
      </trkpt>
      <trkpt lat="43.46748" lon="5.74495">
        <ele>301.7</ele>
        <time>2011-02-25T14:35:38Z</time>
      </trkpt>
      <trkpt lat="43.46758" lon="5.74519">
        <ele>299.2</ele>
        <time>2011-02-25T14:35:57Z</time>
      </trkpt>
      <trkpt lat="43.4676" lon="5.74526">
        <ele>298.6</ele>
        <time>2011-02-25T14:36:07Z</time>
      </trkpt>
      <trkpt lat="43.46761" lon="5.74525">
        <ele>298.5</ele>
        <time>2011-02-25T14:36:17Z</time>
      </trkpt>
      <trkpt lat="43.46762" lon="5.74526">
        <ele>298.2</ele>
        <time>2011-02-25T14:36:27Z</time>
      </trkpt>
      <trkpt lat="43.46764" lon="5.74525">
        <ele>298.2</ele>
        <time>2011-02-25T14:36:37Z</time>
      </trkpt>
      <trkpt lat="43.46765" lon="5.74525">
        <ele>298.2</ele>
        <time>2011-02-25T14:36:47Z</time>
      </trkpt>
      <trkpt lat="43.46765" lon="5.74525">
        <ele>298.2</ele>
        <time>2011-02-25T14:36:48Z</time>
      </trkpt>
    </trkseg>
  </trk>
</gpx>